[[{"header":{"parameterUnit":"m.s-1","parameterCategory":1,"la1":30.6,"la2":29.2853,"lo1":-89.7004,"lo2":-87.6739,"dx":0.0162,"dy":0.0183,"nx":112,"ny":82,"refTime":"2022-11-05T00:00:00:Z","depth":0,"parameterNumber":2,"parameterNumberName":"U-component_of_WINDS"},"data":[0.0,0.0,0.0,0.0,0.0,0.0,0.0,0.0,0.0,0.0,0.0,0.0,0.0,0.0,0.0,0.0,0.0,0.0,0.0,0.0,0.0,0.0,0.0,0.0,0.0,0.0,0.0,0.0,0.0,0.0,0.0,0.0,0.0,0.0,0.0,0.0,0.0,0.0,0.0,0.0,0.0,0.0,0.0,0.0,0.0,0.0,0.0,0.0,0.0,0.0,0.0,0.0,0.0,0.0,0.0,0.0,0.0,0.0,0.0,0.0,0.0,0.0,0.0,0.0,0.0,0.0,0.0,0.0,0.0,0.0,0.0,0.0,0.0,0.0,0.0,0.0,0.0,0.0,0.0,0.0,0.0,0.0,0.0,0.0,0.0,0.0,0.0,0.0,0.0,0.0,-4.8843,-5.6432,-5.1794,-4.7544,-4.5843,-4.5323,-4.3253,-3.896,0.0,0.0,0.0,0.0,0.0,0.0,0.0,0.0,0.0,0.0,0.0,0.0,0.0,0.0,0.0,0.0,0.0,0.0,0.0,0.0,0.0,0.0,0.0,0.0,0.0,0.0,0.0,0.0,0.0,0.0,0.0,0.0,0.0,0.0,0.0,0.0,0.0,0.0,0.0,0.0,0.0,0.0,0.0,0.0,0.0,0.0,0.0,0.0,0.0,0.0,0.0,0.0,0.0,0.0,0.0,0.0,0.0,0.0,0.0,0.0,0.0,0.0,0.0,0.0,0.0,0.0,0.0,0.0,0.0,0.0,0.0,0.0,0.0,0.0,0.0,0.0,0.0,0.0,0.0,0.0,0.0,0.0,0.0,0.0,0.0,0.0,0.0,0.0,0.0,0.0,0.0,0.0,0.0,0.0,0.0,0.0,0.0,0.0,0.0,0.0,0.0,0.0,0.0,0.0,-5.2638,-5.3981,-5.3198,-5.1198,-4.7877,-4.6936,-4.4757,-4.0381,0.0,0.0,0.0,0.0,0.0,0.0,0.0,0.0,0.0,0.0,0.0,0.0,0.0,0.0,0.0,0.0,0.0,0.0,0.0,0.0,0.0,0.0,0.0,0.0,0.0,0.0,0.0,0.0,0.0,0.0,0.0,0.0,0.0,0.0,0.0,0.0,0.0,0.0,0.0,0.0,0.0,0.0,0.0,0.0,0.0,0.0,0.0,0.0,0.0,0.0,0.0,0.0,0.0,0.0,0.0,0.0,0.0,0.0,0.0,0.0,0.0,0.0,0.0,0.0,0.0,0.0,0.0,0.0,0.0,0.0,0.0,0.0,0.0,0.0,0.0,0.0,0.0,0.0,0.0,0.0,0.0,0.0,0.0,0.0,0.0,0.0,0.0,0.0,0.0,0.0,0.0,0.0,0.0,0.0,0.0,0.0,0.0,0.0,0.0,0.0,0.0,0.0,0.0,-5.407,-5.5887,-5.5879,-5.4262,-5.2258,-5.014,-4.8946,-4.6465,-4.214,-3.8697,0.0,0.0,0.0,0.0,0.0,0.0,0.0,0.0,0.0,0.0,0.0,0.0,0.0,0.0,0.0,0.0,0.0,0.0,0.0,0.0,0.0,0.0,0.0,0.0,0.0,0.0,0.0,0.0,0.0,0.0,0.0,0.0,0.0,0.0,0.0,0.0,0.0,0.0,0.0,0.0,0.0,0.0,0.0,0.0,0.0,0.0,0.0,0.0,0.0,0.0,0.0,0.0,0.0,0.0,0.0,0.0,0.0,0.0,0.0,0.0,0.0,0.0,0.0,0.0,0.0,0.0,0.0,0.0,0.0,0.0,0.0,0.0,0.0,0.0,0.0,0.0,0.0,0.0,0.0,0.0,0.0,0.0,0.0,0.0,0.0,0.0,0.0,0.0,0.0,0.0,0.0,0.0,0.0,0.0,0.0,0.0,0.0,0.0,0.0,0.0,0.0,0.0,-5.6535,-5.7808,-5.7552,-5.5429,-5.3544,-5.2053,-5.0945,-4.8296,-4.3616,-4.0103,0.0,0.0,0.0,0.0,0.0,0.0,0.0,0.0,0.0,0.0,0.0,0.0,0.0,0.0,0.0,0.0,0.0,0.0,0.0,0.0,0.0,0.0,0.0,0.0,0.0,0.0,0.0,0.0,0.0,0.0,0.0,0.0,0.0,0.0,0.0,0.0,0.0,0.0,0.0,0.0,0.0,0.0,0.0,0.0,0.0,0.0,0.0,0.0,0.0,0.0,0.0,0.0,0.0,0.0,0.0,0.0,0.0,0.0,0.0,0.0,0.0,0.0,0.0,0.0,0.0,0.0,0.0,0.0,0.0,0.0,0.0,0.0,0.0,0.0,0.0,0.0,0.0,0.0,0.0,0.0,0.0,0.0,0.0,0.0,0.0,0.0,0.0,0.0,0.0,0.0,0.0,0.0,0.0,0.0,0.0,0.0,0.0,0.0,0.0,0.0,0.0,0.0,-5.781,-5.7543,-5.6612,-5.7144,-5.6278,-5.3148,-5.295,-5.0418,-4.4417,-4.0766,0.0,0.0,0.0,0.0,0.0,0.0,0.0,0.0,0.0,0.0,0.0,0.0,0.0,0.0,0.0,0.0,0.0,0.0,0.0,0.0,0.0,0.0,0.0,0.0,0.0,0.0,0.0,0.0,0.0,0.0,0.0,0.0,0.0,0.0,0.0,0.0,0.0,0.0,0.0,0.0,0.0,0.0,0.0,0.0,0.0,0.0,0.0,0.0,0.0,0.0,0.0,0.0,0.0,0.0,0.0,0.0,0.0,0.0,0.0,0.0,0.0,0.0,0.0,0.0,0.0,0.0,0.0,0.0,0.0,0.0,0.0,0.0,0.0,0.0,0.0,0.0,0.0,0.0,0.0,0.0,0.0,0.0,0.0,0.0,0.0,0.0,0.0,0.0,0.0,0.0,0.0,0.0,0.0,0.0,0.0,0.0,0.0,0.0,0.0,0.0,0.0,0.0,-5.9837,-5.9033,-5.8355,-5.8484,-5.7897,-5.6191,-5.5252,-5.2566,-4.75,0.0,0.0,0.0,0.0,0.0,0.0,0.0,0.0,0.0,0.0,0.0,0.0,0.0,0.0,0.0,0.0,0.0,0.0,0.0,0.0,0.0,0.0,0.0,0.0,0.0,0.0,0.0,0.0,0.0,0.0,0.0,0.0,0.0,0.0,0.0,0.0,0.0,0.0,0.0,0.0,0.0,0.0,0.0,0.0,0.0,0.0,0.0,0.0,0.0,0.0,0.0,0.0,0.0,0.0,0.0,0.0,0.0,0.0,0.0,0.0,0.0,0.0,0.0,0.0,0.0,0.0,0.0,0.0,0.0,0.0,0.0,0.0,0.0,0.0,0.0,0.0,0.0,0.0,0.0,0.0,0.0,0.0,0.0,0.0,0.0,0.0,0.0,0.0,0.0,0.0,0.0,0.0,0.0,0.0,0.0,0.0,0.0,0.0,0.0,0.0,0.0,0.0,-6.0397,-6.0875,-6.0164,-5.9648,-5.9674,-5.9235,-5.7983,-5.7205,-5.4329,-4.8646,0.0,0.0,0.0,0.0,0.0,0.0,0.0,0.0,0.0,0.0,0.0,0.0,0.0,0.0,0.0,0.0,0.0,0.0,0.0,0.0,0.0,0.0,0.0,0.0,0.0,0.0,0.0,0.0,0.0,0.0,0.0,0.0,0.0,0.0,0.0,0.0,0.0,0.0,0.0,0.0,0.0,0.0,0.0,0.0,0.0,0.0,0.0,0.0,0.0,0.0,0.0,0.0,0.0,0.0,0.0,0.0,0.0,0.0,0.0,0.0,0.0,0.0,0.0,0.0,0.0,0.0,0.0,0.0,0.0,0.0,0.0,0.0,0.0,0.0,0.0,0.0,0.0,0.0,0.0,0.0,0.0,0.0,0.0,0.0,0.0,0.0,0.0,0.0,0.0,0.0,0.0,0.0,0.0,0.0,0.0,0.0,0.0,0.0,0.0,0.0,0.0,0.0,-6.0219,-6.0529,-6.0706,-6.0148,-6.0825,-6.0385,-5.8118,-5.8592,-5.5547,0.0,0.0,0.0,0.0,0.0,0.0,0.0,0.0,0.0,0.0,0.0,0.0,0.0,0.0,0.0,0.0,0.0,0.0,0.0,0.0,0.0,0.0,0.0,0.0,0.0,0.0,0.0,0.0,0.0,0.0,0.0,0.0,0.0,0.0,0.0,0.0,0.0,0.0,0.0,0.0,0.0,0.0,0.0,0.0,0.0,0.0,0.0,0.0,0.0,0.0,0.0,0.0,0.0,0.0,0.0,0.0,0.0,0.0,0.0,0.0,0.0,0.0,0.0,0.0,0.0,0.0,0.0,0.0,0.0,0.0,0.0,0.0,0.0,0.0,0.0,0.0,0.0,0.0,0.0,0.0,0.0,0.0,0.0,0.0,0.0,0.0,0.0,0.0,0.0,0.0,0.0,0.0,0.0,0.0,0.0,0.0,0.0,0.0,0.0,0.0,0.0,0.0,0.0,-5.6947,-5.9693,-6.1656,-6.0994,-6.1603,-6.1603,-6.0385,-5.9505,-5.6427,-5.0304,0.0,0.0,0.0,0.0,0.0,0.0,0.0,0.0,0.0,0.0,0.0,0.0,0.0,0.0,0.0,0.0,0.0,0.0,0.0,0.0,0.0,0.0,0.0,0.0,0.0,0.0,0.0,0.0,0.0,0.0,0.0,0.0,0.0,0.0,0.0,0.0,0.0,0.0,0.0,0.0,0.0,0.0,0.0,0.0,0.0,0.0,0.0,0.0,0.0,0.0,0.0,0.0,0.0,0.0,0.0,0.0,0.0,0.0,0.0,0.0,0.0,0.0,0.0,0.0,0.0,0.0,0.0,0.0,0.0,0.0,0.0,0.0,0.0,0.0,0.0,0.0,0.0,0.0,0.0,0.0,0.0,0.0,0.0,0.0,0.0,0.0,0.0,0.0,0.0,0.0,0.0,0.0,0.0,0.0,0.0,0.0,0.0,0.0,0.0,0.0,0.0,0.0,-5.5701,-5.9579,-6.2266,-6.1772,-6.2144,-6.211,-6.1366,-6.0452,-5.7712,-5.2469,0.0,0.0,0.0,0.0,0.0,0.0,0.0,0.0,0.0,0.0,0.0,0.0,0.0,0.0,0.0,0.0,0.0,0.0,0.0,0.0,0.0,0.0,0.0,0.0,0.0,0.0,0.0,0.0,0.0,0.0,0.0,0.0,0.0,0.0,0.0,0.0,0.0,0.0,0.0,0.0,0.0,0.0,0.0,0.0,0.0,0.0,0.0,0.0,0.0,0.0,0.0,0.0,0.0,0.0,0.0,0.0,0.0,0.0,0.0,0.0,0.0,0.0,0.0,0.0,0.0,0.0,0.0,0.0,0.0,0.0,0.0,0.0,0.0,0.0,0.0,0.0,0.0,0.0,0.0,0.0,0.0,0.0,0.0,0.0,0.0,0.0,0.0,0.0,0.0,0.0,0.0,0.0,0.0,0.0,0.0,0.0,0.0,0.0,0.0,0.0,0.0,0.0,-5.5641,-5.974,-6.2381,-6.2381,-6.2381,-6.211,-6.1467,-6.1332,-5.9167,-5.4126,0.0,0.0,0.0,0.0,0.0,0.0,0.0,0.0,0.0,0.0,0.0,0.0,0.0,0.0,0.0,0.0,0.0,0.0,0.0,0.0,0.0,0.0,0.0,0.0,0.0,0.0,0.0,0.0,0.0,0.0,0.0,0.0,0.0,0.0,0.0,0.0,0.0,0.0,0.0,0.0,0.0,0.0,0.0,0.0,0.0,0.0,0.0,0.0,0.0,0.0,0.0,0.0,0.0,0.0,0.0,0.0,0.0,0.0,0.0,0.0,-5.2165,-4.8806,0.0,0.0,0.0,0.0,0.0,0.0,0.0,0.0,0.0,0.0,0.0,0.0,0.0,0.0,0.0,0.0,0.0,0.0,0.0,0.0,0.0,0.0,0.0,0.0,0.0,0.0,0.0,0.0,0.0,0.0,0.0,0.0,0.0,0.0,0.0,0.0,0.0,0.0,0.0,0.0,-5.3171,-5.853,-6.2381,-6.2381,-6.2381,-6.2347,-6.2178,-6.1637,-5.981,-5.6325,-5.3551,0.0,0.0,0.0,0.0,0.0,0.0,0.0,0.0,0.0,0.0,0.0,0.0,0.0,0.0,0.0,0.0,0.0,0.0,0.0,0.0,0.0,0.0,0.0,0.0,0.0,0.0,0.0,0.0,0.0,0.0,0.0,0.0,0.0,0.0,0.0,0.0,0.0,0.0,0.0,0.0,0.0,0.0,0.0,0.0,0.0,0.0,0.0,0.0,0.0,0.0,0.0,0.0,0.0,0.0,0.0,0.0,0.0,0.0,0.0,-5.4783,-5.2741,0.0,0.0,0.0,0.0,0.0,0.0,0.0,0.0,0.0,0.0,0.0,0.0,0.0,0.0,0.0,0.0,0.0,0.0,0.0,0.0,0.0,0.0,0.0,0.0,0.0,0.0,0.0,0.0,0.0,0.0,0.0,0.0,0.0,0.0,0.0,0.0,0.0,0.0,0.0,0.0,-5.2974,-5.8457,-6.2381,-6.2381,-6.2381,-6.2381,-6.2381,-6.2042,-6.0994,-5.9099,-5.619,0.0,0.0,0.0,0.0,0.0,0.0,0.0,0.0,0.0,0.0,0.0,0.0,0.0,0.0,0.0,0.0,0.0,0.0,0.0,0.0,0.0,0.0,0.0,0.0,0.0,0.0,0.0,0.0,0.0,0.0,0.0,0.0,0.0,0.0,0.0,0.0,0.0,0.0,0.0,0.0,0.0,0.0,0.0,0.0,0.0,0.0,0.0,0.0,0.0,0.0,0.0,0.0,0.0,-5.6503,-5.6748,-5.69,-5.7002,-5.8084,-5.9641,-5.7227,-5.698,-5.7805,-5.3322,0.0,0.0,0.0,0.0,0.0,0.0,0.0,0.0,0.0,0.0,0.0,0.0,0.0,0.0,0.0,0.0,0.0,0.0,0.0,0.0,0.0,0.0,-6.2431,-6.2405,-6.2366,-5.9693,-4.9859,0.0,0.0,0.0,0.0,0.0,0.0,0.0,0.0,0.0,0.0,0.0,-5.4195,-5.9032,-6.2381,-6.2381,-6.2381,-6.2381,-6.2381,-6.2381,-6.2144,-6.1535,-5.8592,-5.575,0.0,0.0,0.0,0.0,0.0,0.0,0.0,0.0,0.0,0.0,0.0,0.0,0.0,0.0,0.0,0.0,0.0,0.0,0.0,0.0,0.0,0.0,0.0,0.0,0.0,0.0,0.0,0.0,0.0,0.0,0.0,0.0,-5.5508,-5.4811,0.0,0.0,0.0,0.0,0.0,0.0,0.0,0.0,0.0,0.0,0.0,0.0,0.0,-5.4703,-5.5655,-5.7593,-5.8506,-5.8569,-6.0536,-6.1477,-6.1535,-6.2178,-6.2651,-6.2922,-6.3137,0.0,-5.8812,-5.805,0.0,0.0,0.0,0.0,0.0,0.0,0.0,0.0,0.0,0.0,0.0,0.0,0.0,0.0,0.0,0.0,0.0,0.0,0.0,0.0,0.0,0.0,-6.2377,-6.2353,-6.2377,-6.1995,-6.0367,-5.9735,-5.8555,-5.5591,-4.6596,-3.9412,0.0,0.0,0.0,0.0,0.0,0.0,-5.7247,-6.0283,-6.2381,-6.2381,-6.2381,-6.2381,-6.2381,-6.2381,-6.2347,-6.2245,-6.1772,-5.9911,-5.6359,-5.4093,0.0,0.0,0.0,0.0,0.0,0.0,0.0,0.0,0.0,0.0,0.0,0.0,0.0,0.0,0.0,0.0,0.0,0.0,0.0,0.0,0.0,0.0,0.0,0.0,0.0,0.0,0.0,0.0,0.0,-5.4589,-5.5319,-5.5084,-5.4079,-5.2995,0.0,0.0,0.0,0.0,0.0,0.0,0.0,0.0,0.0,-5.736,-5.7179,-5.8051,-6.008,-6.1061,-6.1738,-6.2178,-6.3159,-6.3632,-6.3632,-6.3971,-6.414,-6.414,-6.4478,-6.3666,-6.2009,-6.0319,-5.7729,-5.4872,0.0,0.0,0.0,0.0,-5.3123,-5.3098,-5.5241,-5.5485,-5.4769,-5.4127,0.0,0.0,0.0,0.0,0.0,0.0,0.0,-5.243,-5.1328,-5.4245,-5.8227,-6.1604,-6.2403,-6.2381,-6.2381,-6.2377,-6.1975,-6.0704,-5.6228,-5.2609,-5.2647,-5.3731,0.0,0.0,0.0,-6.0079,-5.8739,-6.1501,-6.3632,-6.3632,-6.3632,-6.3463,-6.3057,-6.3024,-6.2854,-6.2415,-6.2381,-6.1467,-5.9404,-5.6765,-5.3078,0.0,0.0,0.0,0.0,0.0,0.0,0.0,0.0,0.0,0.0,0.0,0.0,0.0,0.0,0.0,0.0,0.0,0.0,0.0,0.0,0.0,0.0,0.0,0.0,0.0,0.0,0.0,0.0,-5.5786,-5.6034,-5.5588,-5.5281,-5.4567,0.0,0.0,0.0,0.0,0.0,0.0,-5.7569,-5.7494,-5.8355,-6.0385,-6.0452,-6.1535,-6.3768,-6.3802,-6.4072,-6.4613,-6.4613,-6.4613,-6.4613,-6.4783,-6.4884,-6.4884,-6.5087,-6.5053,-6.4681,-6.2245,-6.0385,-5.8903,-5.7499,-5.6436,-5.5647,-5.6436,-5.6333,-5.6267,-5.9112,-5.981,-5.9268,-5.893,-5.8423,-5.7442,-5.4634,0.0,0.0,0.0,0.0,-5.818,-5.9203,-5.785,-5.722,-6.1425,-6.2403,-6.2381,-6.2381,-6.2437,-6.2212,-6.1388,-6.1869,-6.244,-6.2372,-6.1119,0.0,-5.6564,-5.9875,-6.2096,-6.0596,-6.2888,-6.4613,-6.4613,-6.4613,-6.4377,-6.3835,-6.3632,-6.3294,-6.2719,-6.2482,-6.2144,-6.1603,-5.9235,-5.6583,-5.3703,0.0,0.0,0.0,0.0,0.0,0.0,0.0,0.0,0.0,0.0,0.0,0.0,0.0,0.0,0.0,0.0,0.0,0.0,0.0,0.0,0.0,0.0,0.0,0.0,0.0,0.0,0.0,0.0,0.0,-5.8001,-5.8896,0.0,0.0,0.0,0.0,-5.5721,-5.7006,-5.8462,-5.9851,-6.1264,-6.2753,-6.4275,-6.4309,-6.4377,-6.4546,-6.4546,-6.4546,-6.4613,-6.4613,-6.4613,-6.4613,-6.5324,-6.5628,-6.5662,-6.6406,-6.6305,-6.5561,-6.4715,-6.3497,-6.2076,-6.1341,-6.0122,-5.8903,-5.9614,-5.9851,-6.019,-6.2482,-6.326,-6.3328,-6.4005,-6.2787,-6.1028,-6.0858,-5.937,0.0,0.0,-6.0994,-6.1467,-6.3204,-6.3463,-6.3193,-6.255,-6.2381,-6.2381,-6.2381,-6.2381,-6.1571,-5.8648,-6.0424,-6.2391,-6.2404,0.0,-5.6063,-6.2415,-6.0978,-6.0495,-6.3869,-6.4478,-6.4613,-6.4613,-6.4613,-6.458,-6.4546,-6.3903,-6.3497,-6.3463,-6.2787,-6.2381,-6.2347,-6.1535,-5.9674,-5.6626,-5.5038,0.0,0.0,0.0,0.0,0.0,0.0,0.0,0.0,0.0,0.0,0.0,0.0,0.0,0.0,0.0,0.0,0.0,0.0,0.0,0.0,0.0,0.0,0.0,0.0,0.0,0.0,0.0,0.0,-5.8944,-5.9979,0.0,-5.707,-5.8321,-5.9302,-5.9302,-6.1095,-6.2448,-6.2956,-6.3531,-6.4072,-6.458,-6.4613,-6.4816,-6.529,-6.529,-6.5561,-6.6034,-6.6034,-6.6034,-6.6034,-6.6305,-6.6406,-6.644,-6.6711,-6.6991,-6.7295,-6.702,-6.5699,-6.3802,-6.3531,-6.3091,-6.2651,-6.2888,-6.299,-6.3125,-6.3937,-6.4208,-6.4174,-6.3971,-6.3362,-6.2719,-6.2719,-6.2482,-6.2584,-6.4343,-6.5189,-6.5696,-6.6271,-6.5647,-6.4653,-6.4005,-6.3113,-6.2392,-6.2415,-6.2425,-6.3269,-6.6024,-6.4335,-6.2402,-6.2444,-6.0612,-6.0114,-6.2552,-6.2711,-6.3091,-6.4444,-6.5425,-6.6034,-6.6034,-6.6034,-6.5831,-6.5358,-6.4647,-6.4005,-6.3531,-6.2821,-6.2381,-6.2381,-6.2144,-6.1738,-6.1129,-6.0622,-5.6833,0.0,0.0,0.0,0.0,0.0,0.0,0.0,0.0,0.0,0.0,0.0,0.0,0.0,0.0,0.0,0.0,0.0,0.0,0.0,0.0,0.0,0.0,0.0,0.0,0.0,-5.98,-6.0806,-5.9596,-6.1204,-6.1332,-5.8592,-6.0791,-6.2415,-6.2415,-6.4005,-6.4952,-6.4952,-6.5222,-6.5358,-6.5358,-6.5358,-6.5595,-6.6068,-6.6068,-6.644,-6.7184,-6.7184,-6.732,-6.759,-6.759,-6.759,-6.759,-6.759,-6.8159,-6.8951,-6.8457,-6.7566,-6.6505,-6.6135,-6.5963,-6.5929,-6.5654,-6.5353,-6.5028,-6.5013,-6.4952,-6.4884,-6.441,-6.4241,-6.4241,-6.4241,-6.4749,-6.5561,-6.6542,-6.7151,-6.7489,-6.7218,-6.6323,-6.5244,-6.4701,-6.3505,-6.2434,-6.238,-6.3991,-6.6282,-6.9193,-6.6609,-6.3872,-6.3854,-6.3621,-6.326,-6.2871,-6.4019,-6.4952,-6.4952,-6.6271,-6.7184,-6.7184,-6.7184,-6.688,-6.6136,-6.4952,-6.414,-6.3903,-6.2956,-6.2381,-6.2381,-6.1907,-6.1738,-6.2009,-6.2009,-5.8829,-5.2334,0.0,0.0,0.0,0.0,0.0,0.0,0.0,0.0,0.0,0.0,0.0,0.0,0.0,0.0,0.0,0.0,0.0,0.0,0.0,0.0,0.0,0.0,0.0,-6.0151,-6.0771,-6.1036,-6.0258,-6.2821,-6.3768,-6.1603,-6.3362,-6.4647,-6.4647,-6.5324,-6.573,-6.573,-6.644,-6.6846,-6.6846,-6.688,-6.688,-6.688,-6.688,-6.7252,-6.7929,-6.7929,-6.8335,-6.9113,-6.9166,-6.9166,-6.9113,-6.9079,-6.9662,-7.0486,-6.8991,-6.9157,-7.0307,-6.9141,-6.868,-6.8573,-6.7758,-6.6883,-6.6035,-6.5834,-6.5812,-6.573,-6.573,-6.5696,-6.5696,-6.5696,-6.6203,-6.6812,-6.688,-6.6914,-6.6745,-6.6034,-6.5797,-6.5595,-6.485,-6.3593,-6.2494,-6.2494,-6.7078,-7.029,-6.7394,-6.6855,-6.6826,-6.6745,-6.5914,-6.4911,-6.37,-6.4783,0.0,-6.5696,-6.6981,-6.7895,-6.7827,-6.7861,-6.7557,-6.6846,-6.4783,-6.3869,-6.458,-6.326,-6.2448,-6.2448,-6.1028,-5.9911,-5.9201,-5.9066,-5.8254,-5.6799,0.0,0.0,0.0,0.0,0.0,0.0,0.0,0.0,0.0,0.0,0.0,0.0,0.0,0.0,0.0,0.0,0.0,0.0,0.0,0.0,0.0,-6.0753,-6.1466,-5.9541,-6.1333,-6.2785,-6.2584,-6.3768,-6.4377,-6.3768,-6.4715,-6.5392,-6.5392,-6.6068,-6.6508,-6.6508,-6.7218,-6.759,-6.759,-6.8166,-6.847,-6.847,-6.847,-6.8571,-6.8774,-6.9487,-6.9624,-6.9166,-7.0625,-7.0499,-6.9166,-6.9913,-7.0209,-7.0248,-6.9823,-7.1232,-7.3434,-7.1834,-7.0735,-6.9955,-6.9283,-6.8112,-6.69,-6.8049,-6.7544,-6.6508,-6.6508,-6.6136,-6.5696,-6.5696,-6.6203,-6.7049,-6.8166,-6.8842,-6.9214,-6.9011,-6.8571,-6.7827,-6.6508,-6.5865,-6.5575,-6.5603,-6.6923,-6.8095,-6.8368,-6.7539,-6.6558,-6.5812,-6.5203,-6.4647,-6.4343,-6.5087,-6.5696,-6.5696,-6.6981,-6.7489,-6.6406,-6.6779,-6.6812,-6.6068,-6.4952,-6.4613,-6.5358,-6.4512,-6.4005,-6.4005,-6.3599,-6.326,-6.3057,-5.9844,-5.7746,0.0,0.0,0.0,0.0,0.0,0.0,0.0,0.0,0.0,0.0,0.0,0.0,0.0,0.0,0.0,0.0,0.0,0.0,0.0,0.0,0.0,0.0,-6.2743,-6.3199,-6.1147,-6.2415,-6.3632,-6.3937,-6.4613,-6.5053,-6.5053,-6.573,-6.6271,-6.6576,-6.7015,-6.7421,-6.776,-6.8166,-6.8402,-6.8402,-6.9288,-6.9527,-6.9113,-6.9527,-6.9697,-6.9553,-7.0574,-7.0912,-7.067,-7.2318,-7.2395,-7.127,-7.1882,-7.2202,-7.2264,-7.2051,-7.3519,-7.5751,0.0,0.0,0.0,0.0,-6.9032,-6.8124,-6.8245,-6.7414,-6.6339,-6.6339,-6.6034,-6.5696,-6.5696,-6.6203,-6.7015,-6.7895,-6.8436,-6.8774,-6.8774,-6.847,-6.7929,-6.7015,-6.6795,-6.6777,-6.6758,-6.6777,-6.7066,-6.7946,-6.7692,0.0,-6.6083,-6.5662,-6.5324,-6.4681,-6.5493,-6.6034,-6.573,-6.7286,-6.8064,-6.7218,-6.7793,-6.7929,-6.7184,-6.6136,0.0,0.0,0.0,-6.4647,-6.37,-6.3396,0.0,0.0,0.0,-5.9404,-5.9607,-5.7442,0.0,0.0,-5.3315,-5.2334,0.0,0.0,0.0,0.0,0.0,0.0,0.0,0.0,0.0,0.0,0.0,0.0,0.0,0.0,0.0,0.0,-6.4902,-6.5758,-6.3995,-6.378,-6.4005,-6.4647,-6.529,-6.5764,-6.5933,-6.6542,-6.7252,-6.7996,-6.803,-6.8335,-6.9079,-6.918,0.0,0.0,0.0,-7.045,-6.949,-7.0498,-7.0925,-7.0701,-7.1663,-7.2464,-7.3044,-7.4158,-7.4535,-7.431,-7.4385,-7.4725,-7.5177,-7.4536,-7.5502,-7.7194,-7.608,-7.4978,-7.3772,-7.1063,-6.9989,-6.9637,-6.7948,0.0,0.0,-6.6117,-6.5967,-6.5831,-6.5899,-6.6474,-6.7083,-6.7184,-6.7252,-6.732,-6.732,-6.7252,-6.7184,-6.7184,-6.6931,-6.6829,-6.7049,-6.7015,-6.7116,-6.7151,-6.7624,-6.7827,-6.7184,-6.6948,-6.6373,-6.5053,-6.5967,-6.6576,-6.5899,-6.7726,-6.9045,-6.8876,-6.9586,0.0,-6.9045,-6.7726,-6.6981,-6.7049,-6.6373,-6.5053,-6.3091,-6.2212,-6.1806,-6.1806,-6.1704,-6.2313,-6.3632,-6.3632,-6.3632,-6.3497,-5.7442,-5.6021,0.0,0.0,0.0,0.0,0.0,0.0,0.0,0.0,0.0,0.0,0.0,0.0,0.0,0.0,0.0,-6.5499,-6.6811,-6.7342,-6.5786,-6.538,-6.5324,-6.5459,-6.5595,-6.617,-6.7354,-6.759,-6.803,-6.8808,-6.8876,-6.8944,-6.9079,-6.9654,-6.9992,-6.9992,-7.1523,-7.2299,-7.2084,-7.3037,-7.3575,-7.3483,-7.4543,0.0,-7.4082,-7.5891,-7.5823,-7.431,-7.512,-7.5079,-7.4464,-7.4356,-7.5502,-7.7157,-7.5652,-7.4647,-7.3934,-7.2496,-7.1448,-7.0847,-7.0905,-6.9966,-6.8728,-6.854,-6.759,-6.6711,-6.7286,-6.803,0.0,-6.9383,-6.9992,-7.0432,-7.0432,-6.9992,-6.9485,-6.9228,-6.8008,-6.7093,-6.8384,-6.8673,-6.8774,-6.9132,-6.9064,-6.8808,-6.8673,-6.7624,-6.6711,-6.644,-6.6643,-6.6779,-6.6609,-6.8064,-6.8639,-6.7387,-6.8504,-6.8977,-6.8199,-6.7861,-6.7963,-6.8605,-6.7895,-6.7286,-6.6846,-6.5561,-6.485,-6.485,-6.4275,-6.4106,-6.4377,-6.4377,-6.4377,-6.4343,-6.2448,-6.1873,0.0,0.0,0.0,0.0,0.0,0.0,0.0,0.0,0.0,0.0,0.0,-6.1348,-6.3453,0.0,-6.7472,-6.7975,-6.8991,-6.8963,-6.6815,-6.6755,-6.6655,-6.5812,-6.6339,-6.7083,-6.7827,-6.8267,-6.8808,-6.9586,-6.9654,-6.9823,-7.0195,-7.0567,-7.0737,-7.0737,-7.2541,-7.3332,-7.2797,-7.431,-7.4757,-7.431,-7.5299,-7.551,-7.512,-7.6628,-7.6728,-7.5823,-7.633,-7.6243,-7.5778,-7.5778,-7.6391,-7.7231,-7.6423,-7.5285,-7.3964,-7.2911,-7.1936,-7.111,-7.1304,-7.0248,-6.8986,-7.0243,-6.909,-6.754,-6.8739,-6.8931,-6.8857,-6.9775,-7.0284,-7.0521,-7.0263,-6.9925,-6.9572,-6.9509,-6.8641,-6.8334,-6.983,-7.0187,-7.002,-6.9524,-6.9214,-6.9113,-6.9113,-6.847,-6.7963,-6.7963,-6.7963,-6.7963,-6.7963,-6.8639,-6.8944,-6.8538,-6.918,-6.962,-6.962,-6.9248,-6.9214,-6.962,-6.8944,-6.8504,-6.8504,-6.7421,-6.6779,-6.6779,-6.6068,-6.5527,-6.5155,-6.5155,-6.5155,-6.5121,-6.4783,-6.4208,0.0,0.0,0.0,0.0,0.0,0.0,0.0,-5.9266,-5.9976,-6.0113,-6.122,-6.3058,-6.6144,-6.7477,-6.8631,-7.0202,-7.0979,-7.053,-6.8179,-6.8037,-6.7738,-6.6548,-6.7319,-6.7963,-6.8132,-6.8842,-6.962,-7.0364,-7.0398,-7.0669,-7.1278,-7.1312,-7.1401,-7.1634,-7.3332,-7.4075,-7.3622,-7.5442,-7.6043,-7.5367,-7.6187,-7.6492,-7.6348,-7.7176,-7.7561,-7.7561,-7.7635,-7.7499,-7.7316,-7.7316,-7.7316,-7.7353,-7.8027,-7.7182,-7.5409,-7.3541,-7.2572,-7.2235,-7.194,-7.1049,-7.0208,-7.1709,-7.0758,-6.9096,-6.9921,-6.9609,-6.9117,-6.9897,-7.0134,-6.9979,-6.962,-6.9519,-6.9542,-6.9542,-6.9578,-6.9969,-7.1708,-7.1961,-7.1503,-7.0089,-6.9832,-6.9746,-6.9519,-6.9519,-6.9451,-6.9147,-6.9113,-6.9113,-6.9113,-6.9214,-6.9586,-7.0331,-7.0398,-7.0635,-7.1278,-7.077,-7.0398,-7.0398,-6.9722,-6.9316,-6.9316,-6.8538,-6.8132,-6.8132,-6.7557,-6.6948,-6.6339,-6.6339,-6.6339,-6.6339,-6.6339,-6.5493,-6.3282,-6.2,-6.1676,-6.2089,-6.1652,-6.1813,0.0,-6.4006,-6.3236,-6.4031,-6.4727,-6.5778,-6.7711,-6.9414,-7.0841,-7.1867,-7.2106,-7.1788,-7.0764,-6.9243,-6.8353,-6.8932,-6.8315,-6.8166,-6.891,-6.962,-7.0364,-7.1142,-7.1176,-7.121,-7.1312,-7.1312,-7.1688,-7.2582,-7.3729,-7.5004,-7.6517,-7.7721,-7.8583,-7.9214,-7.9279,-7.8976,-7.8317,-7.838,-7.8442,-7.8479,-7.871,-7.8244,-7.7312,-7.7312,-7.7312,-7.7594,-8.0518,-8.1551,-8.0653,-7.5751,-7.508,-7.6507,-7.5593,-7.5649,-7.5764,-7.3545,-7.2766,-7.2331,-7.0464,-7.0567,-7.1346,-7.1138,-7.1109,-7.1109,-7.1075,-7.1075,-7.1104,-7.1007,-7.105,-7.177,-7.4329,-7.4376,-7.3674,-7.2555,-7.2389,-7.2088,-7.1219,-7.1075,-7.0635,-6.9316,-6.9113,-6.9113,-6.9113,-6.9654,-7.0364,-7.1109,-7.1176,-7.121,-7.1312,-7.1244,-7.1176,-7.1176,-7.0466,-7.006,-7.006,-6.935,-6.8977,-6.8977,-6.8876,-6.8808,-6.8707,-6.8707,-6.8707,-6.8707,-6.8707,-6.7557,-6.8568,-6.7506,-6.6425,-6.6316,-6.6286,-6.6332,-6.6299,-6.6096,-6.6128,-6.6884,-6.7574,-6.8803,-7.0913,-7.194,-7.2736,-7.3687,-7.3446,-7.2787,-7.1882,-7.1112,-7.07,-7.0925,-7.0958,-7.0695,-6.9863,-7.0398,-7.0973,-7.1312,-7.1312,-7.1515,-7.1921,-7.2566,-7.3275,-7.4114,-7.5732,-7.6949,-7.7663,-7.8792,-7.947,-7.98,-7.98,-7.9617,-7.9286,-7.9286,-7.9286,-7.9286,-7.9433,-7.9187,-7.872,-7.872,-7.9333,-8.0314,-8.1644,-8.1056,-7.9103,-7.6814,-7.652,-7.7231,-7.6856,-7.6548,-7.6397,-7.6264,-7.494,-7.3416,-7.4027,-7.2939,-7.1449,-7.1308,-7.1312,-7.1312,-7.1312,-7.1312,-7.1342,-7.1282,-7.2174,-7.3273,-7.3981,-7.4506,-7.4506,-7.3055,-7.2797,-7.2498,-7.1457,-7.1312,-7.1109,-7.0466,-7.0398,-7.0398,-7.0398,-7.0263,-7.0466,-7.1244,-7.209,-7.2225,-7.1379,-7.1312,-7.1342,-7.1525,-7.1266,-7.1301,-7.1713,-7.1026,-7.0345,-6.9722,-6.9316,-6.9113,-6.9113,-6.9113,-6.9113,-6.9113,-6.9113,-6.8605,-7.0991,-7.0454,-6.9551,-6.8966,-6.9413,-6.9443,-6.7482,-6.7644,-6.8242,-6.8534,-6.9247,-7.0521,-7.3019,-7.3327,-7.3696,-7.5312,-7.4698,-7.3896,-7.3389,-7.2951,-7.2665,-7.2763,-7.3044,-7.2718,-7.1454,-7.1575,-7.1702,-7.1582,-7.1616,-7.1921,-7.2665,-7.3688,-7.4629,-7.5519,-7.7223,-7.8418,-7.8985,-7.9698,-8.0241,-8.0461,-8.0461,-8.0351,-8.0131,-8.0131,-8.0131,-8.0131,-8.0351,-8.0461,-8.0461,-8.0461,-8.1149,-8.2242,-8.2206,-8.0727,-7.8629,-7.8639,-7.8296,-7.7781,-7.8112,-7.7952,-7.7777,-7.8362,-7.7036,-7.519,-7.5534,-7.4343,-7.2719,-7.1609,-7.1287,-7.1312,-7.1312,-7.1312,-7.1464,-7.1987,-7.3194,-7.4279,-7.4404,-7.5148,-7.5328,-7.358,-7.3171,-7.2797,-7.1546,-7.1312,-7.1312,-7.1312,-7.1312,-7.1312,-7.1312,-7.1176,-7.1244,-7.1582,-7.2935,-7.3206,-7.1751,-7.1851,-7.2056,-7.1953,-7.229,-7.2694,-7.3171,-7.2729,-7.2082,-7.1319,-7.0499,-7.0226,-7.053,-7.0002,-6.9863,-7.014,-6.9863,-6.9722,-6.8238,-6.8262,-6.8749,-6.8713,-6.9185,-6.9495,-6.8749,-6.9105,-6.9459,-6.8751,-6.9211,-7.0451,-7.3019,-7.2828,-7.3442,-7.6704,-7.5909,-7.5139,-7.5849,-7.4533,-7.3694,-7.442,-7.3726,-7.346,-7.4128,-7.3332,-7.2639,-7.2384,-7.236,-7.2699,-7.3409,-7.4478,-7.5484,-7.6498,-7.7593,-7.909,-8.0874,-8.0975,-8.1379,-8.2113,-8.2113,-8.1709,-8.0975,-8.0975,-8.0975,-8.1012,-8.1782,-8.2113,-8.2113,-8.2113,-8.215,-8.2186,-8.2242,-8.2132,-8.2059,-8.2076,-8.0708,-7.9132,-8.0177,-8.113,-8.1652,-7.9311,-7.9038,-7.861,-7.315,-7.4128,-7.6341,-7.2359,-7.1302,-7.1312,-7.1312,-7.1312,-7.1742,-7.3772,-7.4234,-7.483,-7.6756,-7.7243,-7.6628,-7.461,-7.4234,-7.365,-7.16,-7.1312,-7.1312,-7.1312,-7.1312,-7.1312,-7.1312,-7.2529,-7.3105,-7.2428,-7.368,-7.3984,-7.2496,-7.3292,-7.3476,-7.2797,-7.3694,-7.4234,-7.4234,-7.4234,-7.4199,-7.4199,-7.3217,-7.3182,-7.4087,-7.2159,-7.1761,-7.2645,-7.1708,-7.1244,-7.0734,-7.0674,-7.0551,-7.1099,-7.1393,-7.15,-7.1246,-7.1391,-7.15,-7.1246,-7.1827,-7.2761,-7.4201,-7.4201,-7.4763,-7.6949,-7.5983,-7.5395,-7.6717,-7.5342,-7.4524,-7.5318,-7.5114,-7.4472,-7.3377,-7.365,-7.3966,-7.4415,-7.3772,-7.3928,-7.5254,-7.6287,-7.7319,-7.8169,-7.9936,-8.119,-8.1782,-8.1782,-8.1929,-8.2186,-8.2186,-8.2039,-8.1782,-8.1782,-8.1782,-8.1819,-8.2076,-8.2186,-8.2186,-8.2186,-8.2186,-8.2186,-8.2215,-8.2215,-8.2215,-8.2178,-8.1709,-8.102,-8.0296,-8.0984,-8.2076,-8.1227,-8.1167,-8.0617,-7.6515,-7.6231,-7.6481,-7.2415,-7.1284,-7.1339,-7.1319,-7.4906,-7.8084,-7.6269,-7.724,-7.8386,-7.7973,-7.8464,-7.8333,-7.6214,-7.5832,-7.5123,-7.3152,-7.2766,-7.2766,-7.2766,-7.1921,-7.1312,-7.1312,-7.2597,-7.3206,-7.2462,-7.4153,-7.4568,-7.2777,-7.3411,-7.4216,-7.4793,-7.5192,-7.5585,-7.6087,-7.6123,-7.5512,-7.431,-7.3928,-7.3928,-7.431,-7.365,-7.3492,-7.3772,-7.3412,-7.2962,-7.2055,-7.1908,-7.1578,-7.2679,-7.2716,-7.2496,-7.2496,-7.2496,-7.2496,-7.2496,-7.2899,-7.3413,-7.3964,-7.4515,-7.5432,-7.7047,-7.6717,-7.668,-7.8002,-7.6578,-7.5534,-7.5787,-7.551,-7.4864,-7.3877,-7.435,-7.4745,-7.4799,-7.4187,-7.4444,-7.5956,-7.7054,-7.8013,-7.8983,-8.0659,-8.1782,-8.2186,-8.2186,-8.2186,-8.2186,-8.2186,-8.2186,-8.2186,-8.2186,-8.2186,-8.2186,-8.2186,-8.2186,-8.2186,-8.2186,-8.2186,-8.2186,-8.2186,-8.2186,-8.2186,-8.2186,-8.2186,-8.2039,-8.102,-8.1314,-8.2186,-8.2242,-8.2169,-8.159,-7.8286,-7.8122,-7.8493,-7.59,-7.52,-7.5168,-7.5207,-7.8125,-8.0584,-7.8567,-7.8953,-7.9535,-7.8908,-7.9304,-7.9304,-7.752,-7.7148,-7.6533,-7.4425,-7.3956,-7.3883,-7.3883,-7.3308,-7.2699,-7.2157,-7.2902,-7.3308,-7.2834,-7.4052,-7.4412,-7.3303,-7.4204,-7.5282,-7.6256,-7.6953,-7.7523,-7.7995,-7.7741,-7.7004,-7.5836,-7.5155,-7.4976,-7.5369,-7.461,-7.446,-7.483,-7.446,-7.3772,-7.2202,-7.2055,-7.1798,-7.3303,-7.3083,-7.2496,-7.2496,-7.2496,-7.2496,-7.2496,-7.2496,-7.2496,-7.2496,-7.3817,-7.5432,-7.7011,-7.7965,-7.8809,-7.9617,-7.8135,-7.6617,-7.5826,-7.4939,-7.4588,-7.514,-7.5324,-7.4916,-7.3661,-7.3637,-7.4246,-7.5798,-7.6747,-7.7822,-7.9063,-8.0032,-8.1089,-8.2186,-8.2186,-8.2186,-8.2186,-8.2186,-8.2186,-8.2186,-8.2186,-8.2186,-8.2186,-8.2186,-8.2186,-8.2186,-8.2186,-8.2186,-8.2186,-8.2186,-8.2186,-8.2186,-8.2296,-8.2296,-8.2296,-8.2296,-8.2296,-8.2296,-8.2353,-8.2325,-8.1746,-7.862,-7.9828,-8.2176,-8.2209,-8.2214,-8.2189,-8.2224,-8.0703,-7.9415,-8.0406,-7.9501,-7.8698,-7.9746,-7.991,-7.958,-7.8524,-7.8277,-7.7589,-7.5694,-7.5035,-7.4822,-7.4856,-7.5371,-7.527,-7.3747,-7.3578,-7.3544,-7.3443,-7.351,-7.3685,-7.3941,-7.56,-7.6752,-7.7156,-7.8836,-7.9837,-7.9837,-7.914,-7.8699,-7.8662,-7.6905,-7.6403,-7.7378,-7.5405,-7.4903,-7.5855,-7.4939,-7.3998,-7.3854,-7.3707,-7.3193,-7.3597,-7.3083,-7.2496,-7.2496,-7.2496,-7.2496,-7.2496,-7.2496,-7.2496,-7.2496,-7.3817,-7.5249,-7.624,-7.7121,-7.7928,-7.8772,-7.7298,-7.5726,-7.4793,-7.4957,-7.4642,-7.3292,-7.4375,-7.4861,-7.4348,-7.5014,-7.6244,-7.8042,-7.7563,-7.8245,-8.0107,-8.044,-8.1089,-8.2186,-8.2186,-8.2186,-8.2186,-8.2186,-8.2186,-8.2186,-8.2186,-8.2186,-8.2186,-8.2186,-8.2186,-8.2186,-8.2186,-8.2186,-8.2186,-8.2186,-8.2186,-8.2333,-8.3537,-8.3978,-8.3978,-8.3985,-8.4015,-8.3978,-8.4015,-8.3978,-8.3794,-8.3023,-8.2524,-8.2208,-8.2208,-8.2184,-8.2202,-8.2215,-8.1779,-8.1441,-8.1743,-8.1514,-8.1263,-8.1497,-8.1599,-8.1263,-8.0224,-7.9347,-7.8796,-7.8917,-7.8137,-7.7719,-7.827,-7.7869,-7.6657,-7.4593,-7.4796,-7.4492,-7.2868,-7.3646,-7.4295,-7.4229,-7.5677,-7.7301,-7.9011,-8.0076,-8.0681,-8.0681,-8.0498,-8.0094,-7.9507,-7.8437,-7.8034,-7.8259,-7.7085,-7.6664,-7.6956,-7.7283,-7.6931,-7.4808,-7.4331,-7.334,-7.4037,-7.3377,-7.2422,-7.2055,-7.1982,-7.1872,-7.1505,-7.1174,-7.0807,-7.044,-7.2275,-7.4001,-7.4441,-7.6423,-7.8038,-7.8516,-7.7298,-7.5976,-7.512,-7.4829,-7.4426,-7.3631,-7.435,-7.4923,-7.5033,-7.5729,-7.6764,-7.821,-7.8161,-7.8822,-8.0514,-8.0623,-8.1089,-8.2186,-8.2186,-8.237,-8.2737,-8.237,-8.237,-8.27,-8.237,-8.2186,-8.2186,-8.2186,-8.2406,-8.2737,-8.2847,-8.303,-8.3251,-8.3251,-8.3251,-8.3361,-8.4272,-8.4602,-8.4639,-8.4976,-8.5086,-8.5153,-8.5551,-8.5662,-8.5514,-8.4816,-8.3471,-8.2165,-8.2223,-8.2186,-8.2231,-8.2199,-8.2184,-8.2165,-8.2199,-8.2184,-8.2186,-8.2186,-8.2186,-8.2018,-8.1405,-8.044,-7.987,-8.0298,-8.0058,-7.9723,-7.9678,-7.9727,-7.8825,-7.6414,-7.5845,-7.4965,-7.3071,-7.3341,-7.3768,-7.4223,-7.5726,-7.7556,-7.97,-8.0901,-8.1525,-8.1525,-8.1195,-8.0791,-8.0351,-7.9543,-7.914,-7.914,-7.8626,-7.8405,-7.8405,-7.8883,-7.8544,-7.5175,-7.4404,-7.312,-7.4441,-7.3634,-7.2312,-7.1651,-7.1394,-7.1064,-7.0257,-6.9449,-6.8641,-6.7834,-7.0146,-7.2239,-7.2459,-7.5652,-7.8185,-7.8405,-7.7619,-7.6755,-7.6039,-7.5048,-7.4691,-7.5288,-7.5104,-7.5247,-7.6046,-7.6395,-7.6868,-7.7442,-7.8494,-7.9458,-8.0587,-8.0768,-8.123,-8.2186,-8.2186,-8.2553,-8.3251,-8.2517,-8.2553,-8.3214,-8.2517,-8.2186,-8.2186,-8.2296,-8.27,-8.3287,-8.3691,-8.4095,-8.4462,-8.4572,-8.4609,-8.4609,-8.4719,-8.4756,-8.4866,-8.5673,-8.5967,-8.604,-8.6795,-8.6943,-8.6581,-8.5073,-8.3551,-8.2391,-8.2231,-8.2186,-8.2186,-8.2186,-8.2186,-8.2186,-8.2186,-8.2186,-8.2186,-8.2186,-8.2186,-8.2186,-8.2186,-8.1474,-8.0912,-8.1129,-8.1311,-8.1272,-8.0491,-8.1304,-8.1066,-7.8599,-7.6922,-7.5405,-7.3815,-7.3152,-7.3241,-7.437,-7.5844,-7.7595,-7.97,-8.1195,-8.2076,-8.2186,-8.1525,-8.1158,-8.1158,-8.0351,-7.9947,-7.9947,-7.9837,-7.98,-7.98,-7.991,-7.945,-7.4955,-7.4808,-7.4404,-7.4001,-7.3193,-7.2459,-7.2312,-7.1798,-7.1064,-7.0257,-6.9449,-6.8641,-6.7834,-6.9229,-7.0954,-7.2275,-7.4221,-7.6019,-7.7341,-7.7401,-7.7093,-7.6863,-7.72,-7.7401,-7.7338,-7.6988,-7.7285,-7.8328,-7.8436,-7.8599,-7.874,-7.8903,-7.9458,-8.0587,-8.1474,-8.2018,-8.2186,-8.2186,-8.226,-8.2406,-8.226,-8.226,-8.2406,-8.226,-8.2186,-8.2223,-8.292,-8.2884,-8.2517,-8.3875,-8.4132,-8.3691,-8.4352,-8.4609,-8.4682,-8.5343,-8.56,-8.571,-8.6518,-8.6811,-8.6811,-8.6921,-8.6586,-8.5783,-8.4866,-8.4095,-8.3361,-8.2443,-8.2186,-8.2186,-8.2186,-8.2186,-8.2186,-8.2186,-8.2186,-8.2186,-8.2186,-8.2186,-8.2186,-8.2186,-8.2055,-8.2355,-8.371,-8.3157,-8.3025,-8.4163,-8.3212,-8.1629,-7.9705,-7.8347,-7.6758,-7.4661,-7.4432,-7.4698,-7.5183,-7.6264,-7.776,-7.9663,-8.0681,-8.1525,-8.215,-8.2076,-8.2003,-8.2003,-8.1195,-8.0791,-8.0791,-8.0131,-7.98,-7.98,-8.0461,-8.069,-7.4698,-7.4294,-7.367,-7.367,-7.3083,-7.2165,-7.0917,-7.0,-6.8972,-6.732,-6.6329,-6.5632,-6.5228,-6.7173,-6.9229,-7.044,-7.2679,-7.4845,-7.646,-7.668,-7.6935,-7.7721,-7.805,-7.8315,-7.8592,-7.8327,-7.8411,-7.8983,-7.9536,-7.9804,-7.9804,-8.033,-8.0911,-8.1405,-8.1952,-8.2186,-8.2186,-8.2186,-8.2406,-8.281,-8.2406,-8.2406,-8.281,-8.237,-8.2443,-8.2847,-8.3361,-8.3765,-8.4132,-8.4756,-8.5123,-8.5306,-8.571,-8.5857,-8.5894,-8.6297,-8.6407,-8.6481,-8.6885,-8.6995,-8.6995,-8.6995,-8.6444,-8.5637,-8.4829,-8.4132,-8.3398,-8.2443,-8.2186,-8.2186,-8.2186,-8.2186,-8.2186,-8.2186,-8.2186,-8.2186,-8.2186,-8.2186,-8.2186,-8.2186,-8.2186,-8.2443,-8.3214,-8.361,-8.3701,-8.3477,-8.3337,-8.244,-8.0189,-7.8979,-7.7349,-7.489,-7.5249,-7.5715,-7.6038,-7.745,-7.8876,-8.0324,-8.1195,-8.1782,-8.2186,-8.2186,-8.2186,-8.2186,-8.1819,-8.1636,-8.1636,-8.1232,-8.1048,-8.1048,-8.1452,-8.1415,-7.4111,-7.3597,-7.2863,-7.334,-7.2973,-7.1908,-6.9669,-6.8531,-6.721,-6.4604,-6.3576,-6.3025,-6.2842,-6.5191,-6.7614,-6.8935,-7.1578,-7.4074,-7.5836,-7.624,-7.6974,-7.8662,-7.8638,-7.8919,-7.9897,-7.9598,-7.9458,-7.9691,-8.044,-8.0911,-8.0911,-8.1715,-8.2186,-8.2186,-8.2186,-8.2186,-8.2186,-8.2186,-8.2517,-8.3141,-8.2517,-8.2517,-8.3141,-8.248,-8.2663,-8.3508,-8.3801,-8.4535,-8.5527,-8.571,-8.6114,-8.6701,-8.6921,-8.6995,-8.6995,-8.6995,-8.6995,-8.6995,-8.6995,-8.6995,-8.6995,-8.6995,-8.6334,-8.5416,-8.4792,-8.3911,-8.303,-8.237,-8.2186,-8.2186,-8.2186,-8.2186,-8.2186,-8.2186,-8.2186,-8.2186,-8.2186,-8.2186,-8.2186,-8.2186,-8.2186,-8.226,-8.2443,-8.3508,-8.3861,-8.2505,-8.3265,-8.311,-8.0776,-7.9598,-7.805,-7.5789,-7.5893,-7.6307,-7.6851,-7.8311,-7.9711,-8.091,-8.1415,-8.1819,-8.2186,-8.2039,-8.2003,-8.2186,-8.2186,-8.2186,-8.2186,-8.2186,-8.2186,-8.2186,-8.2003,-8.1599,-7.2899,-7.3156,-7.3413,-7.2789,-7.2569,-7.2055,-7.0367,-6.9376,-6.7907,-6.4751,-6.4016,-6.3723,-6.2952,-6.431,-6.6512,-6.9486,-7.1468,-7.3413,-7.5763,-7.6754,-7.7818,-7.947,-7.9663,-8.0223,-8.1762,-8.1053,-8.084,-8.1849,-8.2018,-8.2018,-8.2018,-8.2121,-8.2186,-8.2186,-8.2186,-8.2186,-8.2186,-8.2186,-8.2223,-8.2296,-8.2223,-8.2223,-8.2296,-8.2223,-8.2737,-8.3765,-8.4278,-8.4609,-8.4829,-8.6261,-8.6371,-8.5605,-8.6628,-8.6995,-8.6995,-8.6995,-8.6995,-8.6995,-8.6995,-8.6995,-8.6995,-8.6995,-8.5967,-8.4682,-8.4609,-8.3544,-8.2296,-8.2223,-8.2186,-8.2186,-8.2186,-8.2186,-8.2186,-8.2186,-8.2186,-8.2186,-8.2186,-8.2186,-8.2186,-8.2186,-8.2186,-8.2443,-8.3177,-8.3434,-8.3661,-8.4217,-8.3851,-8.2997,-8.1778,-8.0906,-7.9916,-7.8716,-7.7089,-7.6551,-7.7585,-7.8093,-7.913,-8.0874,-8.0388,-8.0681,-8.215,-8.1489,-8.1452,-8.2186,-8.2186,-8.2186,-8.2186,-8.2186,-8.2186,-8.2186,-8.1452,-8.1085,-7.2459,-7.2716,-7.2899,-7.2569,-7.2165,-7.1248,-6.9119,-6.765,-6.5815,-6.2548,-6.2254,-6.2328,-6.152,-6.3135,-6.5301,-6.7577,-6.8458,-6.9889,-7.2826,-7.3927,-7.5395,-7.8002,-7.9176,-8.0424,-8.2039,-8.1782,-8.1715,-8.2186,-8.2186,-8.2186,-8.2186,-8.2186,-8.2186,-8.2186,-8.2186,-8.2186,-8.2186,-8.2186,-8.2186,-8.2186,-8.2186,-8.2186,-8.2223,-8.2847,-8.3544,-8.4315,-8.5013,-8.56,-8.6114,-8.6738,-8.6775,-8.6444,-8.6848,-8.6995,-8.6995,-8.6995,-8.6995,-8.6995,-8.6995,-8.6995,-8.6995,-8.6995,-8.593,-8.4609,-8.4609,-8.3471,-8.2186,-8.2186,-8.2186,-8.2186,-8.2186,-8.2186,-8.2186,-8.2186,-8.2186,-8.2186,-8.2186,-8.2186,-8.2186,-8.2186,-8.2186,-8.2296,-8.2627,-8.3104,-8.3361,-8.3177,-8.3287,-8.3081,-8.2158,-8.12,-8.044,-8.0032,-7.9251,-7.8995,-7.9415,-8.0151,-8.0911,-8.1709,-8.1415,-8.1525,-8.215,-8.237,-8.237,-8.2186,-8.27,-8.27,-8.2186,-8.2186,-8.1929,-8.1489,-8.1158,-8.0498,-7.1982,-7.2312,-7.2496,-7.2496,-7.1908,-7.0697,-6.8238,-6.6623,-6.4714,-6.1447,-6.1374,-6.1704,-6.0896,-6.2768,-6.4897,-6.6292,-6.71,-6.8605,-7.1615,-7.2716,-7.4331,-7.7341,-7.8919,-8.0314,-8.1709,-8.2039,-8.2186,-8.2186,-8.2186,-8.2186,-8.2186,-8.2186,-8.2186,-8.2186,-8.2186,-8.2186,-8.2186,-8.2186,-8.2186,-8.2186,-8.2186,-8.2186,-8.2223,-8.3287,-8.4058,-8.4646,-8.5453,-8.6261,-8.6995,-8.6995,-8.6995,-8.6995,-8.6995,-8.6995,-8.6995,-8.6995,-8.6995,-8.6995,-8.6995,-8.6995,-8.6995,-8.6995,-8.6077,-8.4903,-8.4682,-8.3471,-8.2186,-8.2186,-8.2186,-8.2186,-8.2186,-8.2186,-8.2186,-8.2186,-8.2186,-8.2186,-8.2186,-8.2186,-8.2186,-8.2186,-8.2186,-8.2186,-8.2186,-8.2663,-8.2847,-8.2296,-8.27,-8.2847,-8.226,-8.1542,-8.1089,-8.1089,-8.1089,-8.0911,-8.0623,-8.1299,-8.1885,-8.2186,-8.1966,-8.1929,-8.2186,-8.2737,-8.2884,-8.2553,-8.3104,-8.3141,-8.2553,-8.2076,-8.1562,-8.1012,-8.0498,-7.969,-7.1321,-7.1908,-7.2496,-7.2496,-7.1908,-7.0697,-6.8238,-6.7063,-6.5558,-6.2254,-6.2218,-6.2548,-6.1741,-6.3613,-6.5558,-6.6366,-6.8495,-7.0917,-7.334,-7.4368,-7.5799,-7.8295,-7.9286,-8.0094,-8.0938,-8.1746,-8.2186,-8.2186,-8.2186,-8.2186,-8.2186,-8.2186,-8.2186,-8.2186,-8.2186,-8.2186,-8.2186,-8.2186,-8.2186,-8.2186,-8.2186,-8.2186,-8.2223,-8.3287,-8.4058,-8.4646,-8.5453,-8.6261,-8.6995,-8.6995,-8.6995,-8.6995,-8.6995,-8.6995,-8.6995,-8.6995,-8.6995,-8.6995,-8.6995,-8.6995,-8.6995,-8.6995,-8.6444,-8.5637,-8.4829,-8.3471,-8.2186,-8.2186,-8.2186,-8.2186,-8.2186,-8.2186,-8.2186,-8.2186,-8.2186,-8.2186,-8.2186,-8.2186,-8.2186,-8.2186,-8.2186,-8.2186,-8.2186,-8.2186,-8.2186,-8.2186,-8.2186,-8.2186,-8.2186,-8.2186,-8.2186,-8.2186,-8.2186,-8.1715,-8.0695,-8.0623,-8.1089,-8.2121,-8.1452,-8.1379,-8.215,-8.2186,-8.259,-8.3398,-8.3398,-8.3398,-8.3398,-8.1782,-8.1012,-8.0975,-7.936,-7.8626,-6.9522,-6.9853,-7.0036,-7.0036,-6.9449,-6.8495,-6.7173,-6.6256,-6.5081,-6.2879,-6.2622,-6.2732,-6.2475,-6.3062,-6.442,-6.6916,-6.7504,-6.8862,-7.2386,-7.356,-7.4771,-7.668,-7.9103,-8.0938,-8.1746,-8.2039,-8.2186,-8.2186,-8.2186,-8.2186,-8.2186,-8.2186,-8.2186,-8.2186,-8.2186,-8.2186,-8.2186,-8.2186,-8.2186,-8.2186,-8.2186,-8.2553,-8.3287,-8.4419,-8.5117,-8.5453,-8.6261,-8.6775,-8.6995,-8.6995,-8.6995,-8.6995,-8.6995,-8.6995,-8.6995,-8.6995,-8.6995,-8.6995,-8.6995,-8.6995,-8.6995,-8.6995,-8.6444,-8.5637,-8.4829,-8.3875,-8.292,-8.2333,-8.2186,-8.2186,-8.2186,-8.2186,-8.2186,-8.2186,-8.2186,-8.2186,-8.2186,-8.2186,-8.2186,-8.2186,-8.2186,-8.2186,-8.2186,-8.2186,-8.2186,-8.2186,-8.2186,-8.2186,-8.2186,-8.2186,-8.2186,-8.2186,-8.2186,-8.2018,-8.1715,-8.1715,-8.1885,-8.2186,-8.1966,-8.2186,-8.2994,-8.3544,-8.3948,-8.4242,-8.4242,-8.3691,-8.259,-8.1525,-8.0424,-7.9323,-7.8222,-7.7708,-6.7871,-6.8898,-6.9339,-6.9339,-6.8531,-6.7467,-6.6659,-6.5632,-6.4457,-6.3099,-6.2805,-6.2805,-6.2805,-6.3062,-6.4053,-6.6402,-6.6623,-6.7907,-7.1945,-7.2936,-7.4294,-7.7157,-7.958,-8.1342,-8.2113,-8.2186,-8.2186,-8.2186,-8.2186,-8.2186,-8.2186,-8.2186,-8.2186,-8.2186,-8.2186,-8.2186,-8.2186,-8.2186,-8.2186,-8.2186,-8.2517,-8.3067,-8.3868,-8.5043,-8.5668,-8.582,-8.6664,-8.6995,0.0,-8.6995,-8.6995,-8.6995,-8.6995,-8.6995,-8.6995,-8.6995,-8.6995,-8.6995,-8.6995,-8.6995,-8.6995,-8.6995,-8.6261,-8.5233,-8.4756,-8.3838,-8.2847,-8.2333,-8.2186,-8.2186,-8.2186,-8.2186,-8.2186,-8.2186,-8.2186,-8.2186,-8.2186,-8.2186,-8.2186,-8.2186,-8.2186,-8.2186,-8.2186,-8.2186,-8.2186,-8.2186,-8.2186,-8.2186,-8.2186,-8.2186,-8.2186,-8.2186,-8.2186,-8.2186,-8.2186,-8.2186,-8.2186,-8.2186,-8.2186,-8.2406,-8.292,-8.3728,-8.4168,-8.4168,-8.4168,-8.3654,-8.2663,-8.1525,-8.0314,-7.9029,-7.8516,-7.8405,0.0,-6.8385,-6.9596,-6.9669,-6.8531,-6.7247,-6.6512,-6.5154,0.0,-6.3062,-6.2842,-6.2842,-6.2989,-6.3539,-6.4347,-6.5411,-6.6182,-6.8091,-7.2092,-7.2789,-7.4588,-7.9323,-8.0498,-8.1269,-8.2186,-8.2223,-8.2186,-8.2186,-8.2186,-8.2186,-8.2186,-8.2186,-8.2186,-8.2186,-8.2186,-8.2186,-8.2186,-8.2186,-8.2186,-8.2186,-8.303,-8.3581,-8.3978,-8.5196,-8.582,-8.593,-8.6701,-8.6995,-8.6995,-8.6995,-8.6995,-8.6995,-8.6995,-8.6995,-8.6995,-8.6995,-8.6995,-8.6995,-8.6995,-8.6995,-8.6995,-8.6921,-8.5857,-8.4609,-8.4535,-8.3434,-8.2186,-8.2186,-8.2186,-8.2186,-8.2186,-8.2186,-8.2186,-8.2186,-8.2186,-8.2186,-8.2186,-8.2186,-8.2186,-8.2186,-8.2186,-8.2186,-8.2186,-8.2186,-8.2186,-8.2186,-8.2186,-8.2186,-8.2186,-8.2186,-8.2186,-8.2186,-8.2186,-8.2186,-8.2186,-8.2186,-8.2186,-8.2186,-8.2186,-8.2223,-8.226,-8.2994,-8.3434,-8.3508,-8.3398,-8.3287,-8.3251,-8.1672,-8.0571,-7.9874,-7.98,-8.0241,-6.2438,0.0,-6.4677,-6.5338,-6.5228,-6.4897,0.0,-6.4347,-6.4016,-6.3833,-6.3282,-6.3209,-6.4494,-6.3833,-6.42,-6.7504,-6.8201,-6.9743,-7.378,-7.5432,-7.7304,-8.0351,-8.0351,-8.0865,-8.292,-8.2553,-8.2186,-8.2186,-8.2186,-8.2186,-8.2186,-8.2186,-8.2186,-8.2186,-8.2186,-8.2186,-8.2186,-8.2186,-8.2186,-8.2186,-8.303,-8.3948,-8.5043,-8.5527,-8.6151,-8.6738,-8.6921,-8.6995,-8.6995,-8.6995,-8.6995,-8.6995,-8.6995,-8.6995,-8.6995,-8.6995,-8.6995,-8.6995,-8.6995,-8.6995,-8.6921,-8.6261,-8.5416,-8.4499,-8.3875,-8.2994,-8.2186,-8.2186,-8.2186,-8.2186,-8.2186,-8.2186,-8.2186,-8.2186,-8.2186,-8.2186,-8.2186,-8.2186,-8.2186,-8.2186,-8.2186,-8.2186,-8.2186,-8.2186,-8.2186,-8.2186,-8.2186,-8.2186,-8.2186,-8.2186,-8.2186,-8.2186,-8.2186,-8.2186,-8.2186,-8.2186,-8.2186,-8.2186,-8.2186,-8.248,-8.3104,-8.3324,-8.3691,-8.4315,-8.3104,-8.2186,-8.1562,-8.0571,-8.0277,-8.0718,-8.0094,-8.0241,-5.9612,-6.1924,-6.4053,-6.453,-6.4347,-6.409,-6.409,-6.3209,-6.2401,-6.2401,-6.2328,-6.2548,-6.3429,-6.3796,-6.4787,-6.7393,-6.8715,-7.0991,-7.5395,-7.8075,-8.0057,-8.1379,-8.1489,-8.1819,-8.2774,-8.2443,-8.2186,-8.2186,-8.2186,-8.2186,-8.2186,-8.2186,-8.2186,-8.2186,-8.2186,-8.2186,-8.2186,-8.2186,-8.2186,-8.2223,-8.3177,-8.4205,-8.5411,-8.604,-8.6591,-8.6995,-8.6995,-8.6995,-8.6995,-8.6995,-8.6995,-8.6995,-8.6995,-8.6995,-8.6995,-8.6995,-8.6995,-8.6995,-8.6995,-8.6775,-8.6371,-8.593,-8.5013,-8.3985,-8.3544,-8.2847,-8.2186,-8.2186,-8.2186,-8.2186,-8.2186,-8.2186,-8.2186,-8.2186,-8.2186,-8.2186,-8.2186,-8.2186,-8.2186,-8.2186,-8.2186,-8.2186,-8.2186,-8.2186,-8.2186,-8.2186,-8.2186,-8.2186,-8.2186,-8.2186,-8.2186,-8.2186,-8.2186,-8.2186,-8.2186,-8.2186,-8.2186,-8.2186,-8.2186,-8.2406,-8.2847,-8.2847,-8.3067,-8.3471,-8.2627,-8.2003,-8.1562,-8.1085,-8.1305,-8.2076,-8.1269,-8.1342,-5.785,-6.1557,-6.5044,-6.4824,-6.442,-6.4053,-6.3906,-6.2291,-6.0786,-6.0786,-6.13,-6.1924,-6.2438,-6.4053,-6.5778,-6.7173,-6.9339,-7.2312,-7.6533,-7.9617,-8.1599,-8.1966,-8.2517,-8.2737,-8.2406,-8.226,-8.2186,-8.2186,-8.2186,-8.2186,-8.2186,-8.2186,-8.2186,-8.2186,-8.2186,-8.2186,-8.2186,-8.2186,-8.2186,-8.2223,-8.3294,-8.4285,-8.53,-8.6444,-8.6995,-8.6995,-8.6995,-8.6995,-8.6995,-8.6995,-8.6995,-8.6995,-8.6995,-8.6995,-8.6995,-8.6995,-8.6995,-8.6995,-8.6885,-8.6371,-8.5747,-8.549,-8.4499,-8.3398,-8.3251,-8.2737,-8.2186,-8.2186,-8.2186,-8.2186,-8.2186,-8.2186,-8.2186,-8.2186,-8.2186,-8.2186,-8.2186,-8.2186,-8.2186,-8.2186,-8.2186,-8.2186,-8.2186,-8.2186,-8.2186,-8.2186,-8.2186,-8.2186,-8.2186,-8.2186,-8.2186,-8.2186,-8.2186,-8.2186,-8.2186,-8.2186,-8.2186,-8.2186,-8.2186,-8.2186,-8.2186,-8.2186,-8.2186,-8.2186,-8.2186,-8.2186,-8.2186,-8.2186,-8.2627,-8.3398,-8.259,-8.2627,-5.8253,-6.1557,-6.387,-6.2511,-6.3135,-6.3906,-6.3172,-6.2695,-6.2438,-6.2438,-6.2548,-6.3466,-6.6256,-6.5962,-6.6696,-7.0881,-7.3046,-7.4661,-7.6093,-7.7304,-7.8846,-8.0938,-8.0681,-8.1122,-8.303,-8.259,-8.2186,-8.2186,-8.2186,-8.2186,-8.2186,-8.2186,-8.2186,-8.2186,-8.2186,-8.2186,-8.2186,-8.2186,-8.2186,-8.2223,-8.3294,-8.4101,-8.4756,-8.6297,-8.6995,-8.6995,-8.6995,-8.6995,-8.6995,-8.6995,-8.6995,-8.6995,-8.6995,-8.6995,-8.6995,-8.6995,-8.6995,-8.6921,-8.6224,-8.5894,-8.5563,-8.4205,-8.3618,-8.3287,-8.259,-8.2296,-8.2186,-8.2186,-8.2186,-8.2186,-8.2186,-8.2186,-8.2186,-8.2186,-8.2186,-8.2186,-8.2186,-8.2186,-8.2186,-8.2186,-8.2186,-8.2186,-8.2186,-8.2186,-8.2186,-8.2186,-8.2186,-8.2186,-8.2186,-8.2186,-8.2186,-8.2186,-8.2186,-8.2186,-8.2186,-8.2186,-8.2186,-8.2186,-8.2186,-8.2186,-8.2186,-8.2186,-8.2186,-8.2186,-8.2186,-8.2186,-8.2186,-8.2186,-8.2627,-8.3398,-8.259,-8.2627,-5.6859,-5.9905,-6.2511,-6.1777,-6.4163,-6.6476,-6.5632,-6.4787,-6.4053,-6.3576,-6.387,-6.4751,-6.6696,-6.7173,-6.8678,-7.3083,-7.5175,-7.6644,-7.7928,-7.8809,-7.9874,-8.1452,-8.1305,-8.1525,-8.2627,-8.2406,-8.2186,-8.2186,-8.2186,-8.2186,-8.2186,-8.2186,-8.2186,-8.2186,-8.2186,-8.2186,-8.2186,-8.2186,-8.2186,-8.2223,-8.3875,-8.4646,-8.4646,-8.6261,-8.6995,-8.6995,-8.6995,-8.6995,-8.6995,-8.6995,-8.6995,-8.6995,-8.6995,-8.6995,-8.6995,-8.6995,-8.6995,-8.6885,-8.6077,-8.5527,-8.4976,-8.3801,-8.3104,-8.27,-8.2296,-8.2186,-8.2186,-8.2186,-8.2186,-8.2186,-8.2186,-8.2186,-8.2186,-8.2186,-8.2186,-8.2186,-8.2186,-8.2186,-8.2186,-8.2186,-8.2186,-8.2186,-8.2186,-8.2186,-8.2186,-8.2186,-8.2186,-8.2186,-8.2186,-8.2186,-8.2186,-8.2186,-8.2186,-8.2186,-8.2186,-8.2186,-8.2186,-8.2186,-8.2186,-8.2186,-8.2186,-8.2186,-8.2186,-8.2186,-8.2627,-8.2847,-8.2847,-8.2847,-8.3251,-8.4022,-8.2774,-8.2627,-5.6271,-5.9245,-6.2218,-6.2401,-6.5301,-6.7927,-6.747,-6.6626,-6.5689,-6.5055,-6.5747,-6.6733,-6.7724,-6.9339,-7.1468,-7.4441,-7.6276,-7.7781,-7.9029,-7.9727,-8.0498,-8.1525,-8.1636,-8.1782,-8.215,-8.2186,-8.2186,-8.2186,-8.2186,-8.2186,-8.2186,-8.2186,-8.2186,-8.2186,-8.2186,-8.2186,-8.2186,-8.2186,-8.2333,-8.259,-8.4492,-8.5227,-8.4939,-8.6371,-8.6995,-8.6995,-8.6995,-8.6995,-8.6995,-8.6995,-8.6995,-8.6995,-8.6995,-8.6995,-8.6995,-8.6995,-8.6995,-8.6885,-8.5857,-8.5123,-8.4425,-8.3434,-8.27,-8.2186,-8.2186,-8.2186,-8.2186,-8.2186,-8.2186,-8.2186,-8.2186,-8.2186,-8.2186,-8.2186,-8.2186,-8.2186,-8.2186,-8.2186,-8.2186,-8.2186,-8.2186,-8.2186,-8.2186,-8.2186,-8.2186,-8.2186,-8.2186,-8.2186,-8.2186,-8.2186,-8.2186,-8.2186,-8.2186,-8.2186,-8.2186,-8.2186,-8.2186,-8.2186,-8.2186,-8.2186,-8.2186,-8.2186,-8.2186,-8.2186,-8.281,-8.3141,-8.3141,-8.3141,-8.3434,-8.4022,-8.2774,-8.2517,-5.8327,-6.1374,-6.409,-6.4861,-6.5301,-6.5677,-6.6257,-6.7008,-6.747,-6.727,-6.8575,-7.022,-7.1798,-7.3817,-7.5115,-7.4955,-7.6276,-7.7378,-7.7488,-7.7561,-7.8185,-7.9764,-7.9947,-8.0534,-8.2039,-8.2186,-8.2186,-8.2186,-8.2186,-8.2186,-8.2186,-8.2186,-8.2186,-8.2186,-8.2186,-8.2186,-8.2186,-8.2186,-8.27,-8.3654,-8.486,-8.5521,-8.5747,-8.6628,-8.6995,-8.6995,-8.6995,-8.6995,-8.6995,-8.6995,-8.6995,-8.6995,-8.6995,-8.6995,-8.6995,-8.6995,-8.6995,-8.6775,-8.5233,-8.4646,-8.4352,-8.2774,-8.226,-8.2186,-8.2186,-8.2186,-8.2186,-8.2186,-8.2186,-8.2186,-8.2186,-8.2186,-8.2186,-8.2186,-8.2186,-8.2186,-8.2186,-8.2186,-8.2186,-8.2186,-8.2186,-8.2186,-8.2186,-8.2186,-8.2186,-8.2186,-8.2186,-8.2186,-8.2186,-8.2186,-8.2186,-8.2186,-8.2186,-8.2186,-8.2186,-8.2186,-8.2186,-8.2186,-8.2186,-8.2186,-8.2186,-8.2186,-8.2186,-8.2186,-8.226,-8.2296,-8.2296,-8.2296,-8.2333,-8.237,-8.226,-8.2223,-5.8217,-6.0823,-6.3503,-6.4347,-6.5668,-6.7266,-6.8982,-7.0433,-7.1448,-7.1377,-7.1919,-7.2349,-7.2496,-7.4808,-7.6313,-7.5102,-7.6276,-7.7304,-7.7304,-7.7304,-7.7818,-7.9113,-7.9617,-8.0424,-8.2039,-8.2186,-8.2186,-8.2186,-8.2186,-8.2186,-8.2186,-8.2186,-8.2186,-8.2186,-8.2186,-8.2186,-8.2186,-8.2186,-8.2884,-8.4278,-8.4682,-8.5196,-8.582,-8.6628,-8.6995,-8.6995,-8.6995,-8.6995,-8.6995,-8.6995,-8.6995,-8.6995,-8.6995,-8.6995,-8.6958,-8.6444,-8.6591,-8.6701,-8.4609,-8.4168,-8.4315,-8.27,-8.2186,-8.2186,-8.2186,-8.2186,-8.2186,-8.2186,-8.2186,-8.2186,-8.2186,-8.2186,-8.2186,-8.2186,-8.259,-8.2957,-8.2957,-8.2957,-8.2957,-8.2957,-8.2553,-8.2186,-8.2186,-8.2186,-8.2186,-8.2186,-8.2186,-8.2186,-8.2186,-8.2186,-8.2186,-8.2186,-8.2186,-8.2186,-8.2186,-8.2186,-8.2186,-8.2186,-8.2186,-8.2186,-8.2186,-8.2186,-8.2186,-8.2186,-8.27,-8.2957,-8.2957,-8.2957,-8.2957,-8.2957,-8.2957,-8.27,-5.9208,-6.1484,-6.4127,-6.4714,-6.6659,-6.9009,-7.1211,-7.2532,-7.3465,-7.3922,-7.4152,-7.4074,-7.3377,-7.5065,-7.6203,-7.5102,-7.6276,-7.7304,-7.7304,-7.7304,-7.7683,-7.8856,-7.9617,-8.0635,-8.2039,-8.2186,-8.2186,-8.2186,-8.2186,-8.2186,-8.2186,-8.2186,-8.2186,-8.2186,-8.2186,-8.2186,-8.2186,-8.2517,-8.3324,-8.4609,-8.4866,-8.5416,-8.6187,-8.6775,-8.6995,-8.6995,-8.6995,-8.6995,-8.6995,-8.6995,-8.6995,-8.6995,-8.6995,-8.6848,-8.6554,-8.6004,-8.6004,-8.5967,-8.4058,-8.3765,-8.4022,-8.2627,-8.2186,-8.2186,-8.2186,-8.2186,-8.2186,-8.2186,-8.237,-8.2517,-8.226,-8.2186,-8.226,-8.2517,-8.281,-8.3177,-8.3691,-8.3398,-8.3104,-8.3361,-8.2737,-8.2186,-8.2186,-8.2186,-8.2186,-8.2186,-8.2186,-8.2186,-8.2186,-8.2186,-8.2186,-8.2186,-8.2186,-8.2186,-8.2186,-8.2186,-8.2186,-8.2186,-8.2186,-8.2186,-8.2186,-8.2186,-8.2186,-8.2186,-8.2737,-8.303,-8.303,-8.303,-8.303,-8.303,-8.303,-8.2737,-6.1814,-6.398,-6.6476,-6.6512,-6.8311,-7.0513,-7.2165,-7.2532,-7.2921,-7.4398,-7.527,-7.5565,-7.4992,-7.4918,-7.4918,-7.4918,-7.6276,-7.7304,-7.7304,-7.7304,-7.7683,-7.8893,-7.991,-8.1002,-8.2076,-8.2186,-8.2186,-8.2186,-8.2186,-8.2186,-8.2186,-8.2186,-8.2186,-8.2186,-8.2186,-8.2186,-8.2186,-8.3251,-8.4058,-8.4609,-8.5416,-8.6224,-8.6995,-8.6995,-8.6995,-8.6995,-8.6995,-8.6995,-8.6995,-8.6995,-8.6995,-8.6995,-8.6995,-8.6518,-8.5783,-8.5783,-8.527,-8.4499,-8.3691,-8.3398,-8.3287,-8.2443,-8.2186,-8.2186,-8.2186,-8.2186,-8.2186,-8.2186,-8.2774,-8.3214,-8.2406,-8.2186,-8.2406,-8.3214,-8.281,-8.2663,-8.4278,-8.3361,-8.2443,-8.3287,-8.2774,-8.2186,-8.2186,-8.2186,-8.2186,-8.2186,-8.2186,-8.2186,-8.2186,-8.2186,-8.2186,-8.2186,-8.2186,-8.2186,-8.2186,-8.2186,-8.2186,-8.2186,-8.2186,-8.2186,-8.2186,-8.2186,-8.2186,-8.2186,-8.2186,-8.2186,-8.2186,-8.2186,-8.2186,-8.2186,-8.2186,-8.2186,-6.097,-6.3172,-6.5778,-6.6366,-6.8752,-7.1505,-7.3707,-7.4184,-7.4639,-7.6225,-7.6679,-7.6313,-7.4639,-7.4945,-7.5739,-7.6434,-7.6998,-7.7304,-7.7304,-7.7304,-7.7855,-7.9386,-7.9349,-8.001,-8.1957,-8.17,-8.1599,-8.215,-8.2186,-8.2186,-8.2186,-8.2186,-8.2186,-8.2186,-8.2186,-8.2186,-8.2186,-8.3647,-8.4602,-8.519,-8.5563,-8.6224,-8.6995,-8.6995,-8.6995,-8.6995,-8.6995,-8.6995,-8.6995,-8.6995,-8.6995,-8.6995,-8.6995,-8.6518,-8.571,-8.5159,-8.4792,-8.4389,-8.303,-8.292,-8.3287,-8.2443,-8.2186,-8.2186,-8.2186,-8.2186,-8.2186,-8.2186,-8.237,-8.2517,-8.226,-8.2627,-8.3104,-8.3361,-8.3654,-8.4168,-8.5196,-8.4609,-8.3948,-8.4205,-8.3141,-8.2186,-8.2186,-8.2186,-8.2186,-8.2186,-8.2186,-8.2186,-8.2186,-8.2186,-8.2186,-8.2186,-8.2186,-8.2186,-8.2186,-8.2186,-8.2186,-8.2186,-8.2186,-8.2186,-8.2186,-8.2186,-8.2186,-8.2186,-8.2186,-8.2186,-8.2186,-8.2186,-8.2186,-8.2223,-8.2774,-8.2737,-6.3723,-6.5705,-6.7907,-6.8678,-7.011,-7.1945,-7.4368,-7.5395,-7.613,-7.7121,-7.7268,-7.6925,-7.5616,-7.5886,-7.646,-7.6764,-7.7108,-7.7304,-7.7304,-7.7304,-7.7818,-7.9338,-7.9239,-7.9753,-8.1406,-8.1517,-8.17,-8.215,-8.2186,-8.2186,-8.2186,-8.2186,-8.2186,-8.2186,-8.2186,-8.2186,-8.2186,-8.4015,-8.511,-8.5374,-8.5967,-8.6518,-8.6995,-8.6995,-8.6995,-8.6995,-8.6995,-8.6995,-8.6995,-8.6995,-8.6811,-8.6518,-8.6518,-8.5857,-8.4792,-8.4315,-8.3911,-8.3508,-8.2553,-8.2517,-8.2847,-8.237,-8.2186,-8.2186,-8.2186,-8.2186,-8.2186,-8.2186,-8.2443,-8.27,-8.27,-8.3287,-8.3875,-8.3875,-8.4022,-8.4535,-8.5967,-8.5159,-8.4315,-8.4939,-8.3765,-8.27,-8.27,-8.2406,-8.2186,-8.2186,-8.2186,-8.2186,-8.2186,-8.2186,-8.2186,-8.2186,-8.2186,-8.2186,-8.2186,-8.2186,-8.2186,-8.2186,-8.2186,-8.2186,-8.2186,-8.2186,-8.2186,-8.2186,-8.2186,-8.2186,-8.2186,-8.2186,-8.2186,-8.2186,-8.27,-8.2663,-6.7944,-6.9706,-7.1284,-7.2092,-7.1945,-7.2202,-7.4404,-7.6166,-7.7304,-7.7304,-7.7292,-7.7279,-7.7279,-7.7279,-7.7059,-7.6203,-7.679,-7.7304,-7.7304,-7.7304,-7.7671,-7.8761,-7.9301,-7.979,-8.0424,-8.1333,-8.1957,-8.2076,-8.215,-8.2186,-8.2186,-8.2186,-8.2186,-8.2186,-8.2186,-8.2186,-8.2186,-8.4308,-8.5337,-8.5374,-8.6481,-8.6995,-8.6995,-8.6995,-8.6995,-8.6995,-8.6995,-8.6995,-8.6995,-8.6921,-8.6444,-8.5783,-8.571,-8.4756,-8.3398,-8.3398,-8.2884,-8.2186,-8.2186,-8.2186,-8.2186,-8.2186,-8.2186,-8.2186,-8.2186,-8.2186,-8.2223,-8.2296,-8.2774,-8.3324,-8.3471,-8.4058,-8.4609,-8.4682,-8.4168,-8.4242,-8.6444,-8.5196,-8.4022,-8.5306,-8.4389,-8.3398,-8.3324,-8.27,-8.2186,-8.2186,-8.2186,-8.2186,-8.2186,-8.2186,-8.2186,-8.2186,-8.2186,-8.2186,-8.2186,-8.2186,-8.2186,-8.2186,-8.2186,-8.2186,-8.2186,-8.2186,-8.2186,-8.2186,-8.2186,-8.2186,-8.2186,-8.2186,-8.2186,-8.2186,-8.2186,-8.2186,-6.4016,-6.6733,-6.9633,-7.0403,-7.2386,-7.4258,-7.4808,-7.6166,-7.7304,-7.7304,-7.7304,-7.7329,-7.7316,-7.7292,-7.7047,-7.624,-7.679,-7.7304,-7.7304,-7.7304,-7.7414,-7.7635,-7.7781,-7.8222,-7.9213,-7.9543,-8.0131,-8.1195,-8.1819,-8.2186,-8.2186,-8.2186,-8.2186,-8.2186,-8.2186,-8.2186,-8.2186,-8.3911,-8.5006,-8.5374,-8.6481,-8.6995,-8.6995,-8.6995,-8.6995,-8.6995,-8.6995,-8.6995,-8.6958,-8.6334,-8.5967,-8.5747,-8.5086,-8.4278,-8.3398,-8.3398,-8.2884,-8.2186,-8.2186,-8.2186,-8.2186,-8.2186,-8.2186,-8.2186,-8.2186,-8.2186,-8.2333,-8.2957,-8.281,-8.2737,-8.4022,-8.4462,-8.4756,-8.538,-8.5416,-8.5416,-8.593,-8.5637,-8.5013,-8.4095,-8.3654,-8.3214,-8.2553,-8.2296,-8.2186,-8.2186,-8.2186,-8.2186,-8.2186,-8.2186,-8.2186,-8.2186,-8.2186,-8.2186,-8.2186,-8.2186,-8.2186,-8.2186,-8.2186,-8.2186,-8.2186,-8.2186,-8.2186,-8.2186,-8.2186,-8.2186,-8.2186,-8.2186,-8.2186,-8.2186,-8.2186,-8.2186,-6.4714,-6.7247,-6.9743,-7.0954,-7.2789,-7.4368,-7.4492,-7.5629,-7.6827,-7.7231,-7.7304,-7.7304,-7.7292,-7.7268,-7.7194,-7.6754,-7.7047,-7.7304,-7.7304,-7.7304,-7.7304,-7.7304,-7.7304,-7.7561,-7.8123,-7.914,-7.9947,-8.0397,-8.1562,-8.2186,-8.2186,-8.2186,-8.2186,-8.2186,-8.2186,-8.2186,-8.2186,-8.3581,-8.4499,-8.5043,-8.6371,-8.6995,-8.6995,-8.6995,-8.6995,-8.6995,-8.6995,-8.6995,-8.6958,-8.6114,-8.5563,-8.5159,-8.4352,-8.3544,-8.2847,-8.2847,-8.2553,-8.2186,-8.2186,-8.2186,-8.2186,-8.2186,-8.2186,-8.2186,-8.2186,-8.2186,-8.2296,-8.27,-8.2517,-8.2553,-8.4168,-8.4609,-8.4903,-8.6077,-8.5783,-8.5453,-8.6224,-8.5453,-8.4646,-8.4572,-8.3948,-8.3287,-8.2847,-8.2443,-8.2186,-8.2186,-8.2186,-8.2186,-8.2186,-8.2186,-8.2186,-8.2186,-8.2186,-8.2186,-8.2186,-8.2186,-8.2186,-8.2186,-8.2186,-8.2186,-8.2186,-8.2186,-8.2186,-8.2186,-8.2186,-8.2186,-8.2186,-8.2186,-8.2186,-8.2186,-8.2186,-8.2186,-6.5852,-6.8238,-7.0293,-7.2055,-7.312,-7.3854,-7.4198,-7.5299,-7.6497,-7.7157,-7.7304,-7.7268,-7.7084,-7.7084,-7.7121,-7.7121,-7.7121,-7.7157,-7.7304,-7.7304,-7.7304,-7.7304,-7.7304,-7.7279,-7.7291,-7.914,-8.0131,-7.9709,-8.124,-8.2186,-8.2186,-8.2186,-8.2186,-8.2186,-8.2186,-8.2296,-8.2443,-8.3441,-8.4285,-8.5013,-8.6371,-8.6995,-8.6995,-8.6995,-8.6995,-8.6995,-8.6995,-8.6921,-8.6738,-8.593,-8.5123,-8.4315,-8.3508,-8.281,-8.2186,-8.2186,-8.2186,-8.2186,-8.2186,-8.2186,-8.2186,-8.2186,-8.2186,-8.2186,-8.2186,-8.2186,-8.2223,-8.237,-8.2406,-8.2737,-8.4205,-8.4682,-8.5123,-8.6297,-8.5563,-8.4976,-8.6297,-8.5123,-8.4095,-8.4976,-8.4095,-8.3214,-8.3214,-8.2627,-8.2186,-8.2186,-8.2186,-8.2186,-8.2186,-8.2186,-8.2186,-8.2186,-8.2186,-8.2186,-8.2186,-8.2186,-8.2186,-8.2186,-8.2186,-8.2186,-8.2186,-8.2186,-8.2186,-8.2186,-8.2186,-8.2186,-8.2186,-8.2186,-8.2186,-8.2186,-8.2186,-8.2186,-6.2108,-6.5668,-6.9633,-7.1908,-7.3266,-7.4206,-7.4698,-7.6006,-7.7206,-7.7268,-7.7304,-7.7047,-7.6069,-7.613,-7.6276,-7.6276,-7.6276,-7.6497,-7.7231,-7.7304,-7.7304,-7.7304,-7.7304,-7.7341,-7.7279,-7.8453,-7.9187,-7.915,-8.1048,-8.2186,-8.2186,-8.2186,-8.2186,-8.2186,-8.2186,-8.2627,-8.3544,-8.4205,-8.5196,-8.6691,-8.6917,-8.6995,-8.6995,-8.6995,-8.6995,-8.6995,-8.6995,-8.6591,-8.5894,-8.5086,-8.4278,-8.3508,-8.2663,-8.2296,-8.2186,-8.2186,-8.2186,-8.2186,-8.2186,-8.2186,-8.2186,-8.2186,-8.2186,-8.2186,-8.2186,-8.2186,-8.2333,-8.303,-8.3251,-8.3471,-8.4352,-8.5123,-8.5527,-8.5049,-8.4756,-8.4646,-8.4866,-8.5196,-8.4903,-8.303,-8.2517,-8.237,-8.237,-8.226,-8.2186,-8.2186,-8.2186,-8.2186,-8.2186,-8.2186,-8.2186,-8.2186,-8.2186,-8.2186,-8.2186,-8.2186,-8.2186,-8.2186,-8.2186,-8.2186,-8.2186,-8.2186,-8.2186,-8.2186,-8.2186,-8.2186,-8.2186,-8.2186,-8.2186,-8.2186,-8.2186,-8.2186,-6.3503,-6.6586,-6.9486,-7.1908,-7.2826,-7.3487,-7.4661,-7.5432,-7.6227,-7.7121,-7.7304,-7.7047,-7.6093,-7.6019,-7.6056,-7.5933,-7.5873,-7.6203,-7.7182,-7.7268,-7.7304,-7.7304,-7.7304,-7.7304,-7.7304,-7.8626,-7.947,-7.947,-8.1158,-8.2186,-8.2186,-8.2186,-8.2186,-8.2186,-8.2186,-8.2627,-8.3581,-8.5184,-8.6323,-8.7027,-8.6995,-8.6995,-8.6995,-8.6995,-8.6995,-8.6995,-8.6995,-8.6554,-8.5747,-8.4939,-8.4132,-8.3324,-8.2517,-8.2186,-8.2186,-8.2186,-8.2186,-8.2186,-8.2186,-8.2186,-8.2186,-8.2186,-8.2186,-8.2186,-8.2186,-8.2186,-8.237,-8.3177,-8.3398,-8.3691,-8.4939,-8.5527,-8.582,-8.593,-8.527,-8.4719,-8.5159,-8.4499,-8.3471,-8.2406,-8.2186,-8.2186,-8.2186,-8.2186,-8.2186,-8.2186,-8.2186,-8.2186,-8.2186,-8.2186,-8.2186,-8.2186,-8.2186,-8.2186,-8.2186,-8.2186,-8.2186,-8.2186,-8.2186,-8.2186,-8.2186,-8.2186,-8.2186,-8.2186,-8.2186,-8.2186,-8.2186,-8.2186,-8.2186,-8.2186,-8.2186,-8.2186,-6.4053,-6.6292,-6.7981,-7.0604,-7.1872,-7.281,-7.4015,-7.4918,-7.5859,-7.7047,-7.7304,-7.7084,-7.624,-7.5946,-7.5652,-7.5345,-7.5285,-7.5652,-7.6764,-7.6888,-7.6937,-7.7011,-7.7011,-7.7084,-7.7304,-7.8699,-7.9617,-7.9764,-8.1269,-8.2186,-8.2186,-8.2186,-8.2186,-8.2186,-8.2186,-8.259,-8.3398,-8.5588,-8.6801,-8.6995,-8.6995,-8.6995,-8.6995,-8.6995,-8.6995,-8.6995,-8.6775,-8.6224,-8.5416,-8.4646,-8.3838,-8.303,-8.2443,-8.2186,-8.2186,-8.2186,-8.2186,-8.2186,-8.2186,-8.2186,-8.2186,-8.2186,-8.2186,-8.2186,-8.2186,-8.2186,-8.237,-8.3177,-8.3581,-8.3985,-8.5159,-8.5783,-8.6114,-8.6114,-8.549,-8.4976,-8.5159,-8.3765,-8.2517,-8.2517,-8.2333,-8.2186,-8.2186,-8.2186,-8.2186,-8.2186,-8.2186,-8.2186,-8.2186,-8.2186,-8.2186,-8.2186,-8.2186,-8.2186,-8.2186,-8.2186,-8.2186,-8.2186,-8.2186,-8.2186,-8.2186,-8.2186,-8.2186,-8.2186,-8.2186,-8.2186,-8.2186,-8.2186,-8.2186,-8.2186,-8.2186,-8.2186,-6.097,-6.2475,-6.3892,-6.7139,-7.0239,-7.252,-7.2614,-7.4992,-7.7192,-7.7268,-7.7304,-7.7084,-7.624,-7.5469,-7.4771,-7.428,-7.4169,-7.4574,-7.5602,-7.5749,-7.5896,-7.613,-7.6166,-7.646,-7.7268,-7.8332,-7.9276,-7.9727,-8.1259,-8.2178,-8.2186,-8.2186,-8.2186,-8.2186,-8.2186,-8.259,-8.3398,-8.5013,-8.6224,-8.6995,-8.6995,-8.6995,-8.6995,-8.6995,-8.6995,-8.6958,-8.6187,-8.5416,-8.4609,-8.3801,-8.2994,-8.226,-8.2223,-8.2186,-8.2186,-8.2186,-8.2186,-8.2186,-8.2186,-8.2186,-8.2186,-8.2186,-8.2186,-8.2186,-8.2186,-8.2186,-8.237,-8.3177,-8.3948,-8.4572,-8.4646,-8.5783,-8.6371,-8.4132,-8.4682,-8.5306,-8.3875,-8.3434,-8.3361,-8.3361,-8.2737,-8.2186,-8.2186,-8.2186,-8.2186,-8.2186,-8.2186,-8.2186,-8.2186,-8.2186,-8.2186,-8.2186,-8.2186,-8.2186,-8.2186,-8.2186,-8.2186,-8.2186,-8.2186,-8.2186,-8.2186,-8.2186,-8.2186,-8.2186,-8.2186,-8.2186,-8.2186,-8.2186,-8.2186,-8.2186,-8.2186,-8.2186,-6.086,-6.1814,-6.2805,-6.5909,-6.8458,-7.0349,-7.082,-7.3208,-7.5676,-7.6998,-7.7268,-7.7084,-7.624,-7.5432,-7.4492,-7.3237,-7.3054,-7.3237,-7.358,-7.3653,-7.4482,-7.6594,-7.6399,-7.6644,-7.8002,-7.8626,-7.9066,-7.926,-8.1112,-8.2178,-8.2186,-8.2186,-8.2186,-8.2186,-8.2186,-8.281,-8.4168,-8.5233,-8.6187,-8.6995,-8.6995,-8.6995,-8.6995,-8.6995,-8.6995,-8.6921,-8.56,-8.4866,-8.4572,-8.4278,-8.3398,-8.2186,-8.2186,-8.2186,-8.2186,-8.2186,-8.2186,-8.2186,-8.2186,-8.2186,-8.2186,-8.2186,-8.2186,-8.2186,-8.2186,-8.2186,-8.248,-8.3801,-8.4389,-8.4829,-8.5894,-8.6591,-8.6518,-8.4609,-8.5013,-8.5196,-8.3104,-8.2627,-8.2627,-8.2627,-8.2406,-8.2186,-8.2186,-8.2186,-8.2186,-8.2186,-8.2186,-8.2186,-8.2186,-8.2186,-8.2186,-8.2186,-8.2186,-8.2186,-8.2186,-8.2186,-8.2186,-8.2186,-8.2186,-8.2186,-8.2186,-8.2186,-8.2186,-8.2186,-8.2186,-8.2186,-8.2186,-8.2186,-8.2186,-8.2186,-8.2186,-8.2186,-5.9465,-6.0382,-6.1484,-6.4281,-6.5673,-6.7103,-7.0218,-7.1443,-7.282,-7.5836,-7.6961,-7.7121,-7.6607,-7.5873,-7.4822,-7.3251,-7.3177,-7.3287,-7.33,-7.3763,-7.4519,-7.5556,-7.6179,-7.6961,-7.8075,-7.8295,-7.8442,-7.839,-8.0745,-8.2059,-8.1672,-8.2003,-8.2186,-8.2186,-8.2186,-8.303,-8.4829,-8.5196,-8.593,-8.6995,-8.6995,-8.6995,-8.6995,-8.6995,-8.6848,-8.6554,-8.5453,-8.4866,-8.4572,-8.4022,-8.3141,-8.2186,-8.2186,-8.2186,-8.2186,-8.2186,-8.2186,-8.2186,-8.2186,-8.2186,-8.2186,-8.2186,-8.2186,-8.2186,-8.2186,-8.237,-8.2847,-8.3911,-8.4609,-8.5233,-8.6334,-8.6407,-8.6004,-8.5196,-8.4792,-8.4242,-8.2884,-8.259,-8.2517,-8.226,-8.2186,-8.2186,-8.2186,-8.2186,-8.2186,-8.2186,-8.2186,-8.2186,-8.2186,-8.2186,-8.2186,-8.2186,-8.2186,-8.2186,-8.2186,-8.2186,-8.2186,-8.2186,-8.2186,-8.2186,-8.2186,-8.2186,-8.2186,-8.2186,-8.2186,-8.2186,-8.2186,-8.2186,-8.2186,-8.2186,-8.2186,-8.2018,0.0,0.0,0.0,-6.2077,-6.1894,-6.3079,-7.0454,-6.9941,-6.9153,-7.3786,-7.6093,-7.7279,-7.7268,-7.6644,-7.5726,-7.4359,-7.4565,-7.4918,-7.4992,-7.6287,-7.6176,-7.3021,-7.5348,-7.7255,-7.7378,-7.7341,-7.7316,-7.7327,-8.0294,-8.1718,-8.0654,-8.1636,-8.2186,-8.2186,-8.2186,-8.328,-8.5374,-8.4829,-8.5416,-8.6995,-8.6995,-8.6995,-8.6958,-8.6958,-8.6518,-8.5747,-8.5747,-8.527,-8.4425,-8.2884,-8.2223,-8.2186,-8.2186,-8.2186,-8.2186,-8.2186,-8.2186,-8.2186,-8.2186,-8.2186,-8.2186,-8.2186,-8.2186,-8.2186,-8.2186,-8.2737,-8.3398,-8.3398,-8.4535,-8.5783,-8.582,-8.5233,-8.4829,-8.5563,-8.3948,-8.2443,-8.3214,-8.3361,-8.3141,-8.2333,-8.2186,-8.2186,-8.2186,-8.2186,-8.2186,-8.2186,-8.2186,-8.2186,-8.2186,-8.2186,-8.2186,-8.2186,-8.2186,-8.2186,-8.2186,-8.2186,-8.2186,-8.2186,-8.2186,-8.2186,-8.2186,-8.2186,-8.2186,-8.2186,-8.2186,-8.2186,-8.2186,-8.2186,-8.2186,-8.2186,-8.2186,-8.1542,-5.5868,0.0,0.0,0.0,0.0,0.0,-6.3612,-6.7884,-7.1229,-7.1427,-7.4559,-7.7076,-7.6276,-7.6607,-7.668,-7.5726,-7.5189,-7.5335,-7.6497,-7.7059,-7.6961,-7.6093,-7.6056,-7.6913,-7.8908,-7.7976,-7.7291,-7.7327,-7.9286,-8.0819,-8.17,-8.2068,-8.2186,-8.2186,-8.2186,-8.328,-8.5374,-8.4829,-8.5416,-8.6995,-8.6995,-8.6701,-8.6114,-8.6114,-8.5673,-8.4903,-8.4315,-8.3948,-8.3728,-8.3251,-8.2737,-8.2186,-8.2186,-8.2186,-8.2186,-8.2186,-8.2186,-8.2186,-8.2186,-8.2186,-8.2186,-8.2186,-8.2186,-8.2186,-8.2186,-8.237,-8.2663,-8.3251,-8.4132,-8.5196,-8.6371,-8.6077,-8.538,-8.5013,-8.3985,-8.2994,-8.2627,-8.2517,-8.248,-8.2223,-8.2186,-8.2186,-8.2186,-8.2186,-8.2186,-8.2186,-8.2186,-8.2186,-8.2186,-8.2186,-8.2186,-8.2186,-8.2186,-8.2186,-8.2186,-8.2186,-8.2186,-8.2186,-8.2186,-8.2186,-8.2186,-8.2186,-8.2186,-8.2186,-8.2186,-8.2186,-8.2186,-8.2186,-8.2186,-8.2186,-8.1405,-8.0032,-5.517,-5.5317,-5.6051,-5.7997,0.0,0.0,-6.2984,-6.572,-6.7589,-6.8013,-7.2475,-7.6096,-7.5469,-7.5909,-7.6166,-7.5689,-7.5763,-7.6203,-7.7194,-7.7329,-7.7268,-7.7316,-7.6741,-7.7561,-8.0529,-7.8688,-7.7291,-7.7327,-7.8233,-7.9764,-8.2095,-8.2215,-8.2186,-8.2186,-8.2186,-8.3104,-8.508,-8.4756,-8.5233,-8.6518,-8.6518,-8.6077,-8.5306,-8.5306,-8.4866,-8.4058,-8.3618,-8.3214,-8.292,-8.292,-8.2627,-8.2186,-8.2186,-8.2186,-8.2186,-8.2186,-8.2186,-8.2186,-8.2186,-8.2186,-8.2186,-8.2186,-8.2186,-8.2186,-8.2186,-8.2443,-8.281,-8.3287,-8.4242,-8.5306,-8.6261,-8.5894,-8.5086,-8.4278,-8.3471,-8.2774,-8.2296,-8.2186,-8.2186,-8.2186,-8.2186,-8.2186,-8.2186,-8.2186,-8.2186,-8.2186,-8.2186,-8.2186,-8.2186,-8.2186,-8.2186,-8.2186,-8.2186,-8.2186,-8.2186,-8.2186,-8.2186,-8.2186,-8.2186,-8.2186,-8.2186,-8.2186,-8.2186,-8.2186,-8.2186,-8.2186,-8.2186,-8.2186,-8.2186,-8.2186,-8.1542,-8.0107,-5.473,-5.506,-5.6235,-5.829,-5.7336,0.0,-6.4861,-6.3313,-6.1215,-6.438,-6.9551,-7.3529,-7.3392,-7.3832,-7.4184,-7.4001,-7.5551,-7.6898,-7.7231,-7.7304,-7.7304,-7.7304,-7.7341,-7.8431,-8.1328,-7.9301,-7.7708,-7.7327,-7.7327,-7.8746,-8.2022,-8.2215,-8.2186,-8.2186,-8.2186,-8.2957,-8.4572,-8.4609,-8.5013,-8.5783,-8.5783,-8.5306,-8.4462,-8.4462,-8.4022,-8.3287,-8.3287,-8.2884,-8.2186,-8.2186,-8.2186,-8.2186,-8.2186,-8.2186,-8.2186,-8.2186,-8.2186,-8.2186,-8.2186,-8.2186,-8.2186,-8.2186,-8.2186,-8.2186,-8.2186,-8.27,-8.3324,-8.3508,-8.4499,-8.56,-8.5857,-8.5196,-8.4315,-8.3691,-8.2847,-8.2186,-8.2186,-8.2186,-8.2186,-8.2186,-8.2186,-8.2186,-8.2186,-8.2186,-8.2186,-8.2186,-8.2186,-8.2186,-8.2186,-8.2186,-8.2186,-8.2186,-8.2186,-8.2186,-8.2186,-8.2186,-8.2186,-8.2186,-8.2186,-8.2186,-8.2186,-8.2186,-8.2186,-8.2186,-8.2186,-8.2186,-8.2186,-8.2186,-8.2121,-8.2018,-8.2018,-8.0911,-5.5317,-5.5464,-5.6528,-5.6345,-5.6932,0.0,-5.8731,-5.9375,-6.0451,-6.2792,-6.4288,-6.4912,-6.4071,-6.7305,-6.9669,-6.8348,-7.1081,-7.4368,-7.6985,-7.7316,-7.7292,-7.7304,-7.7316,-7.7573,-7.821,-8.0099,-8.011,-7.7463,-7.7302,-7.8757,-8.2022,-8.2215,-8.2186,-8.2186,-8.2186,-8.2957,-8.4572,-8.4609,-8.5013,-8.5783,-8.5783,-8.5049,-8.3654,-8.3654,-8.3214,-8.2443,-8.2443,-8.2333,-8.2186,-8.2186,-8.2186,-8.2186,-8.2186,-8.2186,-8.2186,-8.2186,-8.2186,-8.2186,-8.2186,-8.2186,-8.2186,-8.2186,-8.2186,-8.2186,-8.2186,-8.2296,-8.27,-8.4022,-8.4132,-8.4315,-8.6261,-8.5233,-8.3765,-8.4242,-8.3251,-8.2186,-8.2186,-8.2186,-8.2186,-8.2186,-8.2186,-8.2186,-8.2186,-8.2186,-8.2186,-8.2186,-8.2186,-8.2186,-8.2186,-8.2186,-8.2186,-8.2186,-8.2186,-8.2186,-8.2186,-8.2186,-8.2186,-8.2186,-8.2186,-8.2186,-8.2186,-8.2186,-8.2186,-8.2186,-8.2186,-8.2186,-8.2186,-8.2186,-8.1782,-8.0911,-8.0911,-7.9691,-5.55,-5.4987,-5.5684,-5.6088,-5.6198,0.0,0.0,-5.7474,-5.7501,-6.1239,-5.9907,-5.8687,-6.0777,-6.4103,-6.6366,-6.5962,-6.7579,-7.0564,-7.5437,-7.6751,-7.7341,-7.7316,-7.7291,-7.7327,-7.7327,-7.8772,-7.9055,-7.7451,-7.7302,-7.872,-8.2012,-8.2206,-8.2215,-8.2186,-8.2186,-8.2957,-8.4572,-8.4205,-8.4425,-8.5196,-8.4792,-8.3985,-8.281,-8.281,-8.259,-8.2186,-8.2186,-8.2186,-8.2186,-8.2186,-8.2186,-8.2186,-8.2186,-8.2186,-8.2186,-8.2186,-8.2186,-8.2186,-8.2186,-8.2186,-8.2186,-8.2186,-8.2186,-8.2186,-8.2186,-8.2774,-8.3471,-8.3911,-8.4278,-8.4792,-8.56,-8.4609,-8.3508,-8.3911,-8.3067,-8.2186,-8.2186,-8.2186,-8.2186,-8.2186,-8.2186,-8.2186,-8.2186,-8.2186,-8.2186,-8.2186,-8.2186,-8.2186,-8.2186,-8.2186,-8.2186,-8.2186,-8.2186,-8.2186,-8.2186,-8.2186,-8.2186,-8.2186,-8.2186,-8.2186,-8.2186,-8.2186,-8.2186,-8.2186,-8.1647,-8.1405,-8.1405,-8.084,-8.0911,-8.1405,-8.084,-7.9691,-5.6748,-5.5794,-5.6198,-5.6859,-5.6418,-5.6345,0.0,0.0,0.0,-5.8848,-5.6394,-5.4809,-5.9127,-6.1459,-6.2842,-6.3356,-6.4197,-6.6829,0.0,-7.3529,0.0,-7.7867,-7.7708,-7.7291,-7.7327,-7.6191,-7.6252,-7.8075,-7.7683,-7.8736,-8.2039,-8.2196,-8.2178,-8.2186,-8.2186,-8.292,-8.4462,-8.3801,-8.3838,-8.4609,-8.3801,-8.2994,-8.2186,-8.2186,-8.2186,-8.2186,-8.2186,-8.2186,-8.2186,-8.2186,-8.2186,-8.2186,-8.2186,-8.2186,-8.2186,-8.2186,-8.2186,-8.2186,-8.2186,-8.2186,-8.2186,-8.2186,-8.2186,-8.2186,-8.2186,-8.3104,-8.4022,-8.3544,-8.4352,-8.527,-8.4903,-8.4132,-8.3471,-8.3618,-8.292,-8.2186,-8.2186,-8.2186,-8.2186,-8.2186,-8.2186,-8.2186,-8.2186,-8.2186,-8.2186,-8.2186,-8.2186,-8.2186,-8.2186,-8.2186,-8.2186,-8.2186,-8.2186,-8.2186,-8.2186,-8.2186,-8.2186,-8.2186,-8.2186,-8.2186,-8.2186,-8.2018,-8.1782,-8.1542,-8.0768,-8.0292,-8.0292,-7.938,-7.988,-8.1542,-8.0695,-7.9727,-6.1227,-6.0786,-6.1227,-5.8547,-5.9318,-5.9575,-5.506,0.0,-5.5647,-5.4393,0.0,-5.4715,-5.5089,0.0,0.0,-5.6785,-6.0261,-6.4338,-6.7975,-6.369,-6.5532,-7.9912,-7.9098,-7.7292,-7.7275,-7.2138,-7.235,-8.0982,-7.8933,-7.8749,-8.1985,-8.2206,-8.2178,-8.2186,-8.2186,-8.2774,-8.3881,-8.3801,-8.4022,-8.4609,-8.3801,-8.2994,-8.2186,-8.2186,-8.2186,-8.2186,-8.2186,-8.2186,-8.2186,-8.2186,-8.2186,-8.2186,-8.2186,-8.2186,-8.2186,-8.2186,-8.2186,-8.2186,-8.2186,-8.2186,-8.2186,-8.2186,-8.2186,-8.2186,-8.2186,-8.2333,-8.259,-8.3251,-8.3544,-8.3985,-8.5306,-8.4535,-8.3581,-8.4278,-8.3287,-8.2186,-8.2186,-8.2186,-8.2186,-8.2186,-8.2186,-8.2186,-8.2186,-8.2186,-8.2186,-8.2186,-8.2186,-8.2186,-8.2186,-8.2186,-8.2186,-8.2186,-8.2186,-8.2186,-8.2186,-8.2186,-8.2186,-8.2186,-8.2186,-8.2186,-8.2186,-8.1336,-8.0366,-7.938,-7.9222,-7.9143,-7.9143,-7.9063,-7.9143,-7.938,-7.9222,-7.8577,-6.2254,-6.2658,-6.3466,-6.0199,-6.0493,-6.0346,-5.5647,-5.4546,-5.4442,-5.3995,0.0,0.0,0.0,0.0,0.0,0.0,-5.7042,-5.9406,0.0,0.0,-6.0537,0.0,0.0,0.0,-7.3986,-7.249,-7.3663,-7.9669,-8.0124,-8.0221,-8.0378,-8.148,-8.2178,-8.2186,-8.2186,-8.2737,-8.3808,-8.3214,-8.3434,-8.4572,-8.3324,-8.2517,-8.2186,-8.2186,-8.2186,-8.2186,-8.2186,-8.2186,-8.2186,-8.2186,-8.2186,-8.2186,-8.2186,-8.2186,-8.2186,-8.2186,-8.2186,-8.2186,-8.2186,-8.2186,-8.2186,-8.2186,-8.2186,-8.2186,-8.2186,-8.2517,-8.2884,-8.2737,-8.303,-8.3581,-8.4242,-8.3544,-8.292,-8.3728,-8.303,-8.2186,-8.2186,-8.2186,-8.2186,-8.2186,-8.2186,-8.2186,-8.2186,-8.2186,-8.2186,-8.2186,-8.2186,-8.2186,-8.2186,-8.2186,-8.2186,-8.2186,-8.2186,-8.2186,-8.2186,-8.2186,-8.2186,-8.2186,-8.2186,-8.1952,-8.1299,-8.084,-8.0107,-7.8983,-7.8328,-7.7992,-7.7992,-7.7424,-7.7105,-7.7105,-7.7736,-7.7736,-6.4604,-6.4934,-6.5338,-6.141,-6.0676,-5.9905,-5.5868,-5.4063,-5.3433,-5.4252,-5.4099,0.0,0.0,0.0,-5.4179,-5.5097,0.0,-5.5295,0.0,-5.7434,0.0,0.0,0.0,0.0,0.0,-7.0751,-7.2459,-7.6619,-7.8278,-7.9224,-7.9407,-8.1149,-8.2206,-8.2215,-8.2186,-8.2884,-8.4211,-8.2884,-8.2994,-8.4572,-8.2957,-8.2186,-8.2186,-8.2186,-8.2186,-8.2186,-8.2186,-8.2186,-8.2186,-8.2186,-8.2186,-8.2186,-8.2186,-8.2186,-8.2186,-8.2186,-8.2186,-8.2186,-8.2186,-8.2186,-8.2186,-8.2186,-8.2186,-8.2186,-8.2186,-8.2627,-8.2957,-8.237,-8.2774,-8.3398,-8.3398,-8.2994,-8.27,-8.3287,-8.281,-8.2186,-8.2186,-8.2186,-8.2186,-8.2186,-8.2186,-8.2186,-8.2186,-8.2186,-8.2186,-8.2186,-8.2186,-8.2186,-8.2186,-8.2186,-8.2186,-8.2186,-8.2186,-8.2186,-8.2186,-8.2186,-8.2186,-8.2186,-8.2186,-8.1542,-8.0218,-8.0182,-7.9536,-7.8161,-7.7248,-7.6837,-7.6837,-7.6114,-7.5709,-7.5709,-7.6508,-7.6837,-6.9963,-6.8715,-6.743,-6.1814,-5.9832,-5.8253,-5.4216,-5.3266,-5.3425,-5.4246,-5.5001,-5.5533,-5.5574,-5.5537,-5.528,-5.4546,-5.3749,0.0,0.0,0.0,0.0,0.0,0.0,0.0,0.0,-6.4567,-6.5783,0.0,-7.1821,-7.3995,-8.0177,-8.1644,-8.2223,-8.2206,-8.2215,-8.3177,-8.53,-8.3214,-8.2994,-8.4572,-8.2957,-8.2186,-8.2186,-8.2186,-8.2186,-8.2186,-8.2186,-8.2186,-8.2186,-8.2186,-8.2186,-8.2186,-8.2186,-8.2186,-8.2186,-8.2186,-8.2186,-8.2186,-8.2186,-8.2186,-8.2186,-8.2186,-8.2186,-8.2186,-8.2186,-8.2223,-8.2223,-8.2186,-8.2774,-8.3398,-8.3398,-8.3398,-8.3398,-8.3398,-8.281,-8.2186,-8.2186,-8.2186,-8.2186,-8.2186,-8.2186,-8.2186,-8.2186,-8.2186,-8.2186,-8.2186,-8.2186,-8.2186,-8.2186,-8.2186,-8.2186,-8.2186,-8.2186,-8.2186,-8.2186,-8.2186,-8.2186,-8.2186,-8.2186,-8.123,-7.9143,-7.9063,-7.7992,-7.5865,-7.5771,-7.5771,-7.5771,-7.5709,-7.5709,-7.5709,-7.5709,-7.5771,-7.1872,-7.2863,-7.2863,-6.6109,-6.4237,-6.2548,-5.6895,-5.597,-5.586,-5.3983,-5.6043,-5.7822,-5.6397,-5.5397,-5.473,-5.4436,-5.3732,0.0,0.0,0.0,0.0,0.0,0.0,0.0,0.0,0.0,0.0,0.0,-7.2731,0.0,-7.9316,-8.0571,-8.148,-8.2215,-8.2186,-8.328,-8.5374,-8.3317,-8.2994,-8.4572,-8.2957,-8.2186,-8.2186,-8.2186,-8.2186,-8.2186,-8.2186,-8.2186,-8.2186,-8.2186,-8.2186,-8.2186,-8.2186,-8.2186,-8.2186,-8.2186,-8.2186,-8.2186,-8.2186,-8.2186,-8.2186,-8.2186,-8.2186,-8.2186,-8.2186,-8.2186,-8.2186,-8.2186,-8.2406,-8.2627,-8.2627,-8.2627,-8.2627,-8.2627,-8.2406,-8.2186,-8.2186,-8.2186,-8.2186,-8.2186,-8.2186,-8.2186,-8.2186,-8.2186,-8.2186,-8.2186,-8.2186,-8.2186,-8.2186,-8.2186,-8.2186,-8.2186,-8.2186,-8.2186,-8.2186,-8.2186,-8.2186,-8.2186,-8.2186,-8.123,-7.9063,-7.8983,-7.7907,-7.5771,-7.5709,-7.5709,-7.5709,-7.5709,-7.5709,-7.5709,-7.5709,-7.5709,-7.4661,-7.5322,-7.4992,-6.8898,-6.7136,-6.5448,-5.9795,-5.7967,-5.6937,-5.5249,-5.7418,-5.9538,-5.9333,-5.707,-5.5537,-5.6381,0.0,0.0,0.0,-5.1935,0.0,0.0,0.0,0.0,0.0,0.0,0.0,0.0,0.0,0.0,0.0,-8.0039,-8.0727,-8.1599,-8.2003,-8.303,-8.4792,-8.3464,-8.339,-8.4572,-8.2957,-8.2186,-8.2186,-8.2186,-8.2186,-8.2186,-8.2186,-8.2186,-8.2186,-8.2186,-8.2186,-8.2186,-8.2186,-8.2186,-8.2186,-8.2186,-8.2186,-8.2186,-8.2186,-8.2186,-8.2186,-8.2186,-8.2186,-8.2186,-8.2186,-8.2186,-8.2186,-8.2186,-8.2186,-8.2186,-8.2186,-8.2186,-8.2186,-8.2186,-8.2186,-8.2186,-8.2186,-8.2186,-8.2186,-8.2186,-8.2186,-8.2186,-8.2186,-8.2186,-8.2186,-8.2186,-8.2186,-8.2186,-8.2186,-8.2186,-8.2186,-8.2186,-8.2186,-8.2186,-8.2186,-8.2186,-8.2186,-8.2186,-8.2186,-8.123,-7.9063,-7.8983,-7.7907,-7.5771,-7.5709,-7.5709,-7.5709,-7.5709,-7.5709,-7.5709,-7.5709,-7.5709]},{"header":{"parameterUnit":"m.s-1","parameterCategory":1,"la1":30.6,"la2":29.2853,"lo1":-89.7004,"lo2":-87.6739,"dx":0.0162,"dy":0.0183,"nx":112,"ny":82,"refTime":"2022-11-05T00:00:00:Z","depth":0,"parameterNumber":3,"parameterNumberName":"V-component_of_WINDS"},"data":[0.0,0.0,0.0,0.0,0.0,0.0,0.0,0.0,0.0,0.0,0.0,0.0,0.0,0.0,0.0,0.0,0.0,0.0,0.0,0.0,0.0,0.0,0.0,0.0,0.0,0.0,0.0,0.0,0.0,0.0,0.0,0.0,0.0,0.0,0.0,0.0,0.0,0.0,0.0,0.0,0.0,0.0,0.0,0.0,0.0,0.0,0.0,0.0,0.0,0.0,0.0,0.0,0.0,0.0,0.0,0.0,0.0,0.0,0.0,0.0,0.0,0.0,0.0,0.0,0.0,0.0,0.0,0.0,0.0,0.0,0.0,0.0,0.0,0.0,0.0,0.0,0.0,0.0,0.0,0.0,0.0,0.0,0.0,0.0,0.0,0.0,0.0,0.0,0.0,0.0,2.8058,3.0322,3.3636,3.5827,3.6303,3.6702,3.5655,3.2692,0.0,0.0,0.0,0.0,0.0,0.0,0.0,0.0,0.0,0.0,0.0,0.0,0.0,0.0,0.0,0.0,0.0,0.0,0.0,0.0,0.0,0.0,0.0,0.0,0.0,0.0,0.0,0.0,0.0,0.0,0.0,0.0,0.0,0.0,0.0,0.0,0.0,0.0,0.0,0.0,0.0,0.0,0.0,0.0,0.0,0.0,0.0,0.0,0.0,0.0,0.0,0.0,0.0,0.0,0.0,0.0,0.0,0.0,0.0,0.0,0.0,0.0,0.0,0.0,0.0,0.0,0.0,0.0,0.0,0.0,0.0,0.0,0.0,0.0,0.0,0.0,0.0,0.0,0.0,0.0,0.0,0.0,0.0,0.0,0.0,0.0,0.0,0.0,0.0,0.0,0.0,0.0,0.0,0.0,0.0,0.0,0.0,0.0,0.0,0.0,0.0,0.0,0.0,0.0,2.8878,3.2116,3.4054,3.5023,3.4785,3.553,3.5283,3.3734,0.0,0.0,0.0,0.0,0.0,0.0,0.0,0.0,0.0,0.0,0.0,0.0,0.0,0.0,0.0,0.0,0.0,0.0,0.0,0.0,0.0,0.0,0.0,0.0,0.0,0.0,0.0,0.0,0.0,0.0,0.0,0.0,0.0,0.0,0.0,0.0,0.0,0.0,0.0,0.0,0.0,0.0,0.0,0.0,0.0,0.0,0.0,0.0,0.0,0.0,0.0,0.0,0.0,0.0,0.0,0.0,0.0,0.0,0.0,0.0,0.0,0.0,0.0,0.0,0.0,0.0,0.0,0.0,0.0,0.0,0.0,0.0,0.0,0.0,0.0,0.0,0.0,0.0,0.0,0.0,0.0,0.0,0.0,0.0,0.0,0.0,0.0,0.0,0.0,0.0,0.0,0.0,0.0,0.0,0.0,0.0,0.0,0.0,0.0,0.0,0.0,0.0,0.0,2.7848,3.0344,3.2588,3.3906,3.4425,3.3661,3.4432,3.407,3.1899,3.0097,0.0,0.0,0.0,0.0,0.0,0.0,0.0,0.0,0.0,0.0,0.0,0.0,0.0,0.0,0.0,0.0,0.0,0.0,0.0,0.0,0.0,0.0,0.0,0.0,0.0,0.0,0.0,0.0,0.0,0.0,0.0,0.0,0.0,0.0,0.0,0.0,0.0,0.0,0.0,0.0,0.0,0.0,0.0,0.0,0.0,0.0,0.0,0.0,0.0,0.0,0.0,0.0,0.0,0.0,0.0,0.0,0.0,0.0,0.0,0.0,0.0,0.0,0.0,0.0,0.0,0.0,0.0,0.0,0.0,0.0,0.0,0.0,0.0,0.0,0.0,0.0,0.0,0.0,0.0,0.0,0.0,0.0,0.0,0.0,0.0,0.0,0.0,0.0,0.0,0.0,0.0,0.0,0.0,0.0,0.0,0.0,0.0,0.0,0.0,0.0,0.0,0.0,3.0377,3.1879,3.2894,3.3801,3.3947,3.3161,3.372,3.3038,3.0398,2.887,0.0,0.0,0.0,0.0,0.0,0.0,0.0,0.0,0.0,0.0,0.0,0.0,0.0,0.0,0.0,0.0,0.0,0.0,0.0,0.0,0.0,0.0,0.0,0.0,0.0,0.0,0.0,0.0,0.0,0.0,0.0,0.0,0.0,0.0,0.0,0.0,0.0,0.0,0.0,0.0,0.0,0.0,0.0,0.0,0.0,0.0,0.0,0.0,0.0,0.0,0.0,0.0,0.0,0.0,0.0,0.0,0.0,0.0,0.0,0.0,0.0,0.0,0.0,0.0,0.0,0.0,0.0,0.0,0.0,0.0,0.0,0.0,0.0,0.0,0.0,0.0,0.0,0.0,0.0,0.0,0.0,0.0,0.0,0.0,0.0,0.0,0.0,0.0,0.0,0.0,0.0,0.0,0.0,0.0,0.0,0.0,0.0,0.0,0.0,0.0,0.0,0.0,3.1388,3.3223,3.3347,3.3828,3.3983,3.3696,3.3571,3.2742,3.0957,2.8544,0.0,0.0,0.0,0.0,0.0,0.0,0.0,0.0,0.0,0.0,0.0,0.0,0.0,0.0,0.0,0.0,0.0,0.0,0.0,0.0,0.0,0.0,0.0,0.0,0.0,0.0,0.0,0.0,0.0,0.0,0.0,0.0,0.0,0.0,0.0,0.0,0.0,0.0,0.0,0.0,0.0,0.0,0.0,0.0,0.0,0.0,0.0,0.0,0.0,0.0,0.0,0.0,0.0,0.0,0.0,0.0,0.0,0.0,0.0,0.0,0.0,0.0,0.0,0.0,0.0,0.0,0.0,0.0,0.0,0.0,0.0,0.0,0.0,0.0,0.0,0.0,0.0,0.0,0.0,0.0,0.0,0.0,0.0,0.0,0.0,0.0,0.0,0.0,0.0,0.0,0.0,0.0,0.0,0.0,0.0,0.0,0.0,0.0,0.0,0.0,0.0,0.0,3.0983,3.2891,3.3691,3.3936,3.3934,3.3596,3.3035,3.1741,2.9394,0.0,0.0,0.0,0.0,0.0,0.0,0.0,0.0,0.0,0.0,0.0,0.0,0.0,0.0,0.0,0.0,0.0,0.0,0.0,0.0,0.0,0.0,0.0,0.0,0.0,0.0,0.0,0.0,0.0,0.0,0.0,0.0,0.0,0.0,0.0,0.0,0.0,0.0,0.0,0.0,0.0,0.0,0.0,0.0,0.0,0.0,0.0,0.0,0.0,0.0,0.0,0.0,0.0,0.0,0.0,0.0,0.0,0.0,0.0,0.0,0.0,0.0,0.0,0.0,0.0,0.0,0.0,0.0,0.0,0.0,0.0,0.0,0.0,0.0,0.0,0.0,0.0,0.0,0.0,0.0,0.0,0.0,0.0,0.0,0.0,0.0,0.0,0.0,0.0,0.0,0.0,0.0,0.0,0.0,0.0,0.0,0.0,0.0,0.0,0.0,0.0,0.0,2.8163,3.1185,3.335,3.4264,3.4453,3.4199,3.3476,3.3027,3.1367,2.8086,0.0,0.0,0.0,0.0,0.0,0.0,0.0,0.0,0.0,0.0,0.0,0.0,0.0,0.0,0.0,0.0,0.0,0.0,0.0,0.0,0.0,0.0,0.0,0.0,0.0,0.0,0.0,0.0,0.0,0.0,0.0,0.0,0.0,0.0,0.0,0.0,0.0,0.0,0.0,0.0,0.0,0.0,0.0,0.0,0.0,0.0,0.0,0.0,0.0,0.0,0.0,0.0,0.0,0.0,0.0,0.0,0.0,0.0,0.0,0.0,0.0,0.0,0.0,0.0,0.0,0.0,0.0,0.0,0.0,0.0,0.0,0.0,0.0,0.0,0.0,0.0,0.0,0.0,0.0,0.0,0.0,0.0,0.0,0.0,0.0,0.0,0.0,0.0,0.0,0.0,0.0,0.0,0.0,0.0,0.0,0.0,0.0,0.0,0.0,0.0,0.0,0.0,2.8723,3.2353,3.4696,3.4726,3.5117,3.4863,3.3555,3.3828,3.207,0.0,0.0,0.0,0.0,0.0,0.0,0.0,0.0,0.0,0.0,0.0,0.0,0.0,0.0,0.0,0.0,0.0,0.0,0.0,0.0,0.0,0.0,0.0,0.0,0.0,0.0,0.0,0.0,0.0,0.0,0.0,0.0,0.0,0.0,0.0,0.0,0.0,0.0,0.0,0.0,0.0,0.0,0.0,0.0,0.0,0.0,0.0,0.0,0.0,0.0,0.0,0.0,0.0,0.0,0.0,0.0,0.0,0.0,0.0,0.0,0.0,0.0,0.0,0.0,0.0,0.0,0.0,0.0,0.0,0.0,0.0,0.0,0.0,0.0,0.0,0.0,0.0,0.0,0.0,0.0,0.0,0.0,0.0,0.0,0.0,0.0,0.0,0.0,0.0,0.0,0.0,0.0,0.0,0.0,0.0,0.0,0.0,0.0,0.0,0.0,0.0,0.0,0.0,2.9173,3.2748,3.5239,3.5215,3.5566,3.5566,3.4863,3.4355,3.2578,2.9043,0.0,0.0,0.0,0.0,0.0,0.0,0.0,0.0,0.0,0.0,0.0,0.0,0.0,0.0,0.0,0.0,0.0,0.0,0.0,0.0,0.0,0.0,0.0,0.0,0.0,0.0,0.0,0.0,0.0,0.0,0.0,0.0,0.0,0.0,0.0,0.0,0.0,0.0,0.0,0.0,0.0,0.0,0.0,0.0,0.0,0.0,0.0,0.0,0.0,0.0,0.0,0.0,0.0,0.0,0.0,0.0,0.0,0.0,0.0,0.0,0.0,0.0,0.0,0.0,0.0,0.0,0.0,0.0,0.0,0.0,0.0,0.0,0.0,0.0,0.0,0.0,0.0,0.0,0.0,0.0,0.0,0.0,0.0,0.0,0.0,0.0,0.0,0.0,0.0,0.0,0.0,0.0,0.0,0.0,0.0,0.0,0.0,0.0,0.0,0.0,0.0,0.0,2.9617,3.3196,3.5588,3.5664,3.5879,3.5859,3.543,3.4902,3.332,3.0293,0.0,0.0,0.0,0.0,0.0,0.0,0.0,0.0,0.0,0.0,0.0,0.0,0.0,0.0,0.0,0.0,0.0,0.0,0.0,0.0,0.0,0.0,0.0,0.0,0.0,0.0,0.0,0.0,0.0,0.0,0.0,0.0,0.0,0.0,0.0,0.0,0.0,0.0,0.0,0.0,0.0,0.0,0.0,0.0,0.0,0.0,0.0,0.0,0.0,0.0,0.0,0.0,0.0,0.0,0.0,0.0,0.0,0.0,0.0,0.0,0.0,0.0,0.0,0.0,0.0,0.0,0.0,0.0,0.0,0.0,0.0,0.0,0.0,0.0,0.0,0.0,0.0,0.0,0.0,0.0,0.0,0.0,0.0,0.0,0.0,0.0,0.0,0.0,0.0,0.0,0.0,0.0,0.0,0.0,0.0,0.0,0.0,0.0,0.0,0.0,0.0,0.0,2.9897,3.3628,3.6016,3.6016,3.6016,3.5859,3.5488,3.541,3.416,3.125,0.0,0.0,0.0,0.0,0.0,0.0,0.0,0.0,0.0,0.0,0.0,0.0,0.0,0.0,0.0,0.0,0.0,0.0,0.0,0.0,0.0,0.0,0.0,0.0,0.0,0.0,0.0,0.0,0.0,0.0,0.0,0.0,0.0,0.0,0.0,0.0,0.0,0.0,0.0,0.0,0.0,0.0,0.0,0.0,0.0,0.0,0.0,0.0,0.0,0.0,0.0,0.0,0.0,0.0,0.0,0.0,0.0,0.0,0.0,0.0,2.4187,2.2888,0.0,0.0,0.0,0.0,0.0,0.0,0.0,0.0,0.0,0.0,0.0,0.0,0.0,0.0,0.0,0.0,0.0,0.0,0.0,0.0,0.0,0.0,0.0,0.0,0.0,0.0,0.0,0.0,0.0,0.0,0.0,0.0,0.0,0.0,0.0,0.0,0.0,0.0,0.0,0.0,2.993,3.3622,3.6016,3.6016,3.6016,3.5996,3.5898,3.5586,3.4531,3.2519,3.0918,0.0,0.0,0.0,0.0,0.0,0.0,0.0,0.0,0.0,0.0,0.0,0.0,0.0,0.0,0.0,0.0,0.0,0.0,0.0,0.0,0.0,0.0,0.0,0.0,0.0,0.0,0.0,0.0,0.0,0.0,0.0,0.0,0.0,0.0,0.0,0.0,0.0,0.0,0.0,0.0,0.0,0.0,0.0,0.0,0.0,0.0,0.0,0.0,0.0,0.0,0.0,0.0,0.0,0.0,0.0,0.0,0.0,0.0,0.0,2.7913,2.6584,0.0,0.0,0.0,0.0,0.0,0.0,0.0,0.0,0.0,0.0,0.0,0.0,0.0,0.0,0.0,0.0,0.0,0.0,0.0,0.0,0.0,0.0,0.0,0.0,0.0,0.0,0.0,0.0,0.0,0.0,0.0,0.0,0.0,0.0,0.0,0.0,0.0,0.0,0.0,0.0,3.0277,3.375,3.6016,3.6016,3.6016,3.6016,3.6016,3.582,3.5215,3.4121,3.2441,0.0,0.0,0.0,0.0,0.0,0.0,0.0,0.0,0.0,0.0,0.0,0.0,0.0,0.0,0.0,0.0,0.0,0.0,0.0,0.0,0.0,0.0,0.0,0.0,0.0,0.0,0.0,0.0,0.0,0.0,0.0,0.0,0.0,0.0,0.0,0.0,0.0,0.0,0.0,0.0,0.0,0.0,0.0,0.0,0.0,0.0,0.0,0.0,0.0,0.0,0.0,0.0,0.0,3.0519,3.1456,3.2851,3.291,3.3535,3.4434,3.1558,3.0457,3.0736,2.8352,0.0,0.0,0.0,0.0,0.0,0.0,0.0,0.0,0.0,0.0,0.0,0.0,0.0,0.0,0.0,0.0,0.0,0.0,0.0,0.0,0.0,0.0,3.0787,3.1625,3.2639,3.2748,3.0554,0.0,0.0,0.0,0.0,0.0,0.0,0.0,0.0,0.0,0.0,0.0,3.1132,3.4082,3.6016,3.6016,3.6016,3.6016,3.6016,3.6016,3.5879,3.5527,3.3828,3.2187,0.0,0.0,0.0,0.0,0.0,0.0,0.0,0.0,0.0,0.0,0.0,0.0,0.0,0.0,0.0,0.0,0.0,0.0,0.0,0.0,0.0,0.0,0.0,0.0,0.0,0.0,0.0,0.0,0.0,0.0,0.0,0.0,2.428,2.5997,0.0,0.0,0.0,0.0,0.0,0.0,0.0,0.0,0.0,0.0,0.0,0.0,0.0,3.095,3.1488,3.2585,3.327,3.3475,3.4599,3.5315,3.5527,3.5898,3.6172,3.6328,3.6269,0.0,3.3444,3.1518,0.0,0.0,0.0,0.0,0.0,0.0,0.0,0.0,0.0,0.0,0.0,0.0,0.0,0.0,0.0,0.0,0.0,0.0,0.0,0.0,0.0,0.0,3.4755,3.5277,3.5471,3.5433,3.5205,3.2097,2.9195,2.8478,2.7722,2.6583,0.0,0.0,0.0,0.0,0.0,0.0,3.2719,3.4805,3.6016,3.6016,3.6016,3.6016,3.6016,3.6016,3.5996,3.5937,3.5664,3.459,3.2539,3.123,0.0,0.0,0.0,0.0,0.0,0.0,0.0,0.0,0.0,0.0,0.0,0.0,0.0,0.0,0.0,0.0,0.0,0.0,0.0,0.0,0.0,0.0,0.0,0.0,0.0,0.0,0.0,0.0,0.0,2.3453,2.5649,2.7314,2.8002,2.7882,0.0,0.0,0.0,0.0,0.0,0.0,0.0,0.0,0.0,3.2123,3.268,3.3516,3.4687,3.5254,3.5644,3.5898,3.6465,3.6738,3.6738,3.6934,3.7031,3.7031,3.7226,3.6758,3.5801,3.3953,3.2661,3.1521,0.0,0.0,0.0,0.0,2.7213,2.7347,3.0306,3.1073,3.0672,3.0936,0.0,0.0,0.0,0.0,0.0,0.0,0.0,3.1815,3.3492,3.4226,3.4986,3.6107,3.621,3.6016,3.6016,3.4755,3.3127,3.1432,3.0371,2.9012,2.6249,2.6789,0.0,0.0,0.0,3.2282,3.3572,3.5508,3.6738,3.6738,3.6738,3.6641,3.6406,3.6387,3.6289,3.6035,3.6016,3.5488,3.4297,3.2773,3.1265,0.0,0.0,0.0,0.0,0.0,0.0,0.0,0.0,0.0,0.0,0.0,0.0,0.0,0.0,0.0,0.0,0.0,0.0,0.0,0.0,0.0,0.0,0.0,0.0,0.0,0.0,0.0,0.0,2.557,2.733,2.9246,3.0959,3.0873,0.0,0.0,0.0,0.0,0.0,0.0,3.1095,3.2363,3.3691,3.4863,3.4902,3.5527,3.6816,3.6836,3.6992,3.7305,3.7305,3.7305,3.7305,3.7402,3.7461,3.7461,3.7578,3.7559,3.7344,3.5937,3.4863,3.3836,3.1872,3.0642,3.0214,3.0642,3.0587,3.0709,3.3785,3.4531,3.4219,3.4023,3.373,3.3164,3.1543,0.0,0.0,0.0,0.0,3.376,3.4873,3.4932,3.5064,3.6182,3.621,3.6016,3.6016,3.623,3.5918,3.4203,3.3243,3.1815,2.8919,2.9645,0.0,2.8977,3.1502,3.3891,3.4809,3.6309,3.7305,3.7305,3.7305,3.7168,3.6855,3.6738,3.6543,3.6211,3.6074,3.5879,3.5566,3.4199,3.3164,3.2428,0.0,0.0,0.0,0.0,0.0,0.0,0.0,0.0,0.0,0.0,0.0,0.0,0.0,0.0,0.0,0.0,0.0,0.0,0.0,0.0,0.0,0.0,0.0,0.0,0.0,0.0,0.0,0.0,0.0,3.2815,3.4004,0.0,0.0,0.0,0.0,3.1847,3.2747,3.3583,3.4381,3.5371,3.623,3.7109,3.7129,3.7168,3.7266,3.7266,3.7266,3.7305,3.7305,3.7305,3.7305,3.7715,3.7891,3.791,3.834,3.8281,3.7851,3.7363,3.666,3.584,3.5237,3.4537,3.3836,3.4245,3.4381,3.4576,3.6074,3.6523,3.6562,3.6953,3.625,3.5234,3.5137,3.4277,0.0,0.0,3.5215,3.5488,3.6307,3.6641,3.6484,3.6113,3.6016,3.6016,3.6016,3.6016,3.6087,3.647,3.6486,3.584,3.4059,0.0,3.3354,3.3712,3.3975,3.4751,3.6875,3.7226,3.7305,3.7305,3.7305,3.7285,3.7266,3.6894,3.666,3.6641,3.625,3.6016,3.5996,3.5527,3.4453,3.2858,3.1936,0.0,0.0,0.0,0.0,0.0,0.0,0.0,0.0,0.0,0.0,0.0,0.0,0.0,0.0,0.0,0.0,0.0,0.0,0.0,0.0,0.0,0.0,0.0,0.0,0.0,0.0,0.0,0.0,3.1672,3.3762,0.0,3.2949,3.3672,3.4238,3.4238,3.5273,3.6055,3.6348,3.668,3.6992,3.7285,3.7305,3.7422,3.7695,3.7695,3.7851,3.8125,3.8125,3.8125,3.8125,3.8281,3.834,3.8359,3.8516,3.7709,3.6348,3.62,3.6417,3.6836,3.668,3.6426,3.6172,3.6309,3.6367,3.6445,3.6914,3.707,3.7051,3.6934,3.6582,3.6211,3.6211,3.6074,3.6133,3.7148,3.7637,3.793,3.8262,3.8092,3.7704,3.6953,3.6622,3.6386,3.6035,3.6405,3.6897,3.7355,3.677,3.5665,3.3904,3.4467,3.4707,3.3787,3.512,3.6426,3.7207,3.7773,3.8125,3.8125,3.8125,3.8008,3.7734,3.7324,3.6953,3.668,3.6269,3.6016,3.6016,3.5879,3.5644,3.5293,3.5,3.2812,0.0,0.0,0.0,0.0,0.0,0.0,0.0,0.0,0.0,0.0,0.0,0.0,0.0,0.0,0.0,0.0,0.0,0.0,0.0,0.0,0.0,0.0,0.0,0.0,0.0,3.0799,3.2331,3.219,3.4452,3.541,3.3828,3.5098,3.6035,3.6035,3.6953,3.75,3.75,3.7656,3.7734,3.7734,3.7734,3.7871,3.8144,3.8144,3.8359,3.8789,3.8789,3.8867,3.9023,3.9023,3.9023,3.9023,3.9023,3.7781,3.5894,3.5827,3.5925,3.5921,3.5536,3.5443,3.5425,3.5277,3.5669,3.6417,3.7158,3.75,3.7461,3.7187,3.709,3.709,3.709,3.7383,3.7851,3.8418,3.8769,3.8965,3.8809,3.8485,3.824,3.7543,3.7035,3.6777,3.6561,3.7132,3.7692,3.7764,3.7112,3.6321,3.5395,3.5812,3.5973,3.4671,3.622,3.75,3.75,3.8262,3.8789,3.8789,3.8789,3.8613,3.8184,3.75,3.7031,3.6894,3.6348,3.6016,3.6016,3.5742,3.5644,3.5801,3.5801,3.3965,3.0215,0.0,0.0,0.0,0.0,0.0,0.0,0.0,0.0,0.0,0.0,0.0,0.0,0.0,0.0,0.0,0.0,0.0,0.0,0.0,0.0,0.0,0.0,0.0,3.1647,3.2313,3.314,3.4615,3.6269,3.6816,3.5566,3.6582,3.7324,3.7324,3.7715,3.7949,3.7949,3.8359,3.8594,3.8594,3.8613,3.8613,3.8613,3.8613,3.8828,3.9219,3.9219,3.9453,3.9902,3.9732,3.9732,3.9902,3.9883,3.8614,3.6498,3.649,3.5237,3.3159,3.2241,3.1844,3.1794,3.1416,3.2441,3.4559,3.7057,3.7806,3.7949,3.7949,3.793,3.793,3.793,3.8223,3.8574,3.8613,3.8633,3.8535,3.8125,3.7988,3.7871,3.7441,3.7272,3.7365,3.7365,3.7951,3.8363,3.7549,3.7632,3.8001,3.8535,3.7864,3.71,3.6777,3.7402,0.0,3.793,3.8672,3.9199,3.916,3.918,3.9004,3.8594,3.7402,3.6875,3.7285,3.6523,3.6055,3.6055,3.5234,3.459,3.418,3.4101,3.3633,3.2793,0.0,0.0,0.0,0.0,0.0,0.0,0.0,0.0,0.0,0.0,0.0,0.0,0.0,0.0,0.0,0.0,0.0,0.0,0.0,0.0,0.0,3.0125,3.2168,3.3345,3.47,3.5703,3.6133,3.6816,3.7168,3.6816,3.7363,3.7754,3.7754,3.8144,3.8398,3.8398,3.8809,3.9023,3.9023,3.9355,3.9531,3.9531,3.9531,3.959,3.9707,3.8122,3.8197,3.9732,3.6569,3.6895,3.9732,3.8157,3.6354,3.4452,3.4433,3.2275,2.9297,3.1983,3.2797,3.2621,3.2307,3.322,3.5012,3.6182,3.744,3.8398,3.8398,3.8184,3.793,3.793,3.8223,3.8711,3.9355,3.9746,3.9961,3.9844,3.959,3.916,3.8398,3.8027,3.7669,3.7306,3.7671,3.8135,3.8288,3.8406,3.8234,3.7806,3.7455,3.7324,3.7148,3.7578,3.793,3.793,3.8672,3.8965,3.834,3.8555,3.8574,3.8144,3.75,3.7305,3.7734,3.7246,3.6953,3.6953,3.6719,3.6523,3.6406,3.4551,3.334,0.0,0.0,0.0,0.0,0.0,0.0,0.0,0.0,0.0,0.0,0.0,0.0,0.0,0.0,0.0,0.0,0.0,0.0,0.0,0.0,0.0,0.0,3.0771,3.29,3.4948,3.6035,3.6738,3.6914,3.7305,3.7559,3.7559,3.7949,3.8262,3.8437,3.8691,3.8926,3.9121,3.9355,3.9492,3.9492,3.8803,3.8937,3.9902,3.8937,3.9032,4.0156,3.7921,3.7704,3.8971,3.5467,3.5309,3.7696,3.6428,3.4632,3.2742,3.2646,3.0641,2.7946,0.0,0.0,0.0,0.0,3.3112,3.4338,3.6478,3.7754,3.8301,3.8301,3.8125,3.793,3.793,3.8223,3.8691,3.9199,3.9512,3.9707,3.9707,3.9531,3.9219,3.8691,3.837,3.8166,3.7962,3.8166,3.8526,3.8638,3.8689,0.0,3.7961,3.791,3.7715,3.7344,3.7812,3.8125,3.7949,3.8848,3.9297,3.8809,3.9141,3.9219,3.8789,3.8184,0.0,0.0,0.0,3.7324,3.6777,3.6601,0.0,0.0,0.0,3.4297,3.4414,3.3164,0.0,0.0,3.0781,3.0215,0.0,0.0,0.0,0.0,0.0,0.0,0.0,0.0,0.0,0.0,0.0,0.0,0.0,0.0,0.0,0.0,3.061,3.2607,3.6023,3.6638,3.6953,3.7324,3.7695,3.7969,3.8066,3.8418,3.8828,3.9258,3.9277,3.9453,3.9883,3.9941,0.0,0.0,0.0,3.7656,3.9717,3.7484,3.7513,3.9797,3.7704,3.6922,3.7419,3.4975,3.4164,3.4651,3.4489,3.327,3.1332,3.1447,3.0122,2.8096,2.7503,2.7105,2.7216,3.0531,3.1896,3.2657,3.6701,0.0,0.0,3.7981,3.8086,3.8008,3.8047,3.8379,3.873,3.8789,3.8828,3.8867,3.8867,3.8828,3.8789,3.8789,3.8837,3.8779,3.8711,3.9082,3.9141,3.8769,3.9043,3.916,3.8789,3.8652,3.832,3.7559,3.8086,3.8437,3.8047,3.9101,3.9863,3.9766,4.0176,0.0,3.9863,3.9101,3.8672,3.8711,3.832,3.7559,3.6426,3.5918,3.5684,3.5684,3.5625,3.5976,3.6738,3.6738,3.6738,3.666,3.3164,3.2344,0.0,0.0,0.0,0.0,0.0,0.0,0.0,0.0,0.0,0.0,0.0,0.0,0.0,0.0,0.0,3.0717,3.2767,3.4498,3.4612,3.6428,3.7715,3.7793,3.7871,3.8203,3.8887,3.9023,3.9277,3.9726,3.9766,3.9805,3.9883,4.0215,4.041,4.041,3.8632,3.7837,3.8328,3.6216,3.5291,3.584,3.3579,0.0,3.5137,3.1241,3.1407,3.4651,3.2858,3.1869,3.1417,3.1371,3.0122,2.8083,2.7535,2.6985,2.6545,2.7286,2.8686,3.0438,3.363,3.5457,3.6736,3.8778,3.9023,3.8516,3.8848,3.9277,0.0,4.0059,4.041,4.0664,4.0664,4.041,4.0117,4.0171,3.986,3.9719,3.968,3.9648,3.9707,3.9712,3.9674,3.9726,3.9648,3.9043,3.8516,3.8359,3.8476,3.8555,3.8457,3.9297,3.9629,3.8906,3.9551,3.9824,3.9375,3.918,3.9238,3.9609,3.9199,3.8848,3.8594,3.7851,3.7441,3.7441,3.7109,3.7012,3.7168,3.7168,3.7168,3.7148,3.6055,3.5723,0.0,0.0,0.0,0.0,0.0,0.0,0.0,0.0,0.0,0.0,0.0,3.042,2.9926,0.0,3.1105,3.0087,3.1259,3.2894,3.4412,3.5869,3.6948,3.7806,3.8301,3.873,3.916,3.9414,3.9726,4.0176,4.0215,4.0312,4.0527,4.0742,4.084,4.084,3.7964,3.6762,3.7896,3.4651,3.3676,3.4651,3.2546,3.2052,3.2858,2.9607,2.9453,3.1407,3.026,2.9841,2.985,2.985,2.9133,2.811,2.7816,2.7402,2.6921,2.7624,2.8518,2.9819,3.2495,3.4452,3.5912,3.6372,3.7708,3.8798,3.8103,3.8801,3.9955,4.0082,4.0374,4.051,4.0566,4.0371,3.9965,3.8728,3.8441,3.8269,3.831,3.8307,3.8613,3.9736,3.9961,3.9902,3.9902,3.9531,3.9238,3.9238,3.9238,3.9238,3.9238,3.9629,3.9805,3.957,3.9941,4.0195,4.0195,3.998,3.9961,4.0195,3.9805,3.9551,3.9551,3.8926,3.8555,3.8555,3.8144,3.7832,3.7617,3.7617,3.7617,3.7598,3.7402,3.707,0.0,0.0,0.0,0.0,0.0,0.0,0.0,2.5923,2.7491,3.096,3.2551,3.3001,3.1726,3.1465,3.0916,2.9258,2.9219,3.0484,3.3438,3.4854,3.6017,3.746,3.8476,3.9238,3.9336,3.9746,4.0195,4.0625,4.0644,4.0801,4.1152,4.1172,4.1016,4.0529,3.6762,3.5332,3.6707,3.2803,3.1692,3.3556,3.1753,3.0905,3.0846,2.9047,2.823,2.823,2.8257,2.8399,2.8332,2.8332,2.8332,2.8345,2.8207,2.7901,2.7633,2.8599,2.9137,2.9552,3.1842,3.3509,3.4623,3.4396,3.6053,3.8104,3.757,3.8387,3.9503,3.9949,4.0085,4.0199,4.0195,4.0137,3.9546,3.7366,3.6801,3.6813,3.634,3.6272,3.6827,3.9051,3.9509,3.9661,4.0137,4.0137,4.0098,3.9922,3.9902,3.9902,3.9902,3.9961,4.0176,4.0605,4.0644,4.0781,4.1152,4.0859,4.0644,4.0644,4.0254,4.0019,4.0019,3.957,3.9336,3.9336,3.9004,3.8652,3.8301,3.8301,3.8301,3.8301,3.8301,3.7812,2.3033,2.4111,2.5547,2.5877,2.7288,2.8824,0.0,3.1391,3.2744,3.3332,3.551,3.6837,3.5061,3.3668,3.2098,3.0136,2.9867,2.9919,3.0037,3.3213,3.5772,3.6267,3.8063,3.9355,3.9785,4.0195,4.0625,4.1074,4.1094,4.1113,4.1172,4.1172,4.0353,3.839,3.596,3.3984,3.2479,3.0029,2.9186,2.9617,2.9444,2.9136,2.8893,2.8722,2.8551,2.8564,2.8843,2.8866,2.8906,2.8906,2.8906,2.8819,2.8315,2.808,2.8165,2.7946,2.8071,2.8605,3.0733,3.1722,3.2551,3.6069,3.5884,3.5083,3.8858,3.8915,3.8135,4.0453,4.1055,4.1055,4.1035,4.1035,4.0434,3.8353,3.7778,3.7162,3.5254,3.488,3.5536,3.777,3.8086,3.8734,4.0705,4.1035,4.0781,4.0019,3.9902,3.9902,3.9902,4.0215,4.0625,4.1055,4.1094,4.1113,4.1172,4.1133,4.1094,4.1094,4.0684,4.0449,4.0449,4.0039,3.9824,3.9824,3.9766,3.9726,3.9668,3.9668,3.9668,3.9668,3.9668,3.9004,2.4957,2.5239,2.5665,2.5622,2.6446,2.7475,2.8656,2.9601,3.0661,3.2261,3.3691,3.4116,3.2691,3.1842,3.0688,2.8655,2.8193,2.8488,2.9591,3.1105,3.278,3.4401,3.5572,3.7195,3.993,4.0644,4.0976,4.1172,4.1172,4.1289,4.1523,4.0224,3.9166,3.8581,3.5113,3.2861,3.2169,2.9852,2.8925,2.9045,2.9045,2.8978,2.8858,2.8858,2.8858,2.8858,2.8911,2.9017,2.9041,2.9041,2.9071,2.9232,2.9112,2.8902,2.8791,2.7769,2.7662,2.811,2.9118,3.0346,3.145,3.2176,3.317,3.4625,3.6506,3.7365,3.819,4.055,4.1172,4.1172,4.1172,4.1172,4.0569,3.8502,3.6973,3.5737,3.4892,3.3758,3.3758,3.7224,3.7896,3.8548,4.0841,4.1172,4.1055,4.0684,4.0644,4.0644,4.0644,4.0566,4.0684,4.1133,4.1621,4.1699,4.1211,4.1172,4.0569,3.9037,3.8695,3.8713,3.8937,3.8564,3.8993,4.0254,4.0019,3.9902,3.9902,3.9902,3.9902,3.9902,3.9902,3.9609,2.5838,2.6167,2.635,2.6129,2.6819,2.7705,2.8471,2.8888,2.9672,3.1414,3.2107,3.1952,3.062,3.0186,2.9588,2.7784,2.7188,2.7445,2.9094,2.9659,3.0657,3.2586,3.3481,3.5271,3.8595,3.9675,4.0567,4.1328,4.1348,4.1523,4.1953,3.9801,3.8436,3.8065,3.4382,3.2082,3.1512,2.9996,2.9205,2.9285,2.9285,2.9245,2.9165,2.9165,2.9165,2.9165,2.9245,2.9285,2.9285,2.9285,2.9336,2.9528,2.9515,2.9582,2.9398,2.8234,2.7919,2.831,2.843,2.9533,3.0637,2.9884,3.1124,3.3281,3.4423,3.5859,3.7453,3.9694,4.0744,4.1172,4.1172,4.1172,4.0432,3.7674,3.5897,3.444,3.3127,3.1705,3.1781,3.6086,3.7082,3.7896,4.0685,4.1172,4.1172,4.1172,4.1172,4.1172,4.1172,4.1094,4.1133,4.1328,4.2109,4.2266,4.1426,4.0859,3.9531,3.7656,3.6833,3.6641,3.7082,3.6658,3.7324,3.8925,3.9279,3.9127,3.8494,3.9605,3.993,3.928,3.993,4.0254,2.4836,2.6546,2.8477,2.8462,3.0442,3.2222,3.1694,3.2041,3.2205,3.1877,3.209,3.2106,3.062,3.0166,2.9486,2.8298,2.7629,2.7348,2.7794,2.9172,3.0525,3.1016,3.2825,3.4255,3.4764,3.6762,3.903,4.158,4.1777,4.1973,4.2383,4.0228,3.8047,3.5875,3.3537,3.1354,2.9636,2.9472,2.9619,2.9887,2.9887,2.974,2.9472,2.9472,2.9472,2.9486,2.9766,2.9887,2.9887,2.9887,2.99,2.9913,2.9528,2.9488,2.9462,2.9065,2.9176,2.939,2.938,2.973,3.0123,3.1642,3.0736,2.9783,3.3529,3.4764,3.5194,3.7467,3.9523,4.1172,4.1172,4.1172,4.0178,3.5782,3.4813,3.3512,2.9272,2.8305,2.9607,3.4002,3.4813,3.6121,4.0509,4.1172,4.1172,4.1172,4.1172,4.1172,4.1172,4.1875,4.2207,4.1816,4.2539,4.2715,4.1855,3.9794,3.8453,3.7896,3.5943,3.4813,3.4813,3.4813,3.4797,3.4797,3.6904,3.6887,3.4942,3.9179,3.9983,3.8018,4.0158,4.1133,2.5745,2.6248,2.6906,2.7114,2.7763,2.8345,2.8244,2.8302,2.8345,2.8244,2.8475,2.8661,2.8298,2.8298,2.8139,2.8197,2.7655,2.7442,2.7923,2.9678,3.0869,3.1198,3.1884,3.3547,3.6585,3.6121,3.6276,3.7305,3.8813,3.9931,4.0435,3.8452,3.6879,3.6451,3.2703,3.0356,2.9766,2.9766,2.982,2.9913,2.9913,2.986,2.9766,2.9766,2.9766,2.978,2.9873,2.9913,2.9913,2.9913,2.9913,2.9913,2.9721,2.9721,2.9721,2.9707,2.974,2.9689,2.9623,2.9676,2.9873,3.0369,2.9743,2.9542,3.2282,3.2949,3.3255,3.5711,3.6911,3.7732,3.933,3.8579,3.7453,3.7612,3.52,3.2669,3.1306,2.9727,3.0069,3.4532,3.5361,3.6843,4.1177,4.2012,4.2012,4.2012,4.1523,4.1172,4.1172,4.1914,4.2266,4.1836,4.2812,4.2403,3.9515,3.8828,3.7003,3.3692,3.2694,3.2474,3.269,3.2705,3.3423,3.4651,3.546,3.546,3.4651,3.6121,3.6442,3.5782,3.6602,3.7578,2.6226,2.6172,2.6052,2.6453,2.6466,2.6386,2.6386,2.6386,2.6386,2.6386,2.6533,2.672,2.6921,2.7121,2.7455,2.8043,2.7923,2.7909,2.839,3.0165,3.1287,3.1392,3.2052,3.3724,3.6633,3.5663,3.5652,3.7497,3.9032,4.021,4.1027,3.8838,3.7419,3.683,3.3204,3.0781,2.9913,2.9913,2.9913,2.9913,2.9913,2.9913,2.9913,2.9913,2.9913,2.9913,2.9913,2.9913,2.9913,2.9913,2.9913,2.9913,2.9913,2.9913,2.9913,2.9913,2.9913,2.986,2.9689,2.9797,2.9913,2.9528,2.9502,2.9495,3.0838,3.1563,3.2513,3.3991,3.4867,3.5853,3.7292,3.6638,3.5668,3.6428,3.433,3.2134,3.1282,3.0045,3.0045,3.3707,3.455,3.5891,4.0409,4.2056,4.2656,4.2656,4.2324,4.1973,4.166,4.209,4.2324,4.2051,4.2754,4.1886,3.8362,3.7809,3.5706,3.1586,3.0701,3.0537,3.0723,3.0623,3.1307,3.2582,3.3265,3.3186,3.2381,3.4002,3.4327,3.3512,3.4327,3.5782,2.6279,2.6226,2.6132,2.668,2.66,2.6386,2.6386,2.6386,2.6386,2.6386,2.6386,2.6386,2.6386,2.6867,2.7455,2.803,2.8377,2.8684,2.8978,3.0581,3.1736,3.1602,3.3365,3.4979,3.5639,3.5525,3.7352,4.2101,4.23,4.2651,4.3322,4.1453,3.9225,3.6658,3.4591,3.2351,2.9913,2.9913,2.9913,2.9913,2.9913,2.9913,2.9913,2.9913,2.9913,2.9913,2.9913,2.9913,2.9913,2.9913,2.9913,2.9913,2.9913,2.9913,2.9913,2.9953,2.9953,2.9953,2.9953,2.9953,2.9953,2.9568,2.9761,2.9753,2.9199,3.0643,3.2577,3.2176,3.3635,3.5311,3.5326,3.53,3.4737,3.2895,3.2322,3.1597,2.942,2.9085,2.9754,3.1925,3.2423,3.3938,3.8153,4.1166,4.2981,4.3001,4.3516,4.3457,4.2578,4.248,4.2461,4.2402,4.2441,4.1265,3.8491,3.6669,3.4574,3.1762,3.0065,2.9058,2.9058,2.8804,2.8644,2.8631,3.0294,3.0289,2.8163,3.2397,3.3349,3.1227,3.3365,3.5494,2.6881,2.6827,2.664,2.6787,2.66,2.6386,2.6386,2.6386,2.6386,2.6386,2.6386,2.6386,2.6386,2.6867,2.7388,2.7749,2.807,2.8364,2.8671,3.0254,3.2144,3.3692,3.4556,3.6405,3.9794,3.8924,3.9595,4.2709,4.1367,3.9902,3.8698,3.9734,3.8374,3.4417,3.3731,3.2351,2.9913,2.9913,2.9913,2.9913,2.9913,2.9913,2.9913,2.9913,2.9913,2.9913,2.9913,2.9913,2.9913,2.9913,2.9913,2.9913,2.9913,2.9913,2.9967,3.0199,3.0358,3.0358,3.0568,3.0371,3.0358,3.0371,3.0358,3.0292,3.0013,3.024,3.0532,3.0532,3.0932,3.1761,3.3426,3.2626,3.1671,3.2819,3.1699,3.0383,2.9864,2.97,3.0383,3.2617,3.4501,3.6117,3.743,3.9813,4.1542,4.1836,4.3386,4.4258,4.3066,4.3183,4.3008,4.207,4.2519,4.0971,3.6004,3.5692,3.4013,2.9935,2.9542,2.9366,2.9366,2.9299,2.9152,2.8938,2.9131,2.8982,2.8484,2.9397,2.9621,2.8964,2.986,3.1278,2.7228,2.7054,2.6694,2.6947,2.6707,2.636,2.6226,2.6199,2.6159,2.6026,2.5905,2.5772,2.5638,2.6306,2.6934,2.7094,2.7816,2.8404,2.8577,3.0254,3.2054,3.3053,3.5292,3.7717,4.0395,4.079,4.1531,4.332,4.1118,3.9324,3.8357,3.8545,3.7175,3.3556,3.3395,3.2351,2.9913,2.9913,2.998,3.0114,2.998,2.998,3.01,2.998,2.9913,2.9913,2.9913,2.9993,3.0114,3.0154,3.0221,3.0301,3.0301,3.0301,3.0341,3.0464,3.0584,3.0597,3.0929,3.0969,3.0783,3.0716,3.0756,3.0703,3.0452,3.0381,3.0312,2.9927,2.9913,3.0133,3.1553,3.0932,3.0312,3.1553,3.0932,2.9913,2.9913,2.9913,3.0258,3.1657,3.3731,3.5352,3.5541,3.7758,3.9966,4.1257,4.2839,4.3918,4.3896,4.3789,4.3281,4.2187,4.2344,4.0471,3.5204,3.5312,3.3722,2.9206,2.9446,2.9673,2.9673,2.9553,2.9406,2.9245,2.8951,2.8804,2.8804,2.8617,2.8537,2.8537,2.8711,2.9954,2.7362,2.7081,2.6613,2.7094,2.68,2.6319,2.6079,2.5985,2.5865,2.5571,2.5277,2.4983,2.469,2.5531,2.6293,2.6373,2.7535,2.8457,2.8537,3.0184,3.1401,3.1497,3.5195,3.8057,3.8776,4.1203,4.279,4.2806,4.062,3.9378,3.9885,3.7861,3.5793,3.338,3.3043,3.1997,2.9913,2.9913,3.0047,3.0301,3.0034,3.0047,3.0287,3.0034,2.9913,2.9913,2.9953,3.01,3.0314,3.0461,3.0608,3.0742,3.0782,3.0795,3.0795,3.0835,3.0849,3.0889,3.1183,3.1289,3.1316,3.0949,3.1002,3.1086,3.0544,3.0617,3.06,3.0133,2.9913,2.9913,2.9913,2.9913,2.9913,2.9913,2.9913,2.9913,2.9913,2.9913,2.9913,2.9913,3.1479,3.2896,3.2984,3.5566,3.8114,4.0351,4.1427,4.2651,4.4243,4.4188,4.3535,4.2617,4.181,3.956,3.5075,3.4965,3.3337,2.9206,2.9553,2.9873,2.9913,2.9673,2.9539,2.9539,2.9245,2.9098,2.9098,2.9058,2.9045,2.9045,2.9085,3.0101,2.7281,2.7228,2.7081,2.6934,2.664,2.6373,2.6319,2.6132,2.5865,2.5571,2.5277,2.4983,2.469,2.5197,2.5825,2.6306,2.7014,2.7669,2.815,2.8555,2.9593,3.1446,3.2769,3.4461,3.6475,3.9228,4.0018,3.8203,3.7622,3.728,3.7347,3.7003,3.5793,3.338,3.1479,3.0258,2.9913,2.9913,2.994,2.9993,2.994,2.994,2.9993,2.994,2.9913,2.9927,3.0181,3.0167,3.0034,3.0528,3.0621,3.0461,3.0702,3.0795,3.0822,3.1062,3.1156,3.1196,3.149,3.1597,3.1597,3.1637,3.1301,3.1223,3.0889,3.0608,3.0341,3.0007,2.9913,2.9913,2.9913,2.9913,2.9913,2.9913,2.9913,2.9913,2.9913,2.9913,2.9913,2.9913,3.0272,3.0587,3.109,3.3387,3.5242,3.6159,3.7922,3.9813,4.1713,4.3652,4.4316,4.3105,4.1046,3.8472,3.5458,3.3557,3.1417,2.9192,2.9366,2.9673,2.99,2.9873,2.9847,2.9847,2.9553,2.9406,2.9406,2.9165,2.9045,2.9045,2.9285,2.9568,2.7188,2.7041,2.6814,2.6814,2.66,2.6266,2.5812,2.5478,2.5104,2.4502,2.4142,2.3888,2.3741,2.4449,2.5197,2.5638,2.6453,2.7241,2.7829,2.7909,2.8574,3.0029,3.1534,3.3041,3.4377,3.6941,3.8032,3.683,3.562,3.5114,3.5114,3.3892,3.269,3.1657,3.0437,2.9913,2.9913,2.9913,2.9993,3.014,2.9993,2.9993,3.014,2.998,3.0007,3.0154,3.0341,3.0488,3.0621,3.0849,3.0982,3.1049,3.1196,3.1249,3.1263,3.141,3.145,3.1476,3.1623,3.1664,3.1664,3.1664,3.1463,3.1169,3.0875,3.0621,3.0354,3.0007,2.9913,2.9913,2.9913,2.9913,2.9913,2.9913,2.9913,2.9913,2.9913,2.9913,2.9913,2.9913,2.9913,3.0007,3.0287,3.1469,3.2971,3.4364,3.5804,3.7353,3.9111,4.1333,4.2875,4.302,4.0857,3.8371,3.5659,3.3475,3.1468,2.9434,2.9553,2.9766,2.9913,2.9913,2.9913,2.9913,2.978,2.9713,2.9713,2.9566,2.9499,2.9499,2.9646,2.9633,2.6974,2.6787,2.652,2.6694,2.656,2.6172,2.5358,2.4943,2.4462,2.3514,2.314,2.2939,2.2873,2.3728,2.4609,2.509,2.6052,2.6961,2.7602,2.7749,2.8016,2.8631,3.0581,3.1885,3.228,3.461,3.5793,3.5273,3.3731,3.269,3.269,3.0959,2.9913,2.9913,2.9913,2.9913,2.9913,2.9913,3.0034,3.0261,3.0034,3.0034,3.0261,3.002,3.0087,3.0394,3.0501,3.0768,3.1129,3.1196,3.1343,3.1557,3.1637,3.1664,3.1664,3.1664,3.1664,3.1664,3.1664,3.1664,3.1664,3.1664,3.1423,3.1089,3.0862,3.0541,3.0221,2.998,2.9913,2.9913,2.9913,2.9913,2.9913,2.9913,2.9913,2.9913,2.9913,2.9913,2.9913,2.9913,2.9913,2.994,3.0007,3.0394,3.1354,3.3125,3.3641,3.4638,3.6387,3.818,3.9983,4.1579,4.0566,3.8671,3.6041,3.3847,3.1801,2.9649,2.9633,2.978,2.9913,2.986,2.9847,2.9913,2.9913,2.9913,2.9913,2.9913,2.9913,2.9913,2.9847,2.97,2.6533,2.6627,2.672,2.6493,2.6413,2.6226,2.5611,2.5251,2.4716,2.3567,2.33,2.3193,2.2913,2.3407,2.4209,2.5291,2.6012,2.672,2.7575,2.7936,2.8323,2.8925,2.9192,2.9596,3.0163,3.2337,3.2867,3.0602,3.0258,3.0258,3.0258,3.0093,2.9913,2.9913,2.9913,2.9913,2.9913,2.9913,2.9927,2.9953,2.9927,2.9927,2.9953,2.9927,3.0114,3.0488,3.0675,3.0795,3.0875,3.1396,3.1436,3.1369,3.153,3.1664,3.1664,3.1664,3.1664,3.1664,3.1664,3.1664,3.1664,3.1664,3.1289,3.0822,3.0795,3.0408,2.9953,2.9927,2.9913,2.9913,2.9913,2.9913,2.9913,2.9913,2.9913,2.9913,2.9913,2.9913,2.9913,2.9913,2.9913,3.0007,3.0274,3.0368,3.0657,3.1069,3.0934,3.1652,3.3873,3.4135,3.4956,3.7125,3.8856,3.8795,3.6592,3.3956,3.157,2.9636,2.9259,2.9366,2.99,2.9659,2.9646,2.9913,2.9913,2.9913,2.9913,2.9913,2.9913,2.9913,2.9646,2.9513,2.6373,2.6466,2.6533,2.6413,2.6266,2.5932,2.5157,2.4623,2.3955,2.2766,2.2659,2.2686,2.2392,2.2979,2.3768,2.4596,2.4917,2.5438,2.6507,2.6907,2.7442,2.839,2.8818,2.9272,2.986,3.0781,3.0959,2.9913,2.9913,2.9913,2.9913,2.9913,2.9913,2.9913,2.9913,2.9913,2.9913,2.9913,2.9913,2.9913,2.9913,2.9913,2.9927,3.0154,3.0408,3.0688,3.0942,3.1156,3.1343,3.157,3.1583,3.1463,3.161,3.1664,3.1664,3.1664,3.1664,3.1664,3.1664,3.1664,3.1664,3.1664,3.1276,3.0795,3.0795,3.0381,2.9913,2.9913,2.9913,2.9913,2.9913,2.9913,2.9913,2.9913,2.9913,2.9913,2.9913,2.9913,2.9913,2.9913,2.9913,2.9953,3.0074,3.0247,3.0341,3.0274,3.0314,3.065,3.1332,3.2601,3.3731,3.4591,3.5492,3.5585,3.4737,3.2383,3.0654,2.974,2.9633,2.9673,2.99,2.998,2.998,2.9913,3.01,3.01,2.9913,2.9913,2.982,2.9659,2.9539,2.9299,2.6199,2.6319,2.6386,2.6386,2.6172,2.5732,2.4836,2.4249,2.3554,2.2365,2.2338,2.2458,2.2164,2.2846,2.3621,2.4128,2.4422,2.497,2.6066,2.6466,2.7054,2.815,2.8724,2.9232,2.974,2.986,2.9913,2.9913,2.9913,2.9913,2.9913,2.9913,2.9913,2.9913,2.9913,2.9913,2.9913,2.9913,2.9913,2.9913,2.9913,2.9913,2.9927,3.0314,3.0595,3.0808,3.1102,3.1396,3.1664,3.1664,3.1664,3.1664,3.1664,3.1664,3.1664,3.1664,3.1664,3.1664,3.1664,3.1664,3.1664,3.1664,3.133,3.0902,3.0822,3.0381,2.9913,2.9913,2.9913,2.9913,2.9913,2.9913,2.9913,2.9913,2.9913,2.9913,2.9913,2.9913,2.9913,2.9913,2.9913,2.9913,2.9913,3.0087,3.0154,2.9953,3.01,3.0154,2.994,3.1301,3.2351,3.2351,3.2351,3.269,3.3395,3.182,3.0616,2.9913,2.9833,2.982,2.9913,3.0114,3.0167,3.0047,3.0247,3.0261,3.0047,2.9873,2.9686,2.9486,2.9299,2.9005,2.5959,2.6172,2.6386,2.6386,2.6172,2.5732,2.4836,2.4409,2.3861,2.2659,2.2645,2.2766,2.2472,2.3153,2.3861,2.4155,2.493,2.5812,2.6694,2.7068,2.7589,2.8497,2.8858,2.9152,2.9459,2.9753,2.9913,2.9913,2.9913,2.9913,2.9913,2.9913,2.9913,2.9913,2.9913,2.9913,2.9913,2.9913,2.9913,2.9913,2.9913,2.9913,2.9927,3.0314,3.0595,3.0808,3.1102,3.1396,3.1664,3.1664,3.1664,3.1664,3.1664,3.1664,3.1664,3.1664,3.1664,3.1664,3.1664,3.1664,3.1664,3.1664,3.1463,3.1169,3.0875,3.0381,2.9913,2.9913,2.9913,2.9913,2.9913,2.9913,2.9913,2.9913,2.9913,2.9913,2.9913,2.9913,2.9913,2.9913,2.9913,2.9913,2.9913,2.9913,2.9913,2.9913,2.9913,2.9913,2.9913,2.9913,2.9913,2.9913,2.9913,3.0959,3.3219,3.3395,3.2351,3.0093,2.9646,2.9619,2.99,2.9913,3.006,3.0354,3.0354,3.0354,3.0354,2.9766,2.9486,2.9472,2.8885,2.8617,2.5304,2.5424,2.5491,2.5491,2.5277,2.493,2.4449,2.4115,2.3688,2.2886,2.2792,2.2832,2.2739,2.2953,2.3447,2.4356,2.4569,2.5064,2.6346,2.6774,2.7215,2.7909,2.8791,2.9459,2.9753,2.986,2.9913,2.9913,2.9913,2.9913,2.9913,2.9913,2.9913,2.9913,2.9913,2.9913,2.9913,2.9913,2.9913,2.9913,2.9913,3.0047,3.0314,3.0517,3.077,3.1102,3.1396,3.1583,3.1664,3.1664,3.1664,3.1664,3.1664,3.1664,3.1664,3.1664,3.1664,3.1664,3.1664,3.1664,3.1664,3.1664,3.1463,3.1169,3.0875,3.0528,3.0181,2.9967,2.9913,2.9913,2.9913,2.9913,2.9913,2.9913,2.9913,2.9913,2.9913,2.9913,2.9913,2.9913,2.9913,2.9913,2.9913,2.9913,2.9913,2.9913,2.9913,2.9913,2.9913,2.9913,2.9913,2.9913,2.9913,3.0258,3.0959,3.0959,3.0616,2.9913,2.9833,2.9913,3.0207,3.0408,3.0555,3.0662,3.0662,3.0461,3.006,2.9673,2.9272,2.8871,2.847,2.8283,2.4703,2.5077,2.5237,2.5237,2.4943,2.4556,2.4262,2.3888,2.346,2.2966,2.2859,2.2859,2.2859,2.2953,2.3313,2.4168,2.4249,2.4716,2.6186,2.6547,2.7041,2.8083,2.8965,2.9606,2.9887,2.9913,2.9913,2.9913,2.9913,2.9913,2.9913,2.9913,2.9913,2.9913,2.9913,2.9913,2.9913,2.9913,2.9913,2.9913,3.0034,3.0234,3.0318,3.0743,3.0969,3.1236,3.1543,3.1664,0.0,3.1664,3.1664,3.1664,3.1664,3.1664,3.1664,3.1664,3.1664,3.1664,3.1664,3.1664,3.1664,3.1664,3.1396,3.1022,3.0849,3.0515,3.0154,2.9967,2.9913,2.9913,2.9913,2.9913,2.9913,2.9913,2.9913,2.9913,2.9913,2.9913,2.9913,2.9913,2.9913,2.9913,2.9913,2.9913,2.9913,2.9913,2.9913,2.9913,2.9913,2.9913,2.9913,2.9913,2.9913,2.9913,2.9913,2.9913,2.9913,2.9913,2.9913,2.9993,3.0181,3.0474,3.0635,3.0635,3.0635,3.0448,3.0087,2.9673,2.9232,2.8764,2.8577,2.8537,0.0,2.489,2.5331,2.5358,2.4943,2.4476,2.4209,2.3714,0.0,2.2953,2.2873,2.2873,2.2926,2.3126,2.342,2.3808,2.4088,2.4783,2.6239,2.6493,2.7148,2.8871,2.9299,2.9579,2.9913,2.9927,2.9913,2.9913,2.9913,2.9913,2.9913,2.9913,2.9913,2.9913,2.9913,2.9913,2.9913,2.9913,2.9913,2.9913,3.0221,3.0421,3.0358,3.1009,3.1236,3.1276,3.1557,3.1664,3.1664,3.1664,3.1664,3.1664,3.1664,3.1664,3.1664,3.1664,3.1664,3.1664,3.1664,3.1664,3.1664,3.1637,3.1249,3.0795,3.0768,3.0368,2.9913,2.9913,2.9913,2.9913,2.9913,2.9913,2.9913,2.9913,2.9913,2.9913,2.9913,2.9913,2.9913,2.9913,2.9913,2.9913,2.9913,2.9913,2.9913,2.9913,2.9913,2.9913,2.9913,2.9913,2.9913,2.9913,2.9913,2.9913,2.9913,2.9913,2.9913,2.9913,2.9913,2.9927,2.994,3.0207,3.0368,3.0394,3.0354,3.0314,3.0301,2.9726,2.9325,2.9072,2.9045,2.9205,2.2726,0.0,2.3541,2.3781,2.3741,2.3621,0.0,2.342,2.33,2.3233,2.3033,2.3006,2.3474,2.3233,2.3367,2.4569,2.4823,2.5384,2.6854,2.7455,2.8136,2.9245,2.9245,2.9432,3.0181,3.0047,2.9913,2.9913,2.9913,2.9913,2.9913,2.9913,2.9913,2.9913,2.9913,2.9913,2.9913,2.9913,2.9913,2.9913,3.0221,3.0555,3.0743,3.1129,3.1356,3.157,3.1637,3.1664,3.1664,3.1664,3.1664,3.1664,3.1664,3.1664,3.1664,3.1664,3.1664,3.1664,3.1664,3.1664,3.1637,3.1396,3.1089,3.0755,3.0528,3.0207,2.9913,2.9913,2.9913,2.9913,2.9913,2.9913,2.9913,2.9913,2.9913,2.9913,2.9913,2.9913,2.9913,2.9913,2.9913,2.9913,2.9913,2.9913,2.9913,2.9913,2.9913,2.9913,2.9913,2.9913,2.9913,2.9913,2.9913,2.9913,2.9913,2.9913,2.9913,2.9913,2.9913,3.002,3.0247,3.0327,3.0461,3.0688,3.0247,2.9913,2.9686,2.9325,2.9219,2.9379,2.9152,2.9205,2.1697,2.2539,2.3313,2.3487,2.342,2.3327,2.3327,2.3006,2.2712,2.2712,2.2686,2.2766,2.3086,2.322,2.3581,2.4529,2.501,2.5838,2.7442,2.8417,2.9138,2.9619,2.9659,2.978,3.0127,3.0007,2.9913,2.9913,2.9913,2.9913,2.9913,2.9913,2.9913,2.9913,2.9913,2.9913,2.9913,2.9913,2.9913,2.9927,3.0274,3.0648,3.0876,3.1316,3.1517,3.1664,3.1664,3.1664,3.1664,3.1664,3.1664,3.1664,3.1664,3.1664,3.1664,3.1664,3.1664,3.1664,3.1664,3.1583,3.1436,3.1276,3.0942,3.0568,3.0408,3.0154,2.9913,2.9913,2.9913,2.9913,2.9913,2.9913,2.9913,2.9913,2.9913,2.9913,2.9913,2.9913,2.9913,2.9913,2.9913,2.9913,2.9913,2.9913,2.9913,2.9913,2.9913,2.9913,2.9913,2.9913,2.9913,2.9913,2.9913,2.9913,2.9913,2.9913,2.9913,2.9913,2.9913,2.9993,3.0154,3.0154,3.0234,3.0381,3.0074,2.9847,2.9686,2.9513,2.9593,2.9873,2.9579,2.9606,2.1056,2.2405,2.3674,2.3594,2.3447,2.3313,2.326,2.2672,2.2124,2.2124,2.2311,2.2539,2.2726,2.3313,2.3941,2.4449,2.5237,2.6319,2.7856,2.8978,2.97,2.9833,3.0034,3.0114,2.9993,2.994,2.9913,2.9913,2.9913,2.9913,2.9913,2.9913,2.9913,2.9913,2.9913,2.9913,2.9913,2.9913,2.9913,2.9927,3.0523,3.0886,3.0836,3.1463,3.1664,3.1664,3.1664,3.1664,3.1664,3.1664,3.1664,3.1664,3.1664,3.1664,3.1664,3.1664,3.1664,3.1664,3.1623,3.1436,3.1209,3.1116,3.0755,3.0354,3.0301,3.0114,2.9913,2.9913,2.9913,2.9913,2.9913,2.9913,2.9913,2.9913,2.9913,2.9913,2.9913,2.9913,2.9913,2.9913,2.9913,2.9913,2.9913,2.9913,2.9913,2.9913,2.9913,2.9913,2.9913,2.9913,2.9913,2.9913,2.9913,2.9913,2.9913,2.9913,2.9913,2.9913,2.9913,2.9913,2.9913,2.9913,2.9913,2.9913,2.9913,2.9913,2.9913,2.9913,3.0074,3.0354,3.006,3.0074,2.1203,2.2405,2.3247,2.2752,2.2979,2.326,2.2993,2.2819,2.2726,2.2726,2.2766,2.31,2.4115,2.4008,2.4275,2.5798,2.6587,2.7175,2.7696,2.8136,2.8698,2.9459,2.9366,2.9526,3.0221,3.006,2.9913,2.9913,2.9913,2.9913,2.9913,2.9913,2.9913,2.9913,2.9913,2.9913,2.9913,2.9913,2.9913,2.9927,3.0523,3.0818,3.0849,3.141,3.1664,3.1664,3.1664,3.1664,3.1664,3.1664,3.1664,3.1664,3.1664,3.1664,3.1664,3.1664,3.1664,3.1637,3.1383,3.1263,3.1142,3.0648,3.0434,3.0314,3.006,2.9953,2.9913,2.9913,2.9913,2.9913,2.9913,2.9913,2.9913,2.9913,2.9913,2.9913,2.9913,2.9913,2.9913,2.9913,2.9913,2.9913,2.9913,2.9913,2.9913,2.9913,2.9913,2.9913,2.9913,2.9913,2.9913,2.9913,2.9913,2.9913,2.9913,2.9913,2.9913,2.9913,2.9913,2.9913,2.9913,2.9913,2.9913,2.9913,2.9913,2.9913,2.9913,2.9913,3.0074,3.0354,3.006,3.0074,2.0695,2.1804,2.2752,2.2485,2.3354,2.4195,2.3888,2.3581,2.3313,2.314,2.3247,2.3567,2.4275,2.4449,2.4997,2.66,2.7362,2.7896,2.8364,2.8684,2.9072,2.9646,2.9593,2.9673,3.0074,2.9993,2.9913,2.9913,2.9913,2.9913,2.9913,2.9913,2.9913,2.9913,2.9913,2.9913,2.9913,2.9913,2.9913,2.9927,3.0528,3.0808,3.0808,3.1396,3.1664,3.1664,3.1664,3.1664,3.1664,3.1664,3.1664,3.1664,3.1664,3.1664,3.1664,3.1664,3.1664,3.1623,3.133,3.1129,3.0929,3.0501,3.0247,3.01,2.9953,2.9913,2.9913,2.9913,2.9913,2.9913,2.9913,2.9913,2.9913,2.9913,2.9913,2.9913,2.9913,2.9913,2.9913,2.9913,2.9913,2.9913,2.9913,2.9913,2.9913,2.9913,2.9913,2.9913,2.9913,2.9913,2.9913,2.9913,2.9913,2.9913,2.9913,2.9913,2.9913,2.9913,2.9913,2.9913,2.9913,2.9913,2.9913,2.9913,3.0074,3.0154,3.0154,3.0154,3.0301,3.0581,3.0127,3.0074,2.0481,2.1563,2.2645,2.2712,2.3768,2.4891,2.5226,2.458,2.4071,2.4323,2.4255,2.4289,2.4649,2.5237,2.6012,2.7094,2.7762,2.831,2.8764,2.9018,2.9299,2.9673,2.9713,2.9766,2.99,2.9913,2.9913,2.9913,2.9913,2.9913,2.9913,2.9913,2.9913,2.9913,2.9913,2.9913,2.9913,2.9913,2.9967,3.006,3.0544,3.081,3.0915,3.1436,3.1664,3.1664,3.1664,3.1664,3.1664,3.1664,3.1664,3.1664,3.1664,3.1664,3.1664,3.1664,3.1664,3.1623,3.1249,3.0982,3.0728,3.0368,3.01,2.9913,2.9913,2.9913,2.9913,2.9913,2.9913,2.9913,2.9913,2.9913,2.9913,2.9913,2.9913,2.9913,2.9913,2.9913,2.9913,2.9913,2.9913,2.9913,2.9913,2.9913,2.9913,2.9913,2.9913,2.9913,2.9913,2.9913,2.9913,2.9913,2.9913,2.9913,2.9913,2.9913,2.9913,2.9913,2.9913,2.9913,2.9913,2.9913,2.9913,2.9913,3.014,3.0261,3.0261,3.0261,3.0368,3.0581,3.0127,3.0034,2.1229,2.2338,2.3327,2.3607,2.3768,2.4556,2.6938,2.589,2.5226,2.735,2.6495,2.5558,2.6132,2.6867,2.7525,2.7281,2.7762,2.8163,2.8203,2.823,2.8457,2.9032,2.9098,2.9312,2.986,2.9913,2.9913,2.9913,2.9913,2.9913,2.9913,2.9913,2.9913,2.9913,2.9913,2.9913,2.9913,2.9913,3.01,3.0448,3.0677,3.0916,3.1209,3.153,3.1664,3.1664,3.1664,3.1664,3.1664,3.1664,3.1664,3.1664,3.1664,3.1664,3.1664,3.1664,3.1664,3.1583,3.1022,3.0808,3.0702,3.0127,2.994,2.9913,2.9913,2.9913,2.9913,2.9913,2.9913,2.9913,2.9913,2.9913,2.9913,2.9913,2.9913,2.9913,2.9913,2.9913,2.9913,2.9913,2.9913,2.9913,2.9913,2.9913,2.9913,2.9913,2.9913,2.9913,2.9913,2.9913,2.9913,2.9913,2.9913,2.9913,2.9913,2.9913,2.9913,2.9913,2.9913,2.9913,2.9913,2.9913,2.9913,2.9913,2.994,2.9953,2.9953,2.9953,2.9967,2.998,2.994,2.9927,2.1189,2.2138,2.3113,2.342,2.3901,2.4649,2.6307,2.6334,2.6181,2.7042,2.6711,2.6333,2.6386,2.7228,2.7776,2.7335,2.7762,2.8136,2.8136,2.8136,2.8323,2.899,2.8978,2.9272,2.986,2.9913,2.9913,2.9913,2.9913,2.9913,2.9913,2.9913,2.9913,2.9913,2.9913,2.9913,2.9913,2.9913,3.0167,3.0675,3.0822,3.1009,3.1236,3.153,3.1664,3.1664,3.1664,3.1664,3.1664,3.1664,3.1664,3.1664,3.1664,3.1664,3.165,3.1463,3.1517,3.1557,3.0795,3.0635,3.0688,3.01,2.9913,2.9913,2.9913,2.9913,2.9913,2.9913,2.9913,2.9913,2.9913,2.9913,2.9913,2.9913,3.006,3.0194,3.0194,3.0194,3.0194,3.0194,3.0047,2.9913,2.9913,2.9913,2.9913,2.9913,2.9913,2.9913,2.9913,2.9913,2.9913,2.9913,2.9913,2.9913,2.9913,2.9913,2.9913,2.9913,2.9913,2.9913,2.9913,2.9913,2.9913,2.9913,3.01,3.0194,3.0194,3.0194,3.0194,3.0194,3.0194,3.01,2.155,2.2378,2.334,2.3554,2.4262,2.5117,2.5919,2.64,2.6921,2.7822,2.754,2.6961,2.6707,2.7321,2.7736,2.7335,2.7762,2.8136,2.8136,2.8136,2.8466,2.8896,2.8978,2.915,2.986,2.9913,2.9913,2.9913,2.9913,2.9913,2.9913,2.9913,2.9913,2.9913,2.9913,2.9913,2.9913,3.0034,3.0327,3.0795,3.0889,3.1089,3.137,3.1583,3.1664,3.1664,3.1664,3.1664,3.1664,3.1664,3.1664,3.1664,3.1664,3.161,3.1503,3.1303,3.1303,3.1289,3.0595,3.0488,3.0581,3.0074,2.9913,2.9913,2.9913,2.9913,2.9913,2.9913,2.998,3.0034,2.994,2.9913,2.994,3.0034,3.014,3.0274,3.0461,3.0354,3.0247,3.0341,3.0114,2.9913,2.9913,2.9913,2.9913,2.9913,2.9913,2.9913,2.9913,2.9913,2.9913,2.9913,2.9913,2.9913,2.9913,2.9913,2.9913,2.9913,2.9913,2.9913,2.9913,2.9913,2.9913,2.9913,3.0114,3.0221,3.0221,3.0221,3.0221,3.0221,3.0221,3.0114,2.2498,2.3287,2.4195,2.4209,2.4863,2.5665,2.6266,2.64,2.7264,3.0248,2.8893,2.7317,2.7295,2.7268,2.7268,2.7268,2.7762,2.8136,2.8136,2.8136,2.8466,2.891,2.9085,2.9282,2.9873,2.9913,2.9913,2.9913,2.9913,2.9913,2.9913,2.9913,2.9913,2.9913,2.9913,2.9913,2.9913,3.0301,3.0595,3.0795,3.1089,3.1383,3.1664,3.1664,3.1664,3.1664,3.1664,3.1664,3.1664,3.1664,3.1664,3.1664,3.1664,3.149,3.1223,3.1223,3.1036,3.0755,3.0461,3.0354,3.0314,3.0007,2.9913,2.9913,2.9913,2.9913,2.9913,2.9913,3.0127,3.0287,2.9993,2.9913,2.9993,3.0287,3.014,3.0087,3.0675,3.0341,3.0007,3.0314,3.0127,2.9913,2.9913,2.9913,2.9913,2.9913,2.9913,2.9913,2.9913,2.9913,2.9913,2.9913,2.9913,2.9913,2.9913,2.9913,2.9913,2.9913,2.9913,2.9913,2.9913,2.9913,2.9913,2.9913,2.9913,2.9913,2.9913,2.9913,2.9913,2.9913,2.9913,2.9913,2.2191,2.2993,2.3941,2.4155,2.5024,2.6026,2.6827,2.7001,2.7351,2.8689,2.8479,2.7776,2.7351,2.7649,2.7754,2.7442,2.7835,2.8136,2.8136,2.8136,2.8337,2.8698,2.8685,2.8924,2.9628,2.9535,2.97,2.99,2.9913,2.9913,2.9913,2.9913,2.9913,2.9913,2.9913,2.9913,2.9913,3.0239,3.0584,3.0796,3.1142,3.1383,3.1664,3.1664,3.1664,3.1664,3.1664,3.1664,3.1664,3.1664,3.1664,3.1664,3.1664,3.149,3.1196,3.0996,3.0862,3.0715,3.0221,3.0181,3.0314,3.0007,2.9913,2.9913,2.9913,2.9913,2.9913,2.9913,2.998,3.0034,2.994,3.0074,3.0247,3.0341,3.0448,3.0635,3.1009,3.0795,3.0555,3.0648,3.0261,2.9913,2.9913,2.9913,2.9913,2.9913,2.9913,2.9913,2.9913,2.9913,2.9913,2.9913,2.9913,2.9913,2.9913,2.9913,2.9913,2.9913,2.9913,2.9913,2.9913,2.9913,2.9913,2.9913,2.9913,2.9913,2.9913,2.9913,2.9913,2.9927,3.0127,3.0114,2.3193,2.3915,2.4716,2.4997,2.5518,2.6186,2.7068,2.7442,2.7709,2.807,2.8123,2.7808,2.7522,2.7808,2.7829,2.7561,2.7875,2.8136,2.8136,2.8136,2.8323,2.8485,2.8645,2.8831,2.9429,2.9468,2.9535,2.99,2.9913,2.9913,2.9913,2.9913,2.9913,2.9913,2.9913,2.9913,2.9913,3.0371,3.0558,3.0863,3.1289,3.149,3.1664,3.1664,3.1664,3.1664,3.1664,3.1664,3.1664,3.1664,3.1597,3.149,3.149,3.1249,3.0862,3.0688,3.0541,3.0394,3.0047,3.0034,3.0154,2.998,2.9913,2.9913,2.9913,2.9913,2.9913,2.9913,3.0007,3.01,3.01,3.0314,3.0528,3.0528,3.0581,3.0768,3.1289,3.0996,3.0688,3.0915,3.0488,3.01,3.01,2.9993,2.9913,2.9913,2.9913,2.9913,2.9913,2.9913,2.9913,2.9913,2.9913,2.9913,2.9913,2.9913,2.9913,2.9913,2.9913,2.9913,2.9913,2.9913,2.9913,2.9913,2.9913,2.9913,2.9913,2.9913,2.9913,2.9913,3.01,3.0087,2.473,2.5371,2.5945,2.6239,2.6186,2.6279,2.7081,2.7722,2.8136,2.8136,2.7941,2.7746,2.7746,2.7746,2.7667,2.7736,2.7949,2.8136,2.8136,2.8136,2.827,2.8472,2.8472,2.8844,2.9272,2.9402,2.9628,2.9873,2.99,2.9913,2.9913,2.9913,2.9913,2.9913,2.9913,2.9913,2.9913,3.0478,3.0849,3.0863,3.1476,3.1664,3.1664,3.1664,3.1664,3.1664,3.1664,3.1664,3.1664,3.1637,3.1463,3.1223,3.1196,3.0849,3.0354,3.0354,3.0167,2.9913,2.9913,2.9913,2.9913,2.9913,2.9913,2.9913,2.9913,2.9913,2.9927,2.9953,3.0127,3.0327,3.0381,3.0595,3.0795,3.0822,3.0635,3.0662,3.1463,3.1009,3.0581,3.1049,3.0715,3.0354,3.0327,3.01,2.9913,2.9913,2.9913,2.9913,2.9913,2.9913,2.9913,2.9913,2.9913,2.9913,2.9913,2.9913,2.9913,2.9913,2.9913,2.9913,2.9913,2.9913,2.9913,2.9913,2.9913,2.9913,2.9913,2.9913,2.9913,2.9913,2.9913,2.9913,2.33,2.4289,2.5344,2.5625,2.6346,2.7028,2.7228,2.7722,2.8136,2.8136,2.8136,2.7954,2.7759,2.7941,2.8043,2.7749,2.7949,2.8136,2.8136,2.8136,2.8177,2.8257,2.831,2.847,2.8831,2.8951,2.9165,2.9553,2.978,2.9913,2.9913,2.9913,2.9913,2.9913,2.9913,2.9913,2.9913,3.0541,3.073,3.0863,3.1476,3.1664,3.1664,3.1664,3.1664,3.1664,3.1664,3.1664,3.165,3.1423,3.1289,3.1209,3.0969,3.0675,3.0354,3.0354,3.0167,2.9913,2.9913,2.9913,2.9913,2.9913,2.9913,2.9913,2.9913,2.9913,2.9967,3.0194,3.014,3.0114,3.0581,3.0742,3.0849,3.1076,3.1089,3.1089,3.1276,3.1169,3.0942,3.0608,3.0448,3.0287,3.0047,2.9953,2.9913,2.9913,2.9913,2.9913,2.9913,2.9913,2.9913,2.9913,2.9913,2.9913,2.9913,2.9913,2.9913,2.9913,2.9913,2.9913,2.9913,2.9913,2.9913,2.9913,2.9913,2.9913,2.9913,2.9913,2.9913,2.9913,2.9913,2.9913,2.3554,2.4476,2.5384,2.5825,2.6493,2.7068,2.7297,2.7714,2.7963,2.811,2.8136,2.8136,2.7941,2.8123,2.8096,2.7936,2.8043,2.8136,2.8136,2.8136,2.8136,2.8136,2.8136,2.823,2.8628,2.8804,2.9098,2.9461,2.9686,2.9913,2.9913,2.9913,2.9913,2.9913,2.9913,2.9913,2.9913,3.0421,3.0755,3.0743,3.1436,3.1664,3.1664,3.1664,3.1664,3.1664,3.1664,3.1664,3.165,3.1343,3.1142,3.0996,3.0702,3.0408,3.0154,3.0154,3.0047,2.9913,2.9913,2.9913,2.9913,2.9913,2.9913,2.9913,2.9913,2.9913,2.9953,3.01,3.0034,3.0047,3.0635,3.0795,3.0902,3.133,3.1223,3.1102,3.1383,3.1102,3.0808,3.0782,3.0555,3.0314,3.0154,3.0007,2.9913,2.9913,2.9913,2.9913,2.9913,2.9913,2.9913,2.9913,2.9913,2.9913,2.9913,2.9913,2.9913,2.9913,2.9913,2.9913,2.9913,2.9913,2.9913,2.9913,2.9913,2.9913,2.9913,2.9913,2.9913,2.9913,2.9913,2.9913,2.3968,2.4836,2.5585,2.6226,2.6613,2.6881,2.7189,2.7593,2.7843,2.8083,2.8136,2.8123,2.8056,2.8056,2.807,2.807,2.807,2.8083,2.8136,2.8136,2.8136,2.8136,2.8136,2.8318,2.8514,2.8804,2.9165,2.9406,2.977,2.9913,2.9913,2.9913,2.9913,2.9913,2.9913,2.9953,3.0007,3.0576,3.0886,3.0942,3.1436,3.1664,3.1664,3.1664,3.1664,3.1664,3.1664,3.1637,3.157,3.1276,3.0982,3.0688,3.0394,3.014,2.9913,2.9913,2.9913,2.9913,2.9913,2.9913,2.9913,2.9913,2.9913,2.9913,2.9913,2.9913,2.9927,2.998,2.9993,3.0114,3.0648,3.0822,3.0982,3.141,3.1142,3.0929,3.141,3.0982,3.0608,3.0929,3.0608,3.0287,3.0287,3.0074,2.9913,2.9913,2.9913,2.9913,2.9913,2.9913,2.9913,2.9913,2.9913,2.9913,2.9913,2.9913,2.9913,2.9913,2.9913,2.9913,2.9913,2.9913,2.9913,2.9913,2.9913,2.9913,2.9913,2.9913,2.9913,2.9913,2.9913,2.9913,2.2605,2.3901,2.5344,2.6172,2.6667,2.6826,2.7188,2.7476,2.772,2.8123,2.8136,2.8043,2.7875,2.7709,2.7762,2.7762,2.7762,2.7843,2.811,2.8136,2.8136,2.8136,2.8136,2.815,2.8318,2.8749,2.9017,2.9004,2.9499,2.9913,2.9913,2.9913,2.9913,2.9913,2.9913,3.0074,3.0408,3.0648,3.1009,3.1125,3.1421,3.1664,3.1664,3.1664,3.1664,3.1664,3.1664,3.1517,3.1263,3.0969,3.0675,3.0394,3.0087,2.9953,2.9913,2.9913,2.9913,2.9913,2.9913,2.9913,2.9913,2.9913,2.9913,2.9913,2.9913,2.9913,2.9967,3.0221,3.0301,3.0381,3.0702,3.0982,3.1129,3.0955,3.0849,3.0808,3.0889,3.1009,3.0902,3.0221,3.0034,2.998,2.998,2.994,2.9913,2.9913,2.9913,2.9913,2.9913,2.9913,2.9913,2.9913,2.9913,2.9913,2.9913,2.9913,2.9913,2.9913,2.9913,2.9913,2.9913,2.9913,2.9913,2.9913,2.9913,2.9913,2.9913,2.9913,2.9913,2.9913,2.9913,2.9913,2.3113,2.4235,2.5291,2.6172,2.6507,2.6747,2.7175,2.7455,2.7556,2.807,2.8136,2.8043,2.7696,2.7669,2.7682,2.745,2.7615,2.7736,2.7901,2.8123,2.8136,2.8136,2.8136,2.8136,2.8136,2.8617,2.8925,2.8925,2.9539,2.9913,2.9913,2.9913,2.9913,2.9913,2.9913,3.0074,3.0421,3.0584,3.0993,3.146,3.1664,3.1664,3.1664,3.1664,3.1664,3.1664,3.1664,3.1503,3.1209,3.0915,3.0621,3.0327,3.0034,2.9913,2.9913,2.9913,2.9913,2.9913,2.9913,2.9913,2.9913,2.9913,2.9913,2.9913,2.9913,2.9913,2.998,3.0274,3.0354,3.0461,3.0915,3.1129,3.1236,3.1276,3.1036,3.0835,3.0996,3.0755,3.0381,2.9993,2.9913,2.9913,2.9913,2.9913,2.9913,2.9913,2.9913,2.9913,2.9913,2.9913,2.9913,2.9913,2.9913,2.9913,2.9913,2.9913,2.9913,2.9913,2.9913,2.9913,2.9913,2.9913,2.9913,2.9913,2.9913,2.9913,2.9913,2.9913,2.9913,2.9913,2.9913,2.9913,2.3313,2.4128,2.4743,2.5872,2.6159,2.6321,2.7122,2.7268,2.7423,2.8043,2.8136,2.8056,2.7749,2.7642,2.7535,2.7237,2.7402,2.7535,2.7561,2.7795,2.8003,2.803,2.803,2.8056,2.8136,2.8644,2.8978,2.9032,2.9579,2.9913,2.9913,2.9913,2.9913,2.9913,2.9913,3.006,3.0354,3.0729,3.1165,3.1664,3.1664,3.1664,3.1664,3.1664,3.1664,3.1664,3.1583,3.1383,3.1089,3.0808,3.0515,3.0221,3.0007,2.9913,2.9913,2.9913,2.9913,2.9913,2.9913,2.9913,2.9913,2.9913,2.9913,2.9913,2.9913,2.9913,2.998,3.0274,3.0421,3.0568,3.0996,3.1223,3.1343,3.1343,3.1116,3.0929,3.0996,3.0488,3.0034,3.0034,2.9967,2.9913,2.9913,2.9913,2.9913,2.9913,2.9913,2.9913,2.9913,2.9913,2.9913,2.9913,2.9913,2.9913,2.9913,2.9913,2.9913,2.9913,2.9913,2.9913,2.9913,2.9913,2.9913,2.9913,2.9913,2.9913,2.9913,2.9913,2.9913,2.9913,2.9913,2.9913,2.2191,2.2739,2.3413,2.4769,2.5391,2.5859,2.6969,2.7295,2.7525,2.8123,2.8136,2.8056,2.7749,2.7468,2.7215,2.6852,2.6812,2.6958,2.733,2.7383,2.7437,2.7709,2.7722,2.7829,2.8123,2.8511,2.8658,2.9018,2.9375,2.9707,2.9913,2.9913,2.9913,2.9913,2.9913,3.006,3.0354,3.0942,3.1383,3.1664,3.1664,3.1664,3.1664,3.1664,3.1664,3.165,3.137,3.1089,3.0795,3.0501,3.0207,2.994,2.9927,2.9913,2.9913,2.9913,2.9913,2.9913,2.9913,2.9913,2.9913,2.9913,2.9913,2.9913,2.9913,2.9913,2.998,3.0274,3.0555,3.0782,3.0808,3.1223,3.1436,3.0621,3.0822,3.1049,3.0528,3.0368,3.0341,3.0341,3.0114,2.9913,2.9913,2.9913,2.9913,2.9913,2.9913,2.9913,2.9913,2.9913,2.9913,2.9913,2.9913,2.9913,2.9913,2.9913,2.9913,2.9913,2.9913,2.9913,2.9913,2.9913,2.9913,2.9913,2.9913,2.9913,2.9913,2.9913,2.9913,2.9913,2.9913,2.9913,2.2151,2.2498,2.2859,2.4152,2.4917,2.5431,2.6303,2.6827,2.7357,2.7835,2.8123,2.8056,2.7749,2.7455,2.7297,2.72,2.7132,2.72,2.751,2.7538,2.7663,2.8257,2.7996,2.7896,2.839,2.8617,2.8778,2.9044,2.9322,2.9707,2.9913,2.9913,2.9913,2.9913,2.9913,3.014,3.0635,3.1022,3.137,3.1664,3.1664,3.1664,3.1664,3.1664,3.1664,3.1637,3.1156,3.0889,3.0782,3.0675,3.0354,2.9913,2.9913,2.9913,2.9913,2.9913,2.9913,2.9913,2.9913,2.9913,2.9913,2.9913,2.9913,2.9913,2.9913,2.9913,3.002,3.0501,3.0715,3.0875,3.1263,3.1517,3.149,3.0795,3.0942,3.1009,3.0247,3.0074,3.0074,3.0074,2.9993,2.9913,2.9913,2.9913,2.9913,2.9913,2.9913,2.9913,2.9913,2.9913,2.9913,2.9913,2.9913,2.9913,2.9913,2.9913,2.9913,2.9913,2.9913,2.9913,2.9913,2.9913,2.9913,2.9913,2.9913,2.9913,2.9913,2.9913,2.9913,2.9913,2.9913,2.9913,2.1643,2.1977,2.2378,2.3714,2.4228,2.4755,2.5905,2.6534,2.6865,2.7602,2.7822,2.807,2.7883,2.7615,2.7418,2.7387,2.736,2.7401,2.7588,2.7579,2.7676,2.8249,2.7915,2.7822,2.8417,2.8497,2.8551,2.892,2.9189,2.9462,2.9726,2.9847,2.9913,2.9913,2.9913,3.0221,3.0875,3.1009,3.1276,3.1664,3.1664,3.1664,3.1664,3.1664,3.161,3.1503,3.1102,3.0889,3.0782,3.0581,3.0261,2.9913,2.9913,2.9913,2.9913,2.9913,2.9913,2.9913,2.9913,2.9913,2.9913,2.9913,2.9913,2.9913,2.9913,2.998,3.0154,3.0541,3.0795,3.1022,3.1423,3.145,3.1303,3.1009,3.0862,3.0662,3.0167,3.006,3.0034,2.994,2.9913,2.9913,2.9913,2.9913,2.9913,2.9913,2.9913,2.9913,2.9913,2.9913,2.9913,2.9913,2.9913,2.9913,2.9913,2.9913,2.9913,2.9913,2.9913,2.9913,2.9913,2.9913,2.9913,2.9913,2.9913,2.9913,2.9913,2.9913,2.9913,2.9913,2.9913,3.0258,0.0,0.0,0.0,2.3364,2.3295,2.3584,2.6167,2.5976,2.5855,2.7404,2.7696,2.7746,2.8123,2.7896,2.7562,2.7432,2.7324,2.7268,2.7295,2.739,2.735,2.7665,2.7797,2.7928,2.8163,2.815,2.8332,2.8528,2.8828,2.9139,2.9555,2.9713,2.9913,2.9913,2.9913,3.0106,3.0863,3.0875,3.1089,3.1664,3.1664,3.1664,3.165,3.165,3.149,3.1209,3.1209,3.1036,3.0728,3.0167,2.9927,2.9913,2.9913,2.9913,2.9913,2.9913,2.9913,2.9913,2.9913,2.9913,2.9913,2.9913,2.9913,2.9913,2.9913,3.0114,3.0354,3.0354,3.0768,3.1223,3.1236,3.1022,3.0875,3.1142,3.0555,3.0007,3.0287,3.0341,3.0261,2.9967,2.9913,2.9913,2.9913,2.9913,2.9913,2.9913,2.9913,2.9913,2.9913,2.9913,2.9913,2.9913,2.9913,2.9913,2.9913,2.9913,2.9913,2.9913,2.9913,2.9913,2.9913,2.9913,2.9913,2.9913,2.9913,2.9913,2.9913,2.9913,2.9913,2.9913,2.9913,3.1301,2.0334,0.0,0.0,0.0,0.0,0.0,2.3942,2.4206,2.47,2.6351,2.6769,2.6916,2.7762,2.7883,2.7909,2.7562,2.7552,2.7606,2.7843,2.7667,2.7822,2.8261,2.8247,2.8184,2.8525,2.8574,2.8514,2.8528,2.8858,2.9216,2.9535,2.9668,2.9913,2.9913,2.9913,3.0106,3.0863,3.0875,3.1089,3.1664,3.1664,3.1557,3.1343,3.1343,3.1183,3.0902,3.0688,3.0555,3.0474,3.0301,3.0114,2.9913,2.9913,2.9913,2.9913,2.9913,2.9913,2.9913,2.9913,2.9913,2.9913,2.9913,2.9913,2.9913,2.9913,2.998,3.0087,3.0301,3.0621,3.1009,3.1436,3.133,3.1076,3.0942,3.0568,3.0207,3.0074,3.0034,3.002,2.9927,2.9913,2.9913,2.9913,2.9913,2.9913,2.9913,2.9913,2.9913,2.9913,2.9913,2.9913,2.9913,2.9913,2.9913,2.9913,2.9913,2.9913,2.9913,2.9913,2.9913,2.9913,2.9913,2.9913,2.9913,2.9913,2.9913,2.9913,2.9913,2.9913,2.9913,3.1657,3.4591,2.008,2.0134,2.0401,2.1109,0.0,0.0,2.3392,2.3758,2.4101,2.6108,2.6558,2.676,2.7468,2.7629,2.7722,2.7549,2.7575,2.7736,2.8096,2.7954,2.8123,2.8332,2.8311,2.823,2.8517,2.8446,2.8514,2.8528,2.8668,2.9032,2.9475,2.9721,2.9913,2.9913,2.9913,3.0247,3.0757,3.0849,3.1022,3.149,3.149,3.133,3.1049,3.1049,3.0889,3.0595,3.0434,3.0287,3.0181,3.0181,3.0074,2.9913,2.9913,2.9913,2.9913,2.9913,2.9913,2.9913,2.9913,2.9913,2.9913,2.9913,2.9913,2.9913,2.9913,3.0007,3.014,3.0314,3.0662,3.1049,3.1396,3.1263,3.0969,3.0675,3.0381,3.0127,2.9953,2.9913,2.9913,2.9913,2.9913,2.9913,2.9913,2.9913,2.9913,2.9913,2.9913,2.9913,2.9913,2.9913,2.9913,2.9913,2.9913,2.9913,2.9913,2.9913,2.9913,2.9913,2.9913,2.9913,2.9913,2.9913,2.9913,2.9913,2.9913,2.9913,2.9913,2.9913,2.9913,2.9913,3.1301,3.4417,1.992,2.004,2.0468,2.1216,2.0869,0.0,2.3607,2.3515,2.3651,2.5848,2.635,2.64,2.6894,2.7055,2.7001,2.6934,2.7126,2.742,2.811,2.8136,2.8136,2.8136,2.815,2.8353,2.86,2.8472,2.8283,2.8528,2.8528,2.8856,2.9449,2.9721,2.9913,2.9913,2.9913,3.0194,3.0782,3.0795,3.0942,3.1223,3.1223,3.1049,3.0742,3.0742,3.0581,3.0314,3.0314,3.0167,2.9913,2.9913,2.9913,2.9913,2.9913,2.9913,2.9913,2.9913,2.9913,2.9913,2.9913,2.9913,2.9913,2.9913,2.9913,2.9913,2.9913,3.01,3.0327,3.0394,3.0755,3.1156,3.1249,3.1009,3.0688,3.0461,3.0154,2.9913,2.9913,2.9913,2.9913,2.9913,2.9913,2.9913,2.9913,2.9913,2.9913,2.9913,2.9913,2.9913,2.9913,2.9913,2.9913,2.9913,2.9913,2.9913,2.9913,2.9913,2.9913,2.9913,2.9913,2.9913,2.9913,2.9913,2.9913,2.9913,2.9913,2.9913,2.9913,2.9913,3.0093,3.0258,3.0258,3.269,2.0134,2.0187,2.0575,2.0508,2.0722,0.0,2.1376,2.1318,2.1556,2.301,2.324,2.3466,2.4274,2.4997,2.5358,2.4877,2.6047,2.7068,2.764,2.7759,2.7941,2.8136,2.8332,2.8426,2.8273,2.8561,2.8762,2.8386,2.871,2.9055,2.9449,2.9721,2.9913,2.9913,2.9913,3.0194,3.0782,3.0795,3.0942,3.1223,3.1223,3.0955,3.0448,3.0448,3.0287,3.0007,3.0007,2.9967,2.9913,2.9913,2.9913,2.9913,2.9913,2.9913,2.9913,2.9913,2.9913,2.9913,2.9913,2.9913,2.9913,2.9913,2.9913,2.9913,2.9913,2.9953,3.01,3.0581,3.0621,3.0688,3.1396,3.1022,3.0488,3.0662,3.0301,2.9913,2.9913,2.9913,2.9913,2.9913,2.9913,2.9913,2.9913,2.9913,2.9913,2.9913,2.9913,2.9913,2.9913,2.9913,2.9913,2.9913,2.9913,2.9913,2.9913,2.9913,2.9913,2.9913,2.9913,2.9913,2.9913,2.9913,2.9913,2.9913,2.9913,2.9913,2.9913,2.9913,3.0781,3.269,3.269,3.5273,2.0201,2.0013,2.0267,2.0414,2.0454,0.0,0.0,2.1061,2.1213,2.2592,2.2697,2.2822,2.3483,2.3967,2.4155,2.4008,2.5267,2.6207,2.6159,2.7367,2.815,2.8332,2.8514,2.8528,2.8528,2.8671,2.8579,2.819,2.871,2.9041,2.9244,2.9515,2.9721,2.9913,2.9913,3.0194,3.0782,3.0648,3.0728,3.1009,3.0862,3.0568,3.014,3.014,3.006,2.9913,2.9913,2.9913,2.9913,2.9913,2.9913,2.9913,2.9913,2.9913,2.9913,2.9913,2.9913,2.9913,2.9913,2.9913,2.9913,2.9913,2.9913,2.9913,2.9913,3.0127,3.0381,3.0541,3.0675,3.0862,3.1156,3.0795,3.0394,3.0541,3.0234,2.9913,2.9913,2.9913,2.9913,2.9913,2.9913,2.9913,2.9913,2.9913,2.9913,2.9913,2.9913,2.9913,2.9913,2.9913,2.9913,2.9913,2.9913,2.9913,2.9913,2.9913,2.9913,2.9913,2.9913,2.9913,2.9913,2.9913,2.9913,2.9913,3.1137,3.1657,3.1657,3.2867,3.269,3.1657,3.2867,3.5273,2.0655,2.0307,2.0454,2.0695,2.0535,2.0508,0.0,0.0,0.0,2.2295,2.2356,2.2423,2.2549,2.2673,2.2873,2.306,2.4162,2.482,0.0,2.64,0.0,2.7957,2.8283,2.8514,2.8528,2.8108,2.7942,2.8417,2.8466,2.8657,2.9052,2.9309,2.9707,2.9913,2.9913,3.0181,3.0742,3.0501,3.0515,3.0795,3.0501,3.0207,2.9913,2.9913,2.9913,2.9913,2.9913,2.9913,2.9913,2.9913,2.9913,2.9913,2.9913,2.9913,2.9913,2.9913,2.9913,2.9913,2.9913,2.9913,2.9913,2.9913,2.9913,2.9913,2.9913,3.0247,3.0581,3.0408,3.0702,3.1036,3.0902,3.0621,3.0381,3.0434,3.0181,2.9913,2.9913,2.9913,2.9913,2.9913,2.9913,2.9913,2.9913,2.9913,2.9913,2.9913,2.9913,2.9913,2.9913,2.9913,2.9913,2.9913,2.9913,2.9913,2.9913,2.9913,2.9913,2.9913,2.9913,2.9913,2.9913,3.0258,3.0781,3.1301,3.3043,3.4082,3.4082,3.5967,3.494,3.1301,3.3219,3.5288,2.2285,2.2124,2.2285,2.1309,2.159,2.1683,2.004,0.0,2.0254,1.9932,0.0,2.0186,2.0187,0.0,0.0,2.0668,2.2082,2.31,2.2744,2.4289,2.5484,2.558,2.7043,2.7941,2.7175,2.6792,2.7231,2.8876,2.7758,2.7693,2.9436,2.9515,2.9707,2.9913,2.9913,3.0127,3.0738,3.0501,3.0581,3.0795,3.0501,3.0207,2.9913,2.9913,2.9913,2.9913,2.9913,2.9913,2.9913,2.9913,2.9913,2.9913,2.9913,2.9913,2.9913,2.9913,2.9913,2.9913,2.9913,2.9913,2.9913,2.9913,2.9913,2.9913,2.9913,2.9967,3.006,3.0301,3.0408,3.0568,3.1049,3.0768,3.0421,3.0675,3.0314,2.9913,2.9913,2.9913,2.9913,2.9913,2.9913,2.9913,2.9913,2.9913,2.9913,2.9913,2.9913,2.9913,2.9913,2.9913,2.9913,2.9913,2.9913,2.9913,2.9913,2.9913,2.9913,2.9913,2.9913,2.9913,2.9913,3.1834,3.3907,3.5967,3.6313,3.6485,3.6485,3.6658,3.6485,3.5967,3.6313,3.769,2.2659,2.2806,2.31,2.1911,2.2017,2.1964,2.0254,1.9853,1.9681,1.9653,0.0,0.0,0.0,0.0,0.0,0.0,2.1327,2.1916,0.0,0.0,2.4305,0.0,0.0,0.0,2.6746,2.6743,2.7176,2.8604,2.7785,2.7622,2.9057,2.9455,2.9707,2.9913,2.9913,3.0114,3.0711,3.0287,3.0368,3.0782,3.0327,3.0034,2.9913,2.9913,2.9913,2.9913,2.9913,2.9913,2.9913,2.9913,2.9913,2.9913,2.9913,2.9913,2.9913,2.9913,2.9913,2.9913,2.9913,2.9913,2.9913,2.9913,2.9913,2.9913,2.9913,3.0034,3.0167,3.0114,3.0221,3.0421,3.0662,3.0408,3.0181,3.0474,3.0221,2.9913,2.9913,2.9913,2.9913,2.9913,2.9913,2.9913,2.9913,2.9913,2.9913,2.9913,2.9913,2.9913,2.9913,2.9913,2.9913,2.9913,2.9913,2.9913,2.9913,2.9913,2.9913,2.9913,2.9913,3.0437,3.182,3.2867,3.4417,3.683,3.8203,3.8885,3.8885,4.009,4.0782,4.0782,3.9395,3.9395,2.3514,2.3634,2.3781,2.2352,2.2084,2.1804,2.0334,1.9811,1.9712,1.9746,1.9824,0.0,0.0,0.0,1.972,2.0054,0.0,2.1087,0.0,2.1617,0.0,0.0,0.0,0.0,0.0,2.5926,2.6373,2.8077,2.7145,2.7279,2.9098,2.9336,2.9515,2.9721,2.9913,3.0167,3.0859,3.0167,3.0207,3.0782,3.0194,2.9913,2.9913,2.9913,2.9913,2.9913,2.9913,2.9913,2.9913,2.9913,2.9913,2.9913,2.9913,2.9913,2.9913,2.9913,2.9913,2.9913,2.9913,2.9913,2.9913,2.9913,2.9913,2.9913,2.9913,3.0074,3.0194,2.998,3.0127,3.0354,3.0354,3.0207,3.01,3.0314,3.014,2.9913,2.9913,2.9913,2.9913,2.9913,2.9913,2.9913,2.9913,2.9913,2.9913,2.9913,2.9913,2.9913,2.9913,2.9913,2.9913,2.9913,2.9913,2.9913,2.9913,2.9913,2.9913,2.9913,2.9913,3.1301,3.4257,3.4242,3.562,3.8545,4.0427,4.1286,4.1286,4.2844,4.3711,4.3711,4.1974,4.1286,2.5464,2.501,2.4543,2.2498,2.1777,2.1203,1.9733,2.0048,2.0508,1.9878,2.0427,2.0901,2.0227,2.0214,2.012,1.9853,2.0096,0.0,0.0,0.0,0.0,0.0,0.0,0.0,0.0,2.35,2.4269,0.0,2.5609,2.6022,2.938,2.9112,2.9117,2.9515,2.9721,3.0274,3.0836,3.0287,3.0207,3.0782,3.0194,2.9913,2.9913,2.9913,2.9913,2.9913,2.9913,2.9913,2.9913,2.9913,2.9913,2.9913,2.9913,2.9913,2.9913,2.9913,2.9913,2.9913,2.9913,2.9913,2.9913,2.9913,2.9913,2.9913,2.9913,2.9927,2.9927,2.9913,3.0127,3.0354,3.0354,3.0354,3.0354,3.0354,3.014,2.9913,2.9913,2.9913,2.9913,2.9913,2.9913,2.9913,2.9913,2.9913,2.9913,2.9913,2.9913,2.9913,2.9913,2.9913,2.9913,2.9913,2.9913,2.9913,2.9913,2.9913,2.9913,2.9913,2.9913,3.1997,3.6485,3.6658,3.8885,4.3361,4.3526,4.3526,4.3526,4.3711,4.3711,4.3711,4.3711,4.3526,2.6159,2.652,2.652,2.4062,2.338,2.2766,2.0708,2.051,2.0469,1.9915,2.0537,2.0903,2.0249,2.0026,1.992,1.9813,1.969,0.0,0.0,0.0,0.0,0.0,0.0,0.0,0.0,0.0,0.0,0.0,2.6652,0.0,2.9458,2.9325,2.9455,2.9721,2.9913,3.0106,3.0863,3.0119,3.0207,3.0782,3.0194,2.9913,2.9913,2.9913,2.9913,2.9913,2.9913,2.9913,2.9913,2.9913,2.9913,2.9913,2.9913,2.9913,2.9913,2.9913,2.9913,2.9913,2.9913,2.9913,2.9913,2.9913,2.9913,2.9913,2.9913,2.9913,2.9913,2.9913,2.9993,3.0074,3.0074,3.0074,3.0074,3.0074,2.9993,2.9913,2.9913,2.9913,2.9913,2.9913,2.9913,2.9913,2.9913,2.9913,2.9913,2.9913,2.9913,2.9913,2.9913,2.9913,2.9913,2.9913,2.9913,2.9913,2.9913,2.9913,2.9913,2.9913,2.9913,3.1997,3.6658,3.683,3.9055,4.3526,4.3711,4.3711,4.3711,4.3711,4.3711,4.3711,4.3711,4.3711,2.7175,2.7415,2.7295,2.5077,2.4436,2.3821,2.1764,2.1529,2.1714,2.1208,2.1325,2.167,2.1889,2.0913,2.0214,2.0521,0.0,0.0,0.0,1.9031,0.0,0.0,0.0,0.0,0.0,0.0,0.0,0.0,0.0,0.0,0.0,2.9528,2.9582,2.97,2.9847,3.0221,3.0862,3.0172,3.0146,3.0782,3.0194,2.9913,2.9913,2.9913,2.9913,2.9913,2.9913,2.9913,2.9913,2.9913,2.9913,2.9913,2.9913,2.9913,2.9913,2.9913,2.9913,2.9913,2.9913,2.9913,2.9913,2.9913,2.9913,2.9913,2.9913,2.9913,2.9913,2.9913,2.9913,2.9913,2.9913,2.9913,2.9913,2.9913,2.9913,2.9913,2.9913,2.9913,2.9913,2.9913,2.9913,2.9913,2.9913,2.9913,2.9913,2.9913,2.9913,2.9913,2.9913,2.9913,2.9913,2.9913,2.9913,2.9913,2.9913,2.9913,2.9913,2.9913,2.9913,3.1997,3.6658,3.683,3.9055,4.3526,4.3711,4.3711,4.3711,4.3711,4.3711,4.3711,4.3711,4.3711]}]]